     2.10           OBSERVATION DATA    G (GPS)             RINEX VERSION / TYPE
teqc 2002Mar14 SOPAC 20050725 22:55:26UTC                   PGM / RUN BY / DATE
Linux 2.0.36|Pentium II|gcc -static|Linux|486/DX+           COMMENT
BIT 2 OF LLI FLAGS DATA COLLECTED UNDER A/S CONDITION       COMMENT
CM 24 58                                                    MARKER NAME
2458                                                        MARKER NUMBER
Dallas Carlon                                               OBSERVER / AGENCY
0220308760 TRIMBLE 5700 2.01                                REC # / TYPE / VERS
12606060 TRM41249.00 NONE                                   ANT # / TYPE
 -2538157.0000 -4043132.0000  4217929.0000                  APPROX POSITION XYZ
        1.8000        0.0000        0.0000                  ANTENNA: DELTA H/E/N
     1     1                                                WAVELENGTH FACT L1/2
     6    L1    L2    C1    P2    P1    D1                  # / TYPES OF OBSERV
    15.0000                                                 INTERVAL
Northern California Height Modernization 2004               COMMENT
                                                            COMMENT
SOPAC - Scripps Orbit and Permanent Array Center            COMMENT
IGPP - Institute of Geophysics and Planetary Physics        COMMENT
SIO - Scripps Institution of Oceanography                   COMMENT
UCSD - University of California, San Diego                  COMMENT
                                                            COMMENT
email: archive@gpsmail.ucsd.edu                             COMMENT
ftp://garner.ucsd.edu                                       COMMENT
http://sopac.ucsd.edu                                       COMMENT
                                                            COMMENT
                                                            COMMENT
Approximate Lat, Lon : 41.653, -122.119                     COMMENT
                                                            COMMENT
SNR is mapped to RINEX snr flag value [1-9]                 COMMENT
L1: 3 -> 1; 8 -> 5; 40 -> 9                                 COMMENT
L2: 1 -> 1; 5 -> 5; 60 -> 9                                 COMMENT
  2004     9    16    20    36    0.0000000     GPS         TIME OF FIRST OBS
                                                            END OF HEADER
 04  9 16 20 36  0.0000000  0  7G 3G 8G13G16G19G23G27
   -377617.61759   -292101.94957  23108337.4534   23108338.3984

  -1029175.76659   -789662.60557  22829740.3364   22829740.5744

    147914.80559    109850.07458  20252963.2974   20252960.9184

   1665511.43459   1269485.41456  24216816.9694   24216816.6094

   -645176.52759   -503358.73056  24112858.2894   24112859.1374

   1246805.27359    958476.01257  21647497.0234   21647493.7504

   -460035.77359   -359095.77358  21463270.3914   21463269.3594

 04  9 16 20 36 15.0000000  0  7G 3G 8G13G16G19G23G27
   -388377.69949   -300486.41447  23106290.3364   23106290.2544
       717.3394
  -1062623.26649   -815725.57447  22823375.8594   22823374.9384
      2229.8334
    154194.34849    114743.21548  20254158.0394   20254155.6214
      -418.6364
   1720783.93449   1312554.82446  24227335.3364   24227334.6174
     -3684.8334
   -679949.46949   -530454.46147  24106241.7664   24106241.0904
      2318.1964
   1288741.14549    991153.27747  21655477.1414   21655473.8714
     -2795.7254
   -474718.68049   -370537.00048  21460476.6724   21460475.3014
       978.8604
 04  9 16 20 36 30.0000000  0  7G 3G 8G13G16G19G23G27
   -399024.71549   -308782.80147  23104264.0314   23104264.1604
       709.8014
  -1096043.23849   -841767.09847  22817016.1724   22817015.8554
      2227.9984
    160572.62149    119713.28948  20255371.7114   20255369.3674
      -425.2184
   1776087.07049   1355648.12146  24237859.3444   24237858.2734
     -3686.8764
   -714691.18049   -557525.85947  24099630.4064   24099630.8324
      2316.1144
   1330749.82849   1023887.29347  21663471.1414   21663467.4844
     -2800.5794
   -489369.41449   -381953.15647  21457688.5234   21457687.1804
       976.7164
 04  9 16 20 36 45.0000000  0  7G 3G 8G13G16G19G23G27
   -409555.74249   -316988.80147  23102259.4384   23102260.0124
       702.0684
  -1129432.84449   -867784.96147  22810662.0474   22810661.8634
      2225.9744
    167052.26249    124762.35948  20256604.6884   20256602.4534
      -431.9764
   1831423.09449   1398767.08246  24248389.2034   24248388.2894
     -3689.0684
   -749398.72749   -584570.59047  24093025.4534   24093026.3594
      2313.8364
   1372833.76249   1056679.93847  21671479.6414   21671475.6724
     -2805.5964
   -503985.36349   -393342.20747  21454907.3674   21454906.1374
       974.3974
 04  9 16 20 37  0.0000000  0  7G 3G 8G13G16G19G23G27
   -419971.75449   -325105.17247  23100277.9694   23100277.5514
       694.4014
  -1162793.72749   -893780.42647  22804313.6564   22804313.8794
      2224.0594
    173632.12149    129889.50848  20257857.2114   20257854.5274
      -438.6574
   1886790.51249   1441910.48046  24258925.0634   24258924.2154
     -3691.1614
   -784072.77749   -611589.27347  24086427.9534   24086427.7384
      2311.6034
   1414991.80949   1089530.33247  21679502.0864   21679498.6414
     -2810.5364
   -518567.69149   -404705.05947  21452132.4064   21452130.8634
       972.1554
 04  9 16 20 37 15.0000000  0  7G 3G 8G13G16G19G23G27
   -430273.35949   -333132.36747  23098317.0164   23098317.0784
       686.7744
  -1196126.31249   -919753.84047  22797970.8754   22797970.7234
      2222.1724
    180311.75849    135094.41048  20259127.8284   20259125.4494
      -445.3094
   1942188.31349   1485077.58646  24269468.0164   24269466.6844
     -3693.1874
   -818713.75049   -638582.20747  24079835.9384   24079834.9884
      2309.3984
   1457223.03549   1122437.73047  21687538.3984   21687534.9184
     -2815.4154
   -533117.13749   -416042.29747  21449363.8834   21449362.6134
       969.9634
 04  9 16 20 37 30.0000000  0  7G 3G 8G13G16G19G23G27
   -440459.00049   -341069.23847  23096379.2814   23096379.0904
       679.0434
  -1229429.04349   -945704.00047  22791633.4694   22791633.2974
      2220.1824
    187092.77049    140378.30148  20260418.6094   20260416.0824
      -452.0674
   1997617.53149   1528269.14846  24280015.4144   24280014.6454
     -3695.2814
   -853320.01649   -665548.05547  24073250.1254   24073250.3754
      2307.0844
   1499528.78949   1155403.22747  21695588.9144   21695585.2114
     -2820.3844
   -547632.33249   -427352.84047  21446601.2114   21446600.1994
       967.6804
 04  9 16 20 37 45.0000000  0  7G 3G 8G13G16G19G23G27
   -450527.80149   -348915.05547  23094463.1484   23094463.7344
       671.2534
  -1262701.52349   -971630.59047  22785301.7274   22785301.6484
      2218.1654
    193975.74649    145741.64548  20261728.2664   20261726.1174
      -458.8654
   2053078.58649   1571485.49646  24290569.1884   24290568.1134
     -3697.4044
   -887890.47349   -692486.01247  24066672.0234   24066671.7034
      2304.6974
   1541909.54749   1188427.16047  21703653.6804   21703650.0124
     -2825.3844
   -562112.69549   -438636.23847  21443846.3984   21443844.9224
       965.3584
 04  9 16 20 38  0.0000000  0  7G 3G 8G13G16G19G23G27
   -460479.59449   -356669.71147  23092568.8364   23092569.7544
       663.4534
  -1295943.66849   -997533.54747  22778976.4224   22778975.5664
      2216.1434
    200960.77049    151184.51248  20263057.5944   20263055.1724
      -465.6684
   2108570.96549   1614726.27346  24301129.5704   24301128.0554
     -3699.4924
   -922424.96149   -719395.94947  24060100.6024   24060099.9694
      2302.2994
   1584364.97749   1221509.27347  21711732.6884   21711728.8444
     -2830.3624
   -576558.26649   -449892.52748  21441097.0704   21441095.9264
       963.0384
 04  9 16 20 38 15.0000000  0  7G 3G 8G13G16G19G23G27
   -470313.53149   -364332.51647  23090698.3524   23090698.5904
       655.5964
  -1329154.57049  -1023412.15647  22772656.6484   22772655.8404
      2214.0604
    208048.57849    156707.46948  20264406.2974   20264404.0314
      -472.5214
   2164095.09449   1657991.80146  24311695.0554   24311694.3754
     -3701.6094
   -956922.23049   -746276.87947  24053536.1564   24053535.3794
      2299.8184
   1626895.75449   1254650.10947  21719826.3674   21719822.6024
     -2835.3854
   -590968.44149   -461121.23448  21438354.6804   21438353.6174
       960.6784
 04  9 16 20 38 30.0000000  0  7G 3G 8G13G16G19G23G27
   -480031.06649   -371904.61347  23088848.7664   23088848.5744
       647.8364
  -1362336.23849  -1049267.98047  22766341.8284   22766341.6094
      2212.1114
    215237.48449    162309.20348  20265774.4534   20265771.9454
      -479.2604
   2219648.86749   1701280.43446  24322266.7194   24322265.9344
     -3703.5854
   -991383.73449   -773129.94147  24046978.2584   24046976.2974
      2297.4344
   1669500.08249   1287848.25847  21727933.5474   21727930.0554
     -2840.2894
   -605344.99649   -472323.74247  21435619.3054   21435618.1564
       958.4374
 04  9 16 20 38 45.0000000  0  7G 3G 8G13G16G19G23G27
   -489629.17649   -379383.66047  23087022.7734   23087022.1844
       639.8744
  -1395485.80949  -1075098.78947  22760033.7274   22760033.4384
      2209.9714
    222530.37149    167991.96948  20267162.0864   20267159.6954
      -486.1924
   2275234.85549   1744594.15246  24332844.5084   24332843.6684
     -3705.7334
  -1025806.28149   -799952.67647  24040427.4064   24040426.3404
      2294.8364
   1712180.56649   1321105.74247  21736055.4384   21736051.8794
     -2845.3664
   -619685.01249   -483497.78148  21432890.4924   21432889.0744
       956.0014
 04  9 16 20 39  0.0000000  0  6G 3G 8G13G19G23G27
   -499108.86749   -386770.43747  23085218.7814   23085218.7234
       631.9794
  -1428604.24249  -1100905.35247  22753731.7344   22753731.3594
      2207.8964
    229926.14849    173754.90648  20268569.2274   20268567.0784
      -493.0524
  -1060190.73049   -826745.68447  24033884.4774   24033883.6954
      2292.2974
   1754935.88749   1354421.54347  21744191.2664   21744187.7704
     -2850.3554
   -633989.68749   -494644.28548  21430168.2274   21430166.5664
       953.6454
 04  9 16 20 39 15.0000000  0  6G 3G 8G13G19G23G27
   -508470.34849   -394065.10947  23083437.1954   23083437.2504
       624.0994
  -1461692.09849  -1126688.07847  22747435.5474   22747434.7624
      2205.8574
    237424.49249    179597.76248  20269996.5314   20269993.9844
      -499.8904
  -1094537.16849   -853509.10546  24027347.8594   24027347.2734
      2289.7634
   1797765.52349   1387795.25847  21752341.8364   21752337.7274
     -2855.3094
   -648259.62549   -505763.71548  21427452.7734   21427451.4024
       951.3294
 04  9 16 20 39 30.0000000  0  6G 3G 8G13G19G23G27
   -517712.02049   -401266.42247  23081678.3444   23081678.8164
       616.1114
  -1494747.74249  -1152445.70747  22741145.3134   22741144.2894
      2203.7104
    245026.98049    185521.76648  20271443.1954   20271441.0904
      -506.8334
  -1128843.69149   -880241.41446  24020819.1884   24020819.3244
      2287.1024
   1840670.75049   1421227.86347  21760506.3444   21760502.9414
     -2860.3484
   -662493.27049   -516854.87148  21424744.2034   21424742.6524
       948.9104
 04  9 16 20 39 45.0000000  0  6G 3G 8G13G19G23G27
   -526834.07049   -408374.50847  23079942.9454   23079942.7464
       608.1374
  -1527771.45749  -1178178.46147  22734860.8594   22734859.8634
      2201.5814
    252733.25049    191526.63348  20272909.5864   20272907.2194
      -513.7514
  -1163110.37549   -906942.67646  24014298.4844   24014298.1994
      2284.4464
   1883651.11349   1454719.02047  21768685.3364   21768681.8874
     -2865.3584
   -676691.02349   -527918.05548  21422042.5554   21422041.0664
       946.5174
 04  9 16 20 40  0.0000000  0  6G 3G 8G13G19G23G27
   -535833.18749   -415386.81247  23078230.1484   23078230.0084
       599.9414
  -1560760.37149  -1203884.08647  22728583.3284   22728583.1334
      2199.2614
    260546.44949    197614.84048  20274396.2114   20274393.7274
      -520.8804
  -1197333.79749   -933610.23047  24007786.0314   24007786.1604
      2281.5614
   1926709.50849   1488270.97347  21776879.1024   21776875.7664
     -2870.5604
   -690849.97749   -538951.00848  21419348.0784   21419347.0204
       943.9304
 04  9 16 20 40 15.0000000  0  6G 3G 8G13G19G23G27
   -544707.40249   -422301.78947  23076541.1804   23076541.4804
       591.6144
  -1593712.54749  -1229561.09447  22722312.7584   22722312.5824
      2196.8124
    268468.35949    203787.74248  20275903.5784   20275901.3914
      -528.1274
  -1231511.91049   -960242.45746  24001282.1414   24001283.1914
      2278.5414
   1969847.56349   1521885.00447  21785088.0004   21785084.6994
     -2875.8704
   -704968.36349   -549952.34448  21416661.4384   21416659.9774
       941.2264
 04  9 16 20 40 30.0000000  0  6G 3G 8G13G19G23G27
   -553457.55149   -429120.09847  23074876.5634   23074876.6024
       583.3434
  -1626628.85249  -1255210.13747  22716049.1334   22716048.4884
      2194.4204
    276498.16849    210044.72748  20277431.7894   20277429.2974
      -535.3214
  -1265645.23049   -986839.80547  23994786.4844   23994787.5164
      2275.5554
   2013064.12549   1555560.21547  21793311.6884   21793308.4144
     -2881.1044
   -719047.14849   -560922.83247  21413982.4454   21413980.8874
       938.5864
 04  9 16 20 40 45.0000000  0  6G 3G 8G13G19G23G27
   -562084.14549   -435842.12147  23073234.6484   23073235.6214
       575.1064
  -1659510.11749  -1280831.89547  22709792.0554   22709791.2814
      2192.0844
    284635.39149    216385.40648  20278979.8524   20278977.6414
      -542.4824
  -1299734.03149  -1013402.45747  23988300.6644   23988300.3014
      2272.5874
   2056358.37949   1589295.97347  21801550.2034   21801546.6844
     -2886.2844
   -733087.01649   -571862.98448  21411310.5634   21411309.4804
       935.9914
 04  9 16 20 41  0.0000000  0  6G 3G 8G13G19G23G27
   -570588.42249   -442468.82847  23071616.7194   23071616.8134
       566.9524
  -1692357.85549  -1306427.52747  22703540.6954   22703540.3984
      2189.8494
    292878.61349    222808.68848  20280548.8914   20280546.4344
      -549.5484
  -1333779.41849  -1039931.28547  23981821.4534   23981821.3954
      2269.6924
   2099728.96949   1623091.21147  21809803.4454   21809800.2384
     -2891.3734
   -747089.31249   -582773.85947  21408646.2504   21408644.9384
       933.4864
 04  9 16 20 41 15.0000000  0  6G 3G 8G13G19G23G27
   -578968.32049   -448998.61747  23070022.2034   23070021.3484
       558.6604
  -1725170.14849  -1331995.53947  22697297.2034   22697296.3364
      2187.4864
    301229.64549    229315.97348  20282137.8834   20282135.4414
      -556.7354
  -1367779.21149  -1066424.55947  23975351.1644   23975351.2774
      2266.6534
   2143177.33649   1656947.03947  21818071.7194   21818068.5164
     -2896.5584
   -761052.40249   -593654.19148  21405988.9614   21405987.7304
       930.8734
 04  9 16 20 41 30.0000000  0  6G 3G 8G13G19G23G27
   -587224.35549   -455431.89847  23068450.7274   23068450.4804
       550.4024
  -1757947.48049  -1357536.28547  22691059.8284   22691059.1174
      2185.1554
    309687.83249    235906.75448  20283747.4534   20283745.0354
      -563.8794
  -1401733.80949  -1092882.62947  23968889.8834   23968889.8874
      2263.6404
   2186702.70749   1690862.88347  21826354.4844   21826351.3324
     -2901.6914
   -774976.91849   -604504.46548  21403339.1024   21403337.9064
       928.3014
 04  9 16 20 41 45.0000000  0  6G 3G 8G13G19G23G27
   -595355.14149   -461767.56647  23066904.1174   23066903.2664
       542.0524
  -1790688.63749  -1383048.84847  22684829.2344   22684828.7424
      2182.7444
    318254.64549    242582.18448  20285377.5554   20285375.3674
      -571.1214
  -1435641.55149  -1119304.22747  23962438.0784   23962437.4964
      2260.5164
   2230306.23849   1724839.62547  21834651.9384   21834648.4024
     -2906.9024
   -788861.54749   -615323.65648  21400696.8674   21400695.5084
       925.6424
 04  9 16 20 42  0.0000000  0  6G 3G 8G13G19G23G27
   -603362.02049   -468006.70347  23065380.1254   23065379.2664
       533.7924
  -1823395.14149  -1408534.42647  22678605.1884   22678605.0084
      2180.4344
    326928.45749    249340.99648  20287028.2034   20287026.3164
      -578.2544
  -1469503.75049  -1145690.29347  23955994.7114   23955993.8404
      2257.4804
   2273986.07049   1758875.82047  21842964.3284   21842960.4844
     -2911.9894
   -802708.03949   -626113.13348  21398062.2974   21398060.7854
       923.0994
 04  9 16 20 42 15.0000000  0  6G 3G 8G13G19G23G27
   -611244.29349   -474148.73847  23063880.4924   23063878.8444
       525.4854
  -1856066.65249  -1433992.73447  22672388.3834   22672387.4694
      2178.1014
    335709.91049    256183.67648  20288699.1094   20288697.1374
      -585.4304
  -1503319.50449  -1172040.17647  23949558.7424   23949558.8874
      2254.3844
   2317742.64149   1792971.80147  21851290.2974   21851287.3444
     -2917.1054
   -816515.82049   -636872.44547  21395434.9304   21395433.5204
       920.5194
 04  9 16 20 42 30.0000000  0  6G 3G 8G13G19G23G27
   -619001.43049   -480193.25047  23062403.6484   23062403.3054
       517.1424
  -1888702.41849  -1459423.19547  22666177.8914   22666177.2194
      2175.7184
    344599.50849    263110.62148  20290391.2274   20290388.9104
      -592.6404
  -1537087.94549  -1198353.18447  23943132.8444   23943132.9654
      2251.2294
   2361576.35949   1827127.90647  21859631.8444   21859628.7814
     -2922.2484
   -830284.69949   -647601.44148  21392814.5704   21392812.9804
       917.9254
 04  9 16 20 42 45.0000000  0  6G 3G 8G13G19G23G27
   -626634.12149   -486140.79747  23060950.5944   23060950.7384
       508.8464
  -1921303.59449  -1484826.67647  22659973.9774   22659972.9964
      2173.4124
    353596.30549    270121.10548  20292103.2504   20292100.8754
      -599.7864
  -1570809.69949  -1224629.81247  23936716.4144   23936715.0944
      2248.1174
   2405486.05949   1861343.21547  21867987.2114   21867984.1954
     -2927.3134
   -844015.39149   -658300.68048  21390201.8204   21390200.4734
       915.3794
 04  9 16 20 43  0.0000000  0  6G 3G 8G13G19G23G27
   -634143.68049   -491992.39147  23059521.8674   23059522.0594
       500.6374
  -1953871.43449  -1510204.21547  22653776.6804   22653775.8874
      2171.1894
    362699.09449    277214.17648  20293835.1414   20293833.0634
      -606.8534
  -1604485.85249  -1250870.90647  23930307.0864   23930306.9264
      2245.0774
   2449470.07849   1895616.44947  21876357.4064   21876354.3634
     -2932.2684
   -857709.40249   -668971.34048  21387595.8754   21387594.4614
       912.9344
 04  9 16 20 43 15.0000000  0  6G 3G 8G13G19G23G27
   -641527.31649   -497745.87947  23058117.3054   23058116.3594
       492.2424
  -1986403.37149  -1535553.74647  22647585.7114   22647584.7464
      2168.7964
    371910.43849    284391.83248  20295588.2504   20295585.8364
      -614.0904
  -1638113.42249  -1277074.12947  23923908.2664   23923908.1174
      2241.8384
   2493530.96149   1929949.57447  21884741.4454   21884738.3324
     -2937.3924
   -871364.26649   -679611.48847  21384997.4614   21384995.9694
       910.3244
 04  9 16 20 43 30.0000000  0  6G 3G 8G13G19G23G27
   -648786.03149   -503402.02347  23056735.7734   23056735.1334
       483.9144
  -2018900.63349  -1560876.27747  22641401.8364   22641401.1724
      2166.4844
    381229.22749    291653.22748  20297361.7584   20297359.0434
      -621.2534
  -1671693.30549  -1303240.20347  23917517.6484   23917518.0664
      2238.6594
   2537667.43449   1964341.59047  21893140.9384   21893137.6334
     -2942.4324
   -884981.11349   -690222.02348  21382406.0944   21382404.7854
       907.7904
 04  9 16 20 43 45.0000000  0  6G 3G 8G13G19G23G27
   -655919.30949   -508960.44547  23055378.6024   23055378.5394
       475.5524
  -2051362.78949  -1586171.45747  22635224.1484   22635223.9144
      2164.1444
    390655.83249    298998.62148  20299155.2344   20299152.8054
      -628.4404
  -1705224.84849  -1329368.61347  23911137.0394   23911136.1054
      2235.4364
   2581879.60249   1998792.59047  21901554.3134   21901550.9654
     -2947.4784
   -898559.62949   -700802.68748  21379822.1254   21379821.1414
       905.2344
 04  9 16 20 44  0.0000000  0  6G 3G 8G13G19G23G27
   -662926.43049   -514420.54347  23054045.3524   23054045.0234
       467.1414
  -2083789.18449  -1611438.75847  22629053.5394   22629053.1644
      2161.7604
    400190.91449    306428.54348  20300969.7424   20300967.4144
      -635.6724
  -1738707.00449  -1355458.57446  23904765.1484   23904764.7384
      2232.1444
   2626167.82449   2033302.85947  21909982.3284   21909979.0594
     -2952.5484
   -912099.27349   -711353.06248  21377245.7974   21377244.7854
       902.6434
 04  9 16 20 44 15.0000000  0  6G 3G 8G13G19G23G27
   -669807.53149   -519782.41047  23052735.6804   23052735.5704
       458.7404
  -2116180.20749  -1636678.49647  22622889.6484   22622889.4224
      2159.4024
    409834.26649    313942.82448  20302804.8444   20302802.3444
      -642.8904
  -1772139.85549  -1381510.08647  23898403.0944   23898402.1994
      2228.8574
   2670531.67649   2067872.05947  21918423.9144   21918421.0274
     -2957.5904
   -925600.44149   -721873.45748  21374676.7194   21374675.3134
       900.0784
 04  9 16 20 44 30.0000000  0  6G 3G 8G13G19G23G27
   -676560.91449   -525044.79747  23051450.4454   23051450.6254
       450.2264
  -2148534.28149  -1661889.44147  22616733.2664   22616732.9574
      2156.9384
    419587.54749    321542.78148  20304660.8444   20304658.3364
      -650.2194
  -1805521.34449  -1407521.56647  23892051.4614   23892050.2034
      2225.4334
   2714972.62949   2102501.33647  21926880.9844   21926877.7774
     -2962.7304
   -939061.57449   -732362.65248  21372115.2664   21372114.0394
       897.4094
 04  9 16 20 44 45.0000000  0  6G 3G 8G13G19G23G27
   -683186.87149   -530207.87547  23050189.5554   23050189.4534
       441.7304
  -2180851.96949  -1687072.06647  22610583.5234   22610582.7114
      2154.5134
    429450.01249    329227.80948  20306537.8524   20306535.2154
      -657.4984
  -1838851.74249  -1433493.27047  23885708.2504   23885707.3094
      2222.0274
   2759489.96949   2137190.13347  21935352.4774   21935348.8794
     -2967.8234
   -952483.23449   -742821.08248  21369561.1254   21369559.9144
       894.7774
 04  9 16 20 45  0.0000000  0  6G 3G 8G13G19G23G27
   -689684.30549   -535270.80947  23048953.2424   23048953.1524
       433.1624
  -2213132.18449  -1712225.46947  22604440.7664   22604440.3364
      2152.0144
    439422.91849    336998.89848  20308435.5704   20308432.8794
      -664.8604
  -1872129.68449  -1459424.08247  23879376.0944   23879374.7344
      2218.5294
   2804084.54749   2171939.10947  21943838.3054   21943835.0634
     -2972.9724
   -965864.41849   -753247.98048  21367014.6414   21367013.4884
       892.0794
 04  9 16 20 45 15.0000000  0  6G 3G 8G13G19G23G27
   -696053.53949   -540233.84047  23047740.9774   23047740.4844
       424.6164
  -2245375.11749  -1737349.81247  22598305.3594   22598304.2424
      2149.5294
    449505.90649    344855.75848  20310354.3444   20310351.7424
      -672.1994
  -1905355.34049  -1485314.17647  23873053.1414   23873051.6134
      2215.0444
   2848755.80149   2206747.85547  21952339.1884   21952335.8404
     -2978.0844
   -979205.63349   -763643.73448  21364476.1564   21364474.7464
       889.4144
 04  9 16 20 45 30.0000000  0  6G 3G 8G13G19G23G27
   -702296.45749   -545098.42247  23046553.5634   23046552.9454
       416.1954
  -2277583.21549  -1762447.02047  22592176.2504   22592175.5664
      2147.2074
    459696.96949    352796.84048  20312293.7664   20312291.2774
      -679.4044
  -1938530.37949  -1511164.81647  23866740.6724   23866739.4064
      2211.6694
   2893501.41449   2241614.51647  21960854.0084   21960850.8714
     -2983.0414
   -992508.96149   -774009.96148  21361944.2734   21361942.9654
       886.8894
 04  9 16 20 45 45.0000000  0  6G 3G 8G13G19G23G27
   -708411.07449   -549863.05547  23045389.9534   23045389.5784
       407.6414
  -2309754.41849  -1787515.46947  22586054.1954   22586053.2974
      2144.7474
    469997.94549    360823.55948  20314253.5004   20314251.3874
      -686.7324
  -1971652.56649  -1536974.27047  23860437.4774   23860437.5314
      2208.1464
   2938323.16449   2276540.50447  21969383.3524   21969380.0864
     -2988.1174
  -1005772.56249   -784345.22748  21359420.1484   21359419.2154
       884.2404
 04  9 16 20 46  0.0000000  0  6G 3G 8G13G19G23G27
   -714398.11749   -554528.29347  23044250.4064   23044249.9264
       399.1364
  -2341889.59849  -1812555.85547  22579938.8754   22579938.2114
      2142.3454
    480408.07449    368935.34048  20316234.7114   20316232.2344
      -694.0094
  -2004722.44549  -1562742.95747  23854144.9064   23854143.5664
      2204.6594
   2983219.91849   2311524.94947  21977927.3834   21977923.7074
     -2993.1174
  -1018997.24649   -794650.17648  21356903.8674   21356902.2774
       881.6464
 04  9 16 20 46 15.0000000  0  6G 3G 8G13G19G23G27
   -720255.42249   -559092.42647  23043135.6414   23043136.3524
       390.4874
  -2373986.76649  -1837566.62947  22573831.2034   22573830.3094
      2139.8114
    490929.35549    377133.73848  20318236.6484   20318234.6524
      -701.4194
  -2037737.63749  -1588469.02047  23847861.8674   23847861.3754
      2201.0134
   3028193.48049   2346569.25047  21986484.9774   21986481.4024
     -2998.2374
  -1032181.26249   -804923.43448  21354395.0944   21354393.5704
       878.9344
 04  9 16 20 46 30.0000000  0  6G 3G 8G13G19G23G27
   -725984.66449   -563556.75447  23042045.1024   23042046.5354
       381.9494
  -2406047.61349  -1862549.08247  22567730.0554   22567729.7274
      2137.3904
    501560.05949    385417.39548  20320259.7894   20320257.5204
      -708.7144
  -2070699.66449  -1614153.65647  23841589.6254   23841589.1134
      2197.4684
   3073241.94949   2381671.91047  21995057.7664   21995054.2734
     -3003.2314
  -1045326.36749   -815166.37948  21351893.8364   21351892.1054
       876.3404
 04  9 16 20 46 45.0000000  0  6G 3G 8G13G19G23G27
   -731585.17649   -567920.77747  23040979.6724   23040980.8284
       373.3674
  -2438071.64549  -1887502.86347  22561636.5944   22561635.4654
      2134.9354
    512300.65649    393786.68448  20322303.2344   20322301.1604
      -716.0404
  -2103607.75849  -1639796.26647  23835327.2034   23835327.5084
      2193.8734
   3118365.66849   2416833.21947  22003644.2504   22003640.8714
     -3008.2484
  -1058432.08249   -825378.62548  21349399.5394   21349398.1564
       873.7144
 04  9 16 20 47  0.0000000  0  6G 3G 8G13G19G23G27
   -737055.34849   -572183.24647  23039939.1094   23039938.7074
       364.6784
  -2470057.43449  -1912426.84047  22555549.1804   22555548.7974
      2132.3864
    523152.76649    402242.86348  20324368.6094   20324366.2584
      -723.4744
  -2136460.07049  -1665395.41447  23829075.5314   23829074.3794
      2190.1544
   3163565.96949   2452054.19547  22012245.6564   22012242.0634
     -3013.3534
  -1071496.91849   -835559.01248  21346913.5084   21346911.9494
       870.9894
 04  9 16 20 47 15.0000000  0  6G 3G 8G13G19G23G27
   -742394.19949   -576343.37547  23038923.2814   23038922.8754
       355.9234
  -2502004.30549  -1937320.49247  22549470.0394   22549469.5824
      2129.7914
    534117.14849    410786.53148  20326455.1024   20326452.7074
      -730.9594
  -2169255.47749  -1690950.21547  23822834.6954   23822832.7234
      2186.3604
   3208843.40249   2487335.28147  22020861.7584   22020858.1684
     -3018.4964
  -1084520.16449   -845706.99248  21344435.4064   21344433.5354
       868.2164
 04  9 16 20 47 30.0000000  0  6G 3G 8G13G19G23G27
   -747603.31649   -580402.44147  23037931.3594   23037931.5864
       347.2744
  -2533913.79349  -1962185.00847  22543397.9614   22543397.1684
      2127.2994
    545192.19549    419416.42648  20328562.6094   20328560.4344
      -738.3364
  -2201995.29349  -1716461.72747  23816604.6804   23816602.7854
      2182.6544
   3254196.15649   2522675.04347  22029492.2274   22029488.4384
     -3023.5174
  -1097503.60949   -855823.96148  21341964.5784   21341963.0704
       865.5634
 04  9 16 20 47 45.0000000  0  6G 3G 8G13G19G23G27
   -752683.95749   -584361.37947  23036964.5784   23036964.3554
       338.7094
  -2565787.07449  -1987021.30547  22537332.4774   22537331.6764
      2124.8854
    556376.68449    428131.60948  20330691.2274   20330689.0514
      -745.6334
  -2234680.44149  -1741930.61747  23810384.4774   23810383.1294
      2179.0104
   3299622.85549   2558072.44547  22038136.1644   22038133.1174
     -3028.4474
  -1110448.55549   -865910.92648  21339501.2974   21339499.7424
       862.9964
 04  9 16 20 48  0.0000000  0  6G 3G 8G13G19G23G27
   -757632.28149   -588217.19147  23036022.6254   23036022.7664
       329.8884
  -2597620.51649  -2011826.55947  22531274.5314   22531273.9454
      2122.2294
    567674.35949    436934.99248  20332840.8984   20332838.7704
      -753.1784
  -2267306.81249  -1767353.71147  23804175.7894   23804174.2974
      2175.0914
   3345127.00849   2593530.18447  22046795.5474   22046792.5204
     -3033.6104
  -1123351.04749   -875964.82048  21337045.8594   21337044.4924
       860.1664
 04  9 16 20 48 15.0000000  0  6G 3G 8G13G19G23G27
   -762449.39149   -591970.76247  23035106.3674   23035106.1374
       321.1414
  -2629415.39849  -2036601.78547  22525224.1414   22525223.7194
      2119.6594
    579083.90649    445825.53548  20335012.1174   20335009.4694
      -760.6364
  -2299875.37149  -1792731.75047  23797978.5634   23797977.2274
      2171.2374
   3390707.08649   2629047.08647  22055469.2974   22055465.6484
     -3038.6724
  -1136212.71549   -885986.89848  21334598.3204   21334596.8954
       857.4454
 04  9 16 20 48 30.0000000  0  6G 3G 8G13G19G23G27
   -767134.67649   -595621.64547  23034215.2424   23034214.7274
       312.3524
  -2661171.30949  -2061346.64547  22519181.4224   22519181.2304
      2117.0614
    590605.89549    454803.69548  20337204.3134   20337201.9454
      -768.1334
  -2332385.33649  -1818064.14547  23791792.0164   23791790.6134
      2167.3314
   3436363.41849   2664623.41847  22064157.3834   22064154.4144
     -3043.7554
  -1149033.05949   -895976.77348  21332158.9064   21332157.0864
       854.6904
 04  9 16 20 48 45.0000000  0  6G 3G 8G13G19G23G27
   -771685.41849   -599167.66047  23033349.2504   23033348.3164
       303.3834
  -2692885.55949  -2086059.03547  22513146.4064   22513146.1994
      2114.2834
    602242.79349    463871.40248  20339419.1174   20339416.5984
      -775.7934
  -2364833.88349  -1843348.65247  23785616.5314   23785615.6374
      2163.2364
   3482098.34049   2700260.98047  22072860.2664   22072856.7194
     -3048.9954
  -1161809.60549   -905932.53548  21329727.8364   21329726.1254
       851.7704
 04  9 16 20 49  0.0000000  0  6G 3G 8G13G19G23G27
   -776103.81649   -602610.57447  23032508.2734   23032507.1524
       294.5604
  -2724560.43449  -2110740.73847  22507119.0314   22507118.2584
      2111.6584
    613992.37149    473026.91048  20341655.1484   20341652.4264
      -783.3054
  -2397223.00049  -1868586.87547  23779454.1884   23779451.5274
      2159.2744
   3527909.41049   2735957.88347  22081578.1334   22081574.7194
     -3054.0714
  -1174544.56649   -915855.87948  21327304.1954   21327302.4414
       848.9974
 04  9 16 20 49 15.0000000  0  6G 3G 8G13G19G23G27
   -780387.83249   -605948.76247  23031692.7344   23031692.0864
       285.6014
  -2756194.16449  -2135390.39147  22501099.1334   22501098.4384
      2108.9154
    625856.80149    482271.91448  20343912.7504   20343910.2704
      -790.9624
  -2429550.34849  -1893776.98047  23773301.8134   23773300.4264
      2155.1574
   3573798.46949   2771715.55947  22090310.8444   22090307.1134
     -3059.2714
  -1187236.09849   -925745.38348  21324889.1174   21324887.2464
       846.1024
 04  9 16 20 49 30.0000000  0  6G 3G 8G13G19G23G27
   -784539.14549   -609183.53947  23030902.5864   23030902.4064
       276.7544
  -2787788.41049  -2160009.26247  22495086.9454   22495086.2234
      2106.2834
    637834.19549    491604.93448  20346192.3054   20346189.6484
      -798.4934
  -2461817.35249  -1918920.04747  23767161.7894   23767159.8954
      2151.1344
   3619763.45749   2807532.39547  22099057.2274   22099054.4104
     -3064.3334
  -1199886.08249   -935602.50848  21322481.5864   21322480.3014
       843.3324
 04  9 16 20 49 45.0000000  0  6G 3G 8G13G19G23G27
   -788556.95749   -612314.30947  23030138.1884   23030138.3874
       267.8544
  -2819342.46549  -2184596.82047  22489082.7274   22489081.8094
      2103.6044
    649925.09849    501026.40648  20348492.7894   20348490.2704
      -806.0604
  -2494023.08649  -1944015.40247  23761033.4534   23761030.8484
      2147.0494
   3665804.76249   2843408.70347  22107818.7274   22107816.2344
     -3069.4204
  -1212493.83249   -945426.72748  21320082.3444   21320081.0514
       840.5174
 04  9 16 20 50  0.0000000  0  6G 3G 8G13G19G23G27
   -792442.13349   -615341.69947  23029398.8754   23029399.4024
       259.0124
  -2850857.32449  -2209153.84047  22483085.3594   22483084.9804
      2100.9914
    662128.70349    510535.70348  20350814.7664   20350812.8284
      -813.5744
  -2526168.25049  -1969063.52347  23754915.9064   23754913.6884
      2143.0114
   3711921.29349   2879343.62547  22116594.1564   22116591.8204
     -3074.4354
  -1225060.40249   -955218.85948  21317691.0474   21317689.9144
       837.7714
 04  9 16 20 50 15.0000000  0  6G 3G 8G13G19G23G27
   -796191.28149   -618263.11747  23028685.4454   23028685.6804
       249.9434
  -2882329.89549  -2233677.91047  22477096.2734   22477095.3754
      2098.1714
    674448.19949    520135.29748  20353159.5474   20353156.9654
      -821.3004
  -2558249.33249  -1994061.74247  23748811.3364   23748809.1914
      2138.7394
   3758116.16849   2915339.58647  22125385.0944   22125382.1054
     -3079.6584
  -1237582.77049   -964976.54748  21315308.3524   21315306.9964
       834.8244
 04  9 16 20 50 30.0000000  0  6G 3G 8G13G19G23G27
   -799802.74249   -621077.23047  23027998.1884   23027997.7584
       240.7644
  -2913758.42649  -2258167.65247  22471115.5004   22471115.0514
      2095.2354
    686885.22749    529826.48448  20355525.9304   20355523.7464
      -829.1354
  -2590264.15249  -2019008.32447  23742718.4454   23742717.9344
      2134.3214
   3804390.79349   2951397.70747  22134191.1254   22134187.9774
     -3084.9754
  -1250059.11749   -974698.37548  21312934.0314   21312932.6454
       831.7574
 04  9 16 20 50 45.0000000  0  6G 3G 8G13G19G23G27
   -803276.19549   -623783.80547  23027336.8444   23027337.4494
       231.5644
  -2945142.65249  -2282622.87147  22465143.8674   22465143.2704
      2092.2824
    699440.16049    539609.54348  20357915.2584   20357912.7934
      -836.9964
  -2622212.29349  -2043902.94147  23736638.9384   23736638.3484
      2129.8764
   3850745.20749   2987518.00847  22143011.6954   22143008.8754
     -3090.2944
  -1262489.32049   -984384.24648  21310568.6954   21310567.2274
       828.6804
 04  9 16 20 51  0.0000000  0  6G 3G 8G13G19G23G27
   -806613.06649   -626383.95347  23026701.9844   23026702.3794
       222.4584
  -2976484.19149  -2307044.84047  22459179.4924   22459178.6994
      2089.4364
    712111.44949    549483.27348  20360326.3984   20360324.0514
      -844.7534
  -2654094.95349  -2068746.52747  23730571.7114   23730570.4654
      2125.5114
   3897177.62149   3023699.07447  22151847.2274   22151844.9104
     -3095.4944
  -1274874.90649   -994035.35248  21308211.5474   21308210.6564
       825.7064
 04  9 16 20 51 15.0000000  0  6G 3G 8G13G19G23G27
   -809794.46949   -628862.98847  23026096.9144   23026097.7464
       212.0934
  -3007764.44949  -2331419.04347  22453226.6484   22453226.7234
      2085.3514
    724917.64549    559462.11748  20362763.4614   20362761.0514
      -853.7464
  -2685893.21549  -2093524.33647  23724520.3834   23724519.0904
      2119.8844
   3943706.59449   3059955.37147  22160702.1804   22160699.5984
     -3101.9324
  -1287197.31249  -1003637.22348  21305867.0784   21305865.6094
       821.4944
 04  9 16 20 51 30.0000000  0  6G 3G 8G13G19G23G27
   -812764.25449   -631177.10947  23025531.6644   23025532.7814
       197.9864
  -3038927.37149  -2355701.82847  22447296.8364   22447296.5744
      2077.5284
    737914.90249    569589.84848  20365236.6724   20365234.2774
      -866.4844
  -2717550.61749  -2118192.41047  23718496.4454   23718495.2304
      2110.4934
   3990387.94149   3096330.40647  22169585.2504   22169582.2974
     -3112.0904
  -1299400.51649  -1013146.20748  21303544.7734   21303543.4344
       813.5474
 04  9 16 20 51 45.0000000  0  6G 3G 8G13G19G23G27
   -815591.64549   -633380.25047  23024993.4844   23024994.0594
       188.4934
  -3070041.98849  -2379946.96547  22441375.7114   22441375.4344
      2074.3084
    751034.06649    579812.56348  20367733.3054   20367730.9734
      -874.6114
  -2749136.11749  -2142804.43447  23712485.6644   23712484.9384
      2105.7004
   4037152.34049   3132770.16447  22178484.2664   22178481.4104
     -3117.6274
  -1311553.87149  -1022616.34848  21301231.8444   21301230.5044
       810.2244
 04  9 16 20 52  0.0000000  0  6G 3G 8G13G19G23G27
   -818277.24249   -635472.92647  23024482.1094   23024482.7464
       179.0404
  -3101108.85549  -2404154.89847  22435463.7584   22435463.2504
      2071.1244
    764274.44549    590129.73048  20370252.5704   20370250.5984
      -882.6924
  -2780649.90249  -2167360.59847  23706488.8984   23706487.4264
      2100.9194
   4083998.85549   3169273.90647  22187399.0704   22187396.3324
     -3123.1014
  -1323657.94149  -1032048.09848  21298928.7734   21298927.3954
       806.9384
 04  9 16 20 52 15.0000000  0  6G 3G 8G13G19G23G27
   -820818.44949   -637453.07047  23023998.9844   23023998.9574
       169.4144
  -3132125.81249  -2428323.94947  22429561.9144   22429561.1294
      2067.7974
    777638.43049    600543.22348  20372795.8674   20372793.9804
      -890.9324
  -2812089.42249  -2191858.88347  23700505.8364   23700504.8054
      2095.9684
   4130929.76649   3205843.40647  22196329.6334   22196326.6454
     -3128.7274
  -1335710.39149  -1041439.60948  21296635.4614   21296633.8634
       803.4974
 04  9 16 20 52 30.0000000  0  6G 3G 8G13G19G23G27
   -823220.27349   -639324.63347  23023542.1954   23023542.1684
       160.1224
  -3163097.95349  -2452458.07047  22423668.0944   22423667.1954
      2064.8094
    791120.90249    611049.03948  20375361.4614   20375359.2504
      -898.8324
  -2843459.46549  -2216303.03947  23694536.7274   23694535.6484
      2091.3364
   4177939.65649   3242474.44947  22205275.1094   22205272.1214
     -3133.9934
  -1347716.43049  -1050794.96148  21294350.6024   21294349.1724
       800.4034
 04  9 16 20 52 45.0000000  0  6G 3G 8G13G19G23G27
   -825480.23449   -641085.62147  23023111.5004   23023111.5274
       150.6644
  -3194022.91449  -2476555.41447  22417782.8834   22417782.3524
      2061.6644
    804724.37549    621649.14548  20377950.1644   20377947.8484
      -906.8984
  -2874757.23049  -2240690.86347  23688580.8594   23688579.4414
      2086.5184
   4225030.84849   3279168.83647  22214236.4224   22214233.6914
     -3139.4134
  -1359673.64149  -1060112.26648  21292075.0554   21292073.9344
       797.1474
 04  9 16 20 53  0.0000000  0  6G 3G 8G13G19G23G27
   -827599.58249   -642737.06647  23022708.5394   23022708.4024
       141.2904
  -3224901.99249  -2500617.02347  22411907.0864   22411905.9614
      2058.6054
    818447.41049    632342.41048  20380561.2734   20380559.1564
      -914.8694
  -2905983.74249  -2265023.17247  23682639.1334   23682637.3594
      2081.7674
   4272201.69949   3315925.30947  22223212.5864   22223210.1914
     -3144.7234
  -1371583.54749  -1069392.70748  21289808.8914   21289807.2894
       793.9944
 04  9 16 20 53 15.0000000  0  6G 3G 8G13G19G23G27
   -829578.03549   -644278.71947  23022332.2424   23022332.2074
       131.8974
  -3255734.70749  -2524642.49247  22406039.7974   22406039.3674
      2055.5144
    832290.24249    643129.03148  20383195.3284   20383193.3284
      -922.8554
  -2937138.41049  -2289299.52047  23676710.7584   23676709.3134
      2076.9784
   4319452.22749   3352743.86347  22232204.0784   22232201.6024
     -3150.0354
  -1383445.84049  -1078636.05148  21287551.2814   21287549.9104
       790.8204
 04  9 16 20 53 30.0000000  0  6G 3G 8G13G19G23G27
   -831417.18449   -645711.78547  23021981.7274   23021982.4064
       122.6104
  -3286522.87149  -2548633.25047  22400180.6564   22400180.4384
      2052.5444
    846251.34449    654007.80148  20385852.4454   20385850.4104
      -930.7404
  -2968222.67649  -2313520.98847  23670795.1724   23670794.2464
      2072.2844
   4366780.71549   3389623.15647  22241210.7814   22241208.0474
     -3155.2334
  -1395262.16849  -1087843.57448  21285302.8754   21285301.6484
       787.7554
 04  9 16 20 53 45.0000000  0  6G 3G 8G13G19G23G27
   -833114.24649   -647034.16847  23021659.1484   23021659.4304
       113.1384
  -3317263.94149  -2572587.32847  22394331.1094   22394330.6374
      2049.4054
    860333.20749    664980.68048  20388532.0004   20388529.9534
      -938.7914
  -2999233.41049  -2337685.16447  23664894.2034   23664893.7464
      2067.3824
   4414189.56349   3426565.08247  22250232.3134   22250229.2974
     -3160.5904
  -1407030.02749  -1097013.33648  21283063.7664   21283062.1454
       784.5244
 04  9 16 20 54  0.0000000  0  6G 3G 8G13G19G23G27
   -834670.80949   -648247.07047  23021363.2274   23021362.7854
       103.7714
  -3347959.79749  -2596506.14547  22388489.7114   22388488.7734
      2046.3904
    874534.33649    676046.48848  20391234.6174   20391232.1564
      -946.7424
  -3030172.19549  -2361793.29747  23659006.6334   23659004.8794
      2062.5864
   4461676.94549   3463568.19947  22259268.4614   22259265.8054
     -3165.8264
  -1418751.05549  -1106146.59848  21280832.8834   21280831.4804
       781.4024
 04  9 16 20 54 15.0000000  0  6G 3G 8G13G19G23G27
   -836087.81249   -649351.23447  23021093.3134   23021093.4384
        94.4674
  -3378611.00849  -2620390.19547  22382656.9844   22382655.8714
      2043.4144
    888853.60949    687204.36348  20393959.3054   20393956.9064
      -954.6184
  -3061039.53549  -2385845.75047  23653132.7194   23653131.4774
      2057.8234
   4509241.59449   3500631.52347  22268320.0084   22268317.4534
     -3170.9774
  -1430426.35549  -1115244.22348  21278611.0704   21278609.7074
       778.3534
 04  9 16 20 54 30.0000000  0  6G 3G 8G13G19G23G27
   -837365.16449   -650346.58247  23020850.0314   23020850.1524
        85.1574
  -3409217.75449  -2644239.58647  22376832.5784   22376831.6334
      2040.4504
    903291.16049    698454.40248  20396706.5634   20396704.4884
      -962.5034
  -3091835.11749  -2409842.26647  23647272.6334   23647271.0664
      2053.0394
   4556883.39549   3537754.96547  22277385.7424   22277383.6684
     -3176.1204
  -1442055.87149  -1124306.18748  21276398.2814   21276397.0124
       775.3014
 04  9 16 20 54 45.0000000  0  6G 3G 8G13G19G23G27
   -838501.69149   -651232.18047  23020633.6724   23020634.3364
        75.7684
  -3439778.85549  -2668053.43047  22371017.3444   22371016.1094
      2037.4074
    917848.12549    709797.48048  20399476.7814   20399474.3484
      -970.4644
  -3122557.59449  -2433781.84047  23641425.7194   23641424.6094
      2048.1654
   4604603.26649   3574939.24247  22286466.8284   22286464.2734
     -3181.3254
  -1453638.66049  -1133331.73048  21274194.0164   21274193.0314
       772.1864
 04  9 16 20 55  0.0000000  0  6G 3G 8G13G19G23G27
   -839495.54749   -652006.59447  23020444.1334   23020445.4024
        66.2574
  -3470292.68449  -2691830.42247  22365210.5234   22365209.0984
      2034.2554
    932526.33249    721235.03548  20402269.9224   20402267.9264
      -978.5474
  -3153204.88749  -2457662.80947  23635593.9694   23635592.6174
      2043.1534
   4652402.65249   3612185.47347  22295562.7974   22295560.3914
     -3186.6264
  -1465173.00449  -1142319.53548  21271999.1804   21271997.6604
       768.9564
 04  9 16 20 55 15.0000000  0  6G 3G 8G13G19G23G27
   -840350.19549   -652672.53947  23020282.2034   23020282.4884
        56.9774
  -3500762.68449  -2715573.26647  22359412.2974   22359410.9614
      2031.3334
    947321.94149    732764.07848  20405085.2584   20405083.1764
      -986.3744
  -3183780.28949  -2481487.79346  23629775.7584   23629773.5984
      2038.3604
   4700277.70349   3649490.66847  22304673.2814   22304670.2774
     -3191.6704
  -1476662.49649  -1151272.37948  21269812.7584   21269811.4454
       765.9664
 04  9 16 20 55 30.0000000  0  6G 3G 8G13G19G23G27
   -841065.08249   -653229.58647  23020146.0084   23020146.0044
        47.6594
  -3531188.53549  -2739281.71547  22353622.6804   22353620.8524
      2028.3904
    962235.35549    744384.91848  20407923.5784   20407921.1294
      -994.2284
  -3214282.96949  -2505256.06647  23623971.5084   23623969.9494
      2033.5124
   4748228.78949   3686855.11747  22313798.1644   22313795.6724
     -3196.7394
  -1488106.73849  -1160189.96948  21267635.0234   21267633.3874
       762.9494
 04  9 16 20 55 45.0000000  0  6G 3G 8G13G19G23G27
   -841637.64549   -653675.74247  23020037.0944   23020036.7464
        38.1714
  -3561567.66849  -2762953.73847  22347841.3364   22347840.4694
      2025.2764
    977269.23449    756099.62148  20410784.4844   20410782.1214
     -1002.2594
  -3244710.00449  -2528965.43747  23618180.9774   23618179.1134
      2028.4694
   4796258.36349   3724280.73047  22322936.8284   22322935.5634
     -3201.9724
  -1499503.14149  -1169070.28548  21265466.6724   21265465.0634
       759.7604
 04  9 16 20 56  0.0000000  0  6G 3G 8G13G19G23G27
   -842066.64549   -654010.00847  23019955.3594   23019954.9574
        28.6004
  -3591898.94549  -2786588.49247  22342069.5944   22342068.5274
      2022.0854
    992424.75049    767909.10248  20413668.2274   20413666.0084
     -1010.3684
  -3275059.93749  -2552614.70347  23612405.8914   23612403.5944
      2023.3294
   4844367.29749   3761768.16447  22332092.2894   22332090.4064
     -3207.2624
  -1510850.59849  -1177912.45348  21263306.9454   21263305.5084
       756.4974
 04  9 16 20 56 15.0000000  0  6G 3G 8G13G19G23G27
   -842355.27049   -654234.89147  23019900.3594   23019900.7464
        19.2424
  -3622185.45349  -2810188.35947  22336306.4384   22336305.0984
      2019.1014
   1007698.70349    779810.88348  20416575.1334   20416572.9344
     -1018.2644
  -3305335.82849  -2576206.29347  23606644.5164   23606643.0204
      2018.3934
   4892552.11349   3799314.73847  22341261.8984   22341259.1844
     -3212.3214
  -1522152.37549  -1186719.02748  21261156.4224   21261154.8364
       753.4524
 04  9 16 20 56 30.0000000  0  6G 3G 8G13G19G23G27
   -842500.98049   -654348.41847  23019873.0004   23019873.5474
         9.7144
  -3652424.59849  -2833751.30547  22330551.8594   22330550.6374
      2015.9434
   1023093.61749    791806.90248  20419504.5784   20419501.9924
     -1026.3284
  -3335534.80549  -2599737.94147  23600897.0474   23600896.0944
      2013.2654
   4940815.16449   3836922.26647  22350446.0864   22350443.3134
     -3217.5374
  -1533406.14149  -1195488.19548  21259014.5784   21259013.5124
       750.2514
 04  9 16 20 56 45.0000000  0  6G 3G 8G13G19G23G27
   -842504.37549   -654351.03947  23019872.1884   23019872.6414
         0.2264
  -3682617.50049  -2857278.23047  22324806.3204   22324804.4734
      2012.8604
   1038608.67649    803896.55548  20422456.5164   20422454.5984
     -1034.3374
  -3365657.29349  -2623209.97747  23595165.5474   23595164.3524
      2008.1664
   4989155.44549   3874589.98047  22359644.7974   22359642.2304
     -3222.6854
  -1544612.61349  -1204220.51248  21256882.4454   21256880.9414
       747.0984
 04  9 16 20 57  0.0000000  0  6G 3G 8G13G19G23G27
   -842364.43049   -654241.98847  23019898.7424   23019898.9964
        -9.3304
  -3712762.96149  -2880768.18447  22319069.7734   22319068.9924
      2009.6974
   1054244.84849    816080.57848  20425432.1024   20425430.1914
     -1042.4114
  -3395702.01249  -2646621.41847  23589448.5944   23589446.3954
      2002.9814
   5037573.59849   3912318.37947  22368858.2814   22368855.6684
     -3227.8774
  -1555770.95749  -1212915.32048  21254759.1174   21254757.3404
       743.8904
 04  9 16 20 57 15.0000000  0  6G 3G 8G13G19G23G27
   -842081.33649   -654021.38747  23019952.1644   23019952.5744
       -18.8734
  -3742861.32049  -2904221.43047  22313342.5864   22313340.8714
      2006.5574
   1070001.94149    828358.83648  20428430.8594   20428428.6644
     -1050.4734
  -3425668.80549  -2669972.15247  23583745.5474   23583744.4144
      1997.7864
   5086069.35949   3950107.22747  22378087.4304   22378084.4304
     -3233.0514
  -1566881.36749  -1221572.78148  21252644.9844   21252643.4734
       740.6944
 04  9 16 20 57 30.0000000  0  6G 3G 8G13G19G23G27
   -841654.53149   -653688.79347  23020033.5704   23020034.3204
       -28.4544
  -3772912.02049  -2927637.54347  22307624.2734   22307622.8754
      2003.3804
   1085880.43849    840731.68448  20431452.3364   20431450.1054
     -1058.5664
  -3455557.00849  -2693261.62547  23578058.3524   23578057.3914
      1992.5474
   5134643.02049   3987956.79347  22387330.5704   22387327.6724
     -3238.2444
  -1577943.35549  -1230192.51248  21250539.7894   21250538.5204
       737.4664
 04  9 16 20 57 45.0000000  0  6G 3G 8G13G19G23G27
   -841083.68749   -653243.95747  23020142.2114   23020142.6134
       -38.0564
  -3802914.73849  -2951016.27047  22301914.4304   22301913.2464
      2000.1814
   1101880.41049    853199.18448  20434497.2424   20434494.7664
     -1066.6654
  -3485365.94149  -2716489.33647  23572385.5084   23572385.2814
      1987.2624
   5183294.60949   4025867.08247  22396588.1174   22396586.0904
     -3243.4394
  -1588956.75049  -1238774.37948  21248443.9064   21248442.1914
       734.2264
 04  9 16 20 58  0.0000000  0  6G 3G 8G13G19G23G27
   -840367.95749   -652686.23047  23020278.9064   23020278.7384
       -47.7154
  -3832868.59849  -2974356.92247  22296214.7034   22296213.7734
      1996.9244
   1118002.80949    865762.09048  20437565.1174   20437562.8524
     -1074.8274
  -3515094.46149  -2739654.39547  23566729.0164   23566727.5824
      1981.9014
   5232024.77049   4063838.59447  22405861.5944   22405859.2974
     -3248.6774
  -1599920.73849  -1247317.73848  21246357.4454   21246356.2034
       730.9334
 04  9 16 20 58 15.0000000  0  6G 3G 8G13G19G23G27
   -839507.55149   -652015.75447  23020442.8914   23020443.2154
       -57.3604
  -3862774.34849  -2997660.09047  22290523.8204   22290522.5554
      1993.7174
   1134247.37949    878420.18848  20440656.4144   20440654.1214
     -1082.9714
  -3544742.57849  -2762756.79347  23561086.7274   23561085.1374
      1976.5414
   5280832.85249   4101870.82447  22415149.4924   22415146.9534
     -3253.8724
  -1610835.70349  -1255822.89548  21244280.5314   21244278.8134
       727.6644
 04  9 16 20 58 30.0000000  0  6G 3G 8G13G19G23G27
   -838504.28549   -651233.94547  23020633.3914   23020633.4344
       -66.8844
  -3892633.40249  -3020926.85947  22284841.9694   22284840.7464
      1990.6044
   1150612.28149    891172.05148  20443770.1414   20443768.1374
     -1090.9934
  -3574311.93449  -2785797.83247  23555459.8754   23555458.1884
      1971.2904
   5329716.93449   4139962.28147  22424451.7504   22424449.0474
     -3258.9394
  -1621703.55549  -1264291.35548  21242212.3594   21242211.2034
       724.5234
 04  9 16 20 58 45.0000000  0  6G 3G 8G13G19G23G27
   -837357.79349   -650340.55147  23020851.1484   23020851.2734
       -76.4334
  -3922445.53549  -3044157.08247  22279168.3444   22279167.8244
      1987.4764
   1167097.68449    904017.82048  20446907.4924   20446905.3954
     -1099.0274
  -3603801.89849  -2808776.99647  23549847.9924   23549846.9614
      1965.9984
   5378677.02349   4178112.97747  22433768.1564   22433766.0394
     -3264.0064
  -1632524.05549  -1272722.90648  21240153.2034   21240152.1844
       721.3674
 04  9 16 20 59  0.0000000  0  6G 3G 8G13G19G23G27
   -836064.17249   -649332.52047  23021097.0004   23021097.8794
       -86.2414
  -3952206.94549  -3067347.78147  22273505.2424   22273504.3364
      1984.0944
   1183707.47349    916960.50448  20450068.1644   20450066.2194
     -1107.3194
  -3633208.27049  -2831691.02747  23544252.2894   23544250.8634
      1960.4254
   5427716.77749   4216325.72747  22443100.3444   22443098.1804
     -3269.3174
  -1643293.30149  -1281114.52348  21238103.9694   21238102.6174
       717.9504
 04  9 16 20 59 15.0000000  0  6G 3G 8G13G19G23G27
   -834626.21549   -648212.03547  23021371.1174   23021371.6484
       -95.8644
  -3981920.56649  -3090501.23047  22267850.8204   22267849.8054
      1980.9084
   1200438.65649    929997.78148  20453251.9454   20453250.0664
     -1115.4124
  -3662533.56649  -2854541.87547  23538671.9064   23538670.9454
      1955.0204
   5476833.15249   4254598.16447  22452447.1484   22452445.0394
     -3274.4254
  -1654014.34049  -1289468.57448  21236063.7194   21236062.2774
       714.7364
 04  9 16 20 59 30.0000000  0  7G 3G 8G13G10G19G23G27
   -833045.01649   -646979.90647  23021671.5944   23021672.4574
      -105.4134
  -4011587.37949  -3113618.21947  22262205.1644   22262203.7304
      1977.7874
   1217290.21149    943128.85248  20456458.7424   20456456.6454
     -1123.4374
    -70312.91859    -51141.66056  24268822.6644   24268822.4654

  -3691778.62549  -2877330.19947  23533106.8134   23533105.3594
      1949.6714
   5526024.78549   4292929.27347  22461808.0314   22461806.0904
     -3279.4424
  -1664688.06649  -1297785.76648  21234033.0634   21234031.2344
       711.5824
 04  9 16 20 59 45.0000000  0  7G 3G 8G13G10G19G23G27
   -831319.51649   -645635.34447  23022000.4614   23022001.3754
      -115.0334
  -4041206.52749  -3136698.06647  22256568.8754   22256567.9924
      1974.6104
   1234263.05149    956354.44148  20459688.8834   20459686.2544
     -1131.5234
    -99559.94949    -73931.57846  24263256.8524   24263256.6994
      1949.8024
  -3720942.17249  -2900055.00847  23527557.2034   23527555.7034
      1944.2364
   5575292.48049   4331319.64547  22471183.2734   22471180.9614
     -3284.5134
  -1675313.84049  -1306065.58648  21232010.7584   21232009.2664
       708.3854
 04  9 16 21  0  0.0000000  0  7G 3G 8G13G10G19G23G27
   -829453.36349   -644181.17247  23022355.6024   23022355.9414
      -124.4104
  -4070781.57849  -3159743.55147  22250941.0474   22250940.0164
      1971.6704
   1251353.63349    969671.77348  20462940.8444   20462938.5704
     -1139.3724
   -128696.27049    -96635.17646  24257712.1094   24257712.3594
      1942.4214
  -3750027.53949  -2922718.89847  23522021.8754   23522021.0784
      1939.0244
   5624632.35249   4369766.25847  22480572.5704   22480570.1954
     -3289.3254
  -1685895.05549  -1314310.68748  21229997.3834   21229995.5824
       705.4144
 04  9 16 21  0 15.0000000  0  7G 3G 8G13G10G19G23G27
   -827443.82049   -642615.27047  23022737.7584   23022738.3244
      -133.9704
  -4100309.62949  -3182752.41047  22245321.7734   22245321.2854
      1968.5374
   1268564.60249    983082.91048  20466215.9064   20466213.9774
     -1147.3984
   -157718.83649   -119250.16446  24252189.5084   24252188.8954
      1934.8384
  -3779031.62549  -2945319.45347  23516503.1484   23516501.7544
      1933.6064
   5674046.97749   4408271.10947  22489975.8754   22489973.0554
     -3294.3084
  -1696429.19549  -1322519.10548  21227992.8204   21227991.2894
       702.2764
 04  9 16 21  0 30.0000000  0  7G 3G 8G13G10G19G23G27
   -825290.70749   -640937.50847  23023147.1644   23023147.2154
      -143.5414
  -4129790.80949  -3205724.73847  22239711.9534   22239710.7854
      1965.4124
   1285896.10249    996587.96548  20469514.1094   20469511.8834
     -1155.4334
   -186627.23849   -141776.19946  24246688.2034   24246688.2464
      1927.2274
  -3807954.13349  -2967856.43747  23510999.0864   23510997.4064
      1928.1674
   5723536.29349   4446834.17247  22499393.4694   22499390.8714
     -3299.2884
  -1706916.11349  -1330690.73048  21225996.8284   21225995.0594
       699.1284
 04  9 16 21  0 45.0000000  0  7G 3G 8G13G10G19G23G27
   -822993.55549   -639147.50847  23023584.8204   23023583.9144
      -153.1434
  -4159224.75449  -3228660.27747  22234111.0084   22234109.9804
      1962.2634
   1303348.39549   1010187.14148  20472835.1724   20472832.9184
     -1163.4864
   -215420.99249   -164212.86346  24241209.7194   24241208.3754
      1919.5844
  -3836794.29349  -2990329.28147  23505510.5234   23505509.7194
      1922.6774
   5773100.30949   4485455.43847  22508824.8204   22508822.6414
     -3304.2684
  -1717355.56249  -1338825.36748  21224010.7734   21224009.0554
       695.9634
 04  9 16 21  1  0.0000000  0  7G 3G 8G13G10G19G23G27
   -820553.82849   -637246.40247  23024048.6644   23024048.1174
      -162.6484
  -4188612.97349  -3251560.17247  22228518.2194   22228517.5274
      1959.2154
   1320919.91849   1023879.23448  20476179.0234   20476176.5354
     -1171.4354
   -244101.43049   -186561.23046  24235751.5474   24235750.5354
      1912.0294
  -3865553.39149  -3012738.94947  23500038.3834   23500036.8874
      1917.2734
   5822737.43849   4524133.66047  22518270.7274   22518268.4304
     -3309.1424
  -1727749.13349  -1346924.25048  21222032.6334   21222031.1644
       692.9054
 04  9 16 21  1 15.0000000  0  7G 3G 8G13G10G19G23G27
   -817968.91449   -635232.15247  23024540.8754   23024540.6994
      -172.3284
  -4217952.88749  -3274422.43747  22222934.9614   22222934.1334
      1955.9944
   1338613.25449   1037666.23848  20479546.0314   20479543.7664
     -1179.5564
   -272665.68049   -208819.10946  24230315.8594   24230315.5204
      1904.2834
  -3894228.45749  -3035083.13747  23494581.7194   23494580.5514
      1911.6714
   5872449.94949   4562870.64547  22527730.8444   22527728.2114
     -3314.1674
  -1738094.04349  -1354985.21548  21220064.2584   21220062.8714
       689.6614
 04  9 16 21  1 30.0000000  0  7G 3G 8G13G10G19G23G27
   -815239.94149   -633105.66047  23025059.9534   23025060.1414
      -181.9324
  -4247245.60249  -3297247.90647  22217361.1804   22217360.0634
      1952.8484
   1356427.34049   1051547.34848  20482935.8524   20482933.5354
     -1187.6064
   -301114.72349   -230987.17246  24224901.8984   24224901.6644
      1896.6034
  -3922820.42249  -3057362.55947  23489140.4454   23489139.8404
      1906.1314
   5922236.54749   4601665.35247  22537205.0234   22537202.5314
     -3319.1074
  -1748391.71549  -1363009.37548  21218104.1884   21218103.0664
       686.5114
 04  9 16 21  1 45.0000000  0  7G 3G 8G13G10G19G23G27
   -812366.87149   -630866.88347  23025607.1254   23025607.1764
      -191.5384
  -4276491.17249  -3320036.65647  22211795.6724   22211794.7384
      1949.7054
   1374362.05149   1065522.43448  20486348.4384   20486346.1684
     -1195.6474
   -329448.37949   -253065.33646  24219511.0084   24219510.4224
      1888.9104
  -3951328.98449  -3079576.98047  23483715.8594   23483714.2544
      1900.5714
   5972096.91849   4640517.54747  22546693.0314   22546689.7974
     -3324.0254
  -1758642.20749  -1370996.77048  21216153.6334   21216152.4534
       683.3664
 04  9 16 21  2  0.0010000  0  7G 3G 8G13G10G19G23G27
   -809346.73849   -628513.51247  23026181.4894   23026181.7554
      -201.3424
  -4305688.70749  -3342787.97747  22206239.6144   22206238.4194
      1946.5024
   1392421.41049   1079594.65248  20489785.2474   20489782.8064
     -1203.9574
   -357665.46949   -275052.68446  24214140.6464   24214141.0244
      1881.1394
  -3979752.93449  -3101725.46947  23478306.6854   23478305.1964
      1894.9304
   6022036.98449   4679431.84847  22556195.9274   22556193.8064
     -3329.3384
  -1768843.36749  -1378945.72348  21214212.7784   21214211.3994
       680.0774
 04  9 16 21  2 15.0010000  0  7G 3G 8G13G10G19G23G27
   -806177.99649   -626044.34447  23026784.2164   23026784.2634
      -211.2494
  -4334832.40249  -3365497.33647  22200693.9894   22200692.3844
      1942.9134
   1410604.77049   1093763.49248  20493245.5214   20493243.0244
     -1212.2244
   -385760.25849   -296944.71546  24208794.5364   24208794.4034
      1872.9864
  -4008086.30149  -3123803.39147  23472915.7004   23472913.8564
      1888.8914
   6072051.78949   4718404.37547  22565713.9354   22565710.8064
     -3334.3204
  -1778992.01649  -1386853.76248  21212281.5444   21212280.0524
       676.5774
 04  9 16 21  2 30.0010000  0  7G 3G 8G13G10G19G23G27
   -802859.97749   -623458.87147  23027415.4744   23027415.9584
      -221.2014
  -4363923.74249  -3388165.90247  22195157.8724   22195156.8024
      1939.4234
   1428913.79349   1108030.26248  20496729.5754   20496726.8604
     -1220.6024
   -413733.96549   -318742.39846  24203471.1614   24203471.4384
      1864.9144
  -4036330.22349  -3145811.62947  23467540.5054   23467539.1184
      1882.9284
   6122144.82849   4757437.85547  22575246.1224   22575244.1104
     -3339.5364
  -1789088.48449  -1394721.13748  21210360.1614   21210358.8764
       673.0984
 04  9 16 21  2 45.0010000  0  7G 3G 8G13G10G19G23G27
   -799397.90649   -620761.14547  23028074.5914   23028074.9154
      -230.8054
  -4392967.88749  -3410797.69147  22189630.8334   22189629.9584
      1936.2764
   1447343.20749   1122390.83248  20500236.4194   20500234.1344
     -1228.6284
   -441591.45749   -340449.52346  24198170.3564   24198169.5214
      1857.1664
  -4064489.57849  -3167753.94947  23462181.7244   23462180.7674
      1877.2904
   6172310.72349   4796528.11347  22584792.6224   22584789.9504
     -3344.3934
  -1799137.91849  -1402551.86348  21208447.6694   21208446.5834
       669.9624
 04  9 16 21  3  0.0010000  0  7G 3G 8G13G10G19G23G27
   -795793.39549   -617952.40247  23028760.8884   23028760.5564
      -240.3014
  -4421966.75449  -3433394.19547  22184112.2784   22184111.5404
      1933.2584
   1465891.33649   1136843.91848  20503766.0674   20503763.5714
     -1236.5424
   -469334.19949   -362067.23446  24192891.2084   24192890.3294
      1849.5164
  -4092565.75049  -3189631.44147  23456839.2944   23456837.5714
      1871.7454
   6222547.66449   4835673.72747  22594352.8334   22594349.8964
     -3349.1294
  -1809141.97349  -1410347.23848  21206543.9664   21206542.8134
       666.9374
 04  9 16 21  3 15.0010000  0  7G 3G 8G13G10G19G23G27
   -792048.27049   -615034.11347  23029473.5994   23029473.0604
      -249.6754
  -4450922.12549  -3455956.80947  22178602.7004   22178601.5444
      1930.3584
   1484556.25049   1151387.99648  20507317.9274   20507315.4854
     -1244.3284
   -496963.85949   -383596.80946  24187633.3174   24187632.9584
      1841.9774
  -4120560.20349  -3211445.27047  23451511.7714   23451510.3994
      1866.2974
   6272853.56649   4874873.09847  22603925.4194   22603922.3994
     -3353.7274
  -1819102.67649  -1418108.82048  21204648.5214   21204647.4314
       664.0474
 04  9 16 21  3 30.0010000  0  7G 3G 8G13G10G19G23G27
   -788157.69949   -612002.47347  23030213.2784   23030213.6184
      -259.3714
  -4479828.97349  -3478481.60947  22173101.3334   22173100.9704
      1927.1234
   1503342.89149   1166026.92248  20510892.8174   20510890.6884
     -1252.4434
   -524475.26449   -405034.30946  24182398.0054   24182397.0834
      1834.0944
  -4148467.89849  -3233191.49647  23446201.1224   23446199.9664
      1860.5134
   6323233.00449   4914129.77347  22613512.1854   22613509.2904
     -3358.6294
  -1829015.09849  -1425832.78148  21202762.3174   21202760.8134
       660.8284
 04  9 16 21  3 45.0010000  0  7G 3G 8G13G10G19G23G27
   -784119.87149   -608856.09047  23030982.2004   23030981.3724
      -269.1894
  -4508685.79749  -3500967.42647  22167610.5364   22167610.0794
      1923.7884
   1522253.02349   1180762.08248  20514491.3644   20514489.0214
     -1260.6764
   -551866.69949   -426378.21946  24177184.8964   24177184.3924
      1826.0964
  -4176286.83649  -3254868.55947  23440907.1924   23440905.9194
      1854.5964
   6373687.46549   4953444.89847  22623113.1614   22623110.4114
     -3363.6314
  -1838877.59049  -1433517.84848  21200885.4034   21200884.1144
       657.4994
 04  9 16 21  4  0.0010000  0  7G 3G 8G13G10G19G23G27
   -779935.42649   -605595.49247  23031778.4504   23031777.9784
      -278.9634
  -4537493.09849  -3523414.66847  22162128.4664   22162128.4114
      1920.4874
   1541285.85949   1195592.85248  20518113.0914   20518111.0524
     -1268.8564
   -579138.42249   -447628.92246  24171995.8174   24171995.5014
      1818.1154
  -4204017.33249  -3276476.70747  23435630.7394   23435629.0094
      1848.7004
   6424216.11349   4992817.82047  22632728.2084   22632726.8214
     -3368.5774
  -1848690.85249  -1441164.54348  21199018.1224   21199016.8964
       654.2174
 04  9 16 21  4 15.0010000  0  7G 3G 8G13G10G19G23G27
   -775605.80549   -602221.75447  23032602.6224   23032602.4114
      -288.6414
  -4566252.35549  -3545824.46147  22156655.9504   22156655.3104
      1917.2844
   1560439.73849   1210517.94548  20521757.8884   20521755.6264
     -1276.9254
   -606291.74249   -468787.32046  24166828.3104   24166828.1814
      1810.2214
  -4231660.51249  -3298016.80947  23430369.5134   23430368.6104
      1842.8794
   6474817.23849   5032247.21947  22642358.0284   22642355.2044
     -3373.4084
  -1858456.36749  -1448774.03148  21197159.8414   21197158.8254
       651.0344
 04  9 16 21  4 30.0010000  0  7G 3G 8G13G10G19G23G27
   -771127.72349   -598732.32847  23033454.2554   23033454.3334
      -298.5394
  -4594960.09449  -3568194.12147  22151193.2944   22151192.4424
      1913.8494
   1579718.12549   1225540.04748  20525426.5994   20525424.1574
     -1285.2264
   -633323.13749   -489850.75846  24161684.8964   24161684.3254
      1802.0934
  -4259212.86349  -3319486.13347  23425127.2164   23425125.4544
      1836.8234
   6525493.86349   5071735.43447  22652001.5284   22651998.6814
     -3378.4424
  -1868170.88749  -1456343.78548  21195311.2714   21195310.0444
       647.6354
 04  9 16 21  4 45.0010000  0  7G 3G 8G13G10G19G23G27
   -766503.90249   -595129.35247  23034333.7554   23034334.5954
      -308.2554
  -4623619.15649  -3590525.84847  22145739.4424   22145738.4074
      1910.6044
   1599118.16049   1240656.94948  20529118.3804   20529115.9234
     -1293.3364
   -660235.27349   -510821.23046  24156563.9504   24156563.4854
      1794.1424
  -4286676.84849  -3340886.59847  23419900.6854   23419899.0994
      1830.9324
   6576243.08649   5111280.24647  22661658.8414   22661655.9384
     -3383.2824
  -1877837.27049  -1463876.03548  21193471.6224   21193470.3254
       644.4264
 04  9 16 21  5  0.0010000  0  7G 3G 8G13G10G19G23G27
   -761731.72349   -591410.77047  23035242.3724   23035242.7314
      -318.1454
  -4652227.10249  -3612817.73847  22140295.6924   22140294.5794
      1907.1964
   1618642.67649   1255870.84448  20532833.5284   20532831.7164
     -1301.6344
   -687024.96149   -531696.31246  24151466.0524   24151465.3414
      1785.9794
  -4314049.35949  -3362215.78547  23414691.8254   23414689.9974
      1824.8344
   6627067.31649   5150883.50447  22671330.0604   22671327.4274
     -3388.2824
  -1887452.66849  -1471368.55148  21191642.2784   21191640.6144
       641.0274
 04  9 16 21  5 15.0010000  0  7G 3G 8G13G10G19G23G27
   -756811.21949   -587576.59847  23036178.2314   23036178.7124
      -328.0344
  -4680783.89849  -3635069.77347  22134861.6144   22134860.4624
      1903.7864
   1638291.35549   1271181.49248  20536572.8644   20536570.3564
     -1309.9124
   -713692.41449   -552476.13346  24146391.1384   24146390.7354
      1777.8304
  -4341330.34849  -3383473.67647  23409500.5524   23409498.2394
      1818.7334
   6677966.26249   5190544.98047  22681016.2394   22681012.8684
     -3393.2634
  -1897017.39549  -1478821.58248  21189822.0994   21189820.5604
       637.6484
 04  9 16 21  5 30.0010000  0  7G 3G 8G13G10G19G23G27
   -751745.30549   -583629.13347  23037142.8644   23037142.1884
      -337.7284
  -4709292.80949  -3657284.50447  22129436.3494   22129435.2354
      1900.5944
   1658060.90649   1286586.32448  20540334.8494   20540332.5364
     -1317.9704
   -740240.54349   -573162.97346  24141339.2164   24141338.8964
      1769.8754
  -4368522.57449  -3404662.40647  23404326.0604   23404324.1344
      1812.8154
   6728936.69549   5230262.13747  22690715.5834   22690712.3844
     -3398.0294
  -1906534.66049  -1486237.64148  21188011.1924   21188009.7714
       634.4844
 04  9 16 21  5 45.0010000  0  7G 3G 8G13G10G19G23G27
   -746531.85249   -579566.69547  23038134.8174   23038134.3724
      -347.5644
  -4737751.29349  -3679459.93047  22124020.7944   22124019.4504
      1897.2324
   1677953.42649   1302086.98848  20544120.2004   20544117.8064
     -1326.1684
   -766666.75449   -593754.80146  24136310.5054   24136310.0444
      1761.7474
  -4395623.50449  -3425779.98047  23399168.9974   23399167.1654
      1806.7294
   6779980.48849   5270036.48847  22700428.6144   22700425.5834
     -3402.9204
  -1916002.20749  -1493614.95348  21186209.1694   21186207.9384
       631.1704
 04  9 16 21  6  0.0010000  0  7G 3G 8G13G10G19G23G27
   -741170.50449   -575389.01647  23039154.6064   23039155.0674
      -357.4234
  -4766159.20749  -3701595.95747  22118614.8024   22118614.0404
      1893.8614
   1697969.63749   1317684.02048  20547929.1064   20547926.8994
     -1334.4144
   -792970.40649   -614251.14846  24131305.0604   24131304.8994
      1753.5774
  -4422632.49249  -3446825.91447  23394029.2164   23394027.6814
      1800.5994
   6831097.86749   5309868.16447  22710156.3024   22710153.5174
     -3407.8254
  -1925419.59449  -1500953.16448  21184417.0524   21184415.6574
       627.8264
 04  9 16 21  6 15.0010000  0  7G 3G 8G13G10G19G23G27
   -735659.47749   -571094.69947  23040203.5754   23040203.5014
      -367.4024
  -4794514.62149  -3723691.07047  22113219.2784   22113218.1304
      1890.3614
   1718111.37149   1333378.87148  20551761.9584   20551759.8024
     -1342.7824
   -819149.48449   -634650.41046  24126322.8174   24126323.3374
      1745.2724
  -4449547.44549  -3467798.55147  23388906.9894   23388905.9274
      1794.3304
   6882290.25849   5349758.30947  22719897.7314   22719894.3964
     -3412.8264
  -1934785.16049  -1508251.01248  21182634.7244   21182633.4854
       624.3714
 04  9 16 21  6 30.0010000  0  7G 3G 8G13G10G19G23G27
   -730003.96949   -566687.79747  23041279.5364   23041279.8454
      -377.0344
  -4822822.80549  -3745749.39147  22107832.2244   22107831.5754
      1887.2124
   1738372.92649   1349167.09448  20555617.5284   20555615.6884
     -1350.7704
   -845209.22349   -654956.68446  24121364.5914   24121363.8414
      1737.3164
  -4476373.32449  -3488701.80547  23383802.4354   23383800.7674
      1788.3924
   6933552.26649   5389702.67247  22729652.6384   22729649.8724
     -3417.4674
  -1944104.25449  -1515512.64548  21180861.6614   21180860.3374
       621.2734
 04  9 16 21  6 45.0010000  0  7G 3G 8G13G10G19G23G27
   -724201.80949   -562166.62947  23042383.4504   23042383.3024
      -386.8114
  -4851081.75049  -3767769.32047  22102454.4354   22102453.8604
      1883.9304
   1758756.56649   1365050.43848  20559496.5914   20559494.6654
     -1358.9094
   -871147.16449   -675168.05946  24116428.8174   24116427.7354
      1729.1964
  -4503107.62549  -3509533.69147  23378714.5214   23378713.5604
      1782.2874
   6984885.91049   5429702.87947  22739421.0134   22739418.0754
     -3422.2434
  -1953374.59449  -1522736.28548  21179097.6854   21179096.1884
       618.0234
 04  9 16 21  7  0.0010000  0  7G 3G 8G13G10G19G23G27
   -718252.26249   -557530.62147  23043515.7084   23043515.3254
      -396.6364
  -4879290.55149  -3789750.19947  22097086.5214   22097085.9464
      1880.5874
   1779262.99249   1381029.46148  20563398.9664   20563396.9664
     -1367.0954
   -896962.32449   -695283.73846  24111516.1694   24111516.2864
      1721.0114
  -4529749.40649  -3530293.46147  23373644.9814   23373643.8174
      1776.1194
   7036291.68049   5469759.27747  22749203.3884   22749200.1694
     -3427.0514
  -1962595.60949  -1529921.49248  21177342.9194   21177341.6424
       614.7344
 04  9 16 21  7 15.0010000  0  7G 3G 8G13G10G19G23G27
   -712155.21949   -552779.69147  23044676.2784   23044675.4974
      -406.4704
  -4907449.03949  -3811691.86347  22091728.1144   22091727.9424
      1877.2334
   1799892.34849   1397104.26648  20567324.7714   20567322.5524
     -1375.2904
   -922654.40249   -715303.52746  24106627.6464   24106627.0834
      1712.8054
  -4556298.17249  -3550980.77047  23368592.9814   23368591.7164
      1769.9184
   7087769.46949   5509871.81347  22758999.0914   22758996.4784
     -3431.8534
  -1971767.00849  -1537068.03148  21175598.0214   21175596.3454
       611.4274
 04  9 16 21  7 30.0010000  0  7G 3G 8G13G10G19G23G27
   -705911.37249   -547914.39147  23045864.8724   23045863.6924
      -416.2564
  -4935557.95749  -3833594.91847  22086379.4354   22086378.8764
      1873.9284
   1820643.87549   1413274.27748  20571273.5914   20571271.2984
     -1383.4354
   -948223.92649   -735227.83646  24101761.9504   24101760.8804
      1704.6354
  -4582754.28949  -3571595.88747  23363559.2944   23363556.6064
      1763.7414
   7139318.32449   5550039.69947  22768808.4894   22768806.1964
     -3436.5904
  -1980889.64549  -1544176.57848  21173861.6694   21173860.3024
       608.1764
 04  9 16 21  7 45.0010000  0  7G 3G 8G13G10G19G23G27
   -699521.47749   -542935.21147  23047080.4504   23047080.1494
      -425.9934
  -4963617.86749  -3855459.76647  22081039.5754   22081038.7434
      1870.6614
   1841516.84849   1429538.92248  20575245.4974   20575243.2314
     -1391.5324
   -973671.32849   -755056.95746  24096918.3024   24096918.5994
      1696.4934
  -4609118.04749  -3592139.02347  23358541.9894   23358540.6384
      1757.5844
   7190937.40649   5590262.30547  22778631.7394   22778629.3804
     -3441.2724
  -1989964.11749  -1551247.59048  21172134.5604   21172133.1854
       604.9654
 04  9 16 21  8  0.0010000  0  7G 3G 8G13G10G19G23G27
   -692986.35549   -537842.91047  23048324.1614   23048324.6034
      -435.6754
  -4991629.84049  -3877287.26247  22075709.1854   22075708.1064
      1867.4654
   1862510.28149   1445897.42248  20579240.3024   20579238.0244
     -1399.5624
   -998997.41849   -774791.55546  24092099.4664   24092099.1734
      1688.4064
  -4635390.23049  -3612610.80947  23353542.0364   23353541.2044
      1751.4794
   7242625.49649   5630538.67647  22788467.4814   22788465.0994
     -3445.8734
  -1998991.58249  -1558281.97748  21170416.9034   21170415.7124
       601.8314
 04  9 16 21  8 15.0010000  0  7G 3G 8G13G10G19G23G27
   -686303.11349   -532635.19547  23049595.8024   23049596.0214
      -445.5494
  -5019591.26649  -3899075.37947  22070388.2864   22070387.4384
      1864.0954
   1883627.03549   1462352.02348  20583259.0444   20583256.5994
     -1407.7844
  -1024199.04349   -794429.18446  24087303.7164   24087303.0174
      1680.1084
  -4661567.64549  -3633008.75047  23348561.0134   23348560.0914
      1745.1614
   7294385.20349   5670870.87947  22798317.2004   22798314.4464
     -3450.6474
  -2007968.95749  -1565277.33648  21168708.5284   21168707.3024
       598.4924
 04  9 16 21  8 30.0010000  0  7G 3G 8G13G10G19G23G27
   -679472.57849   -527312.71147  23050895.5914   23050895.2944
      -455.3694
  -5047502.45349  -3920824.34847  22065077.0994   22065076.1064
      1860.7464
   1904866.42249   1478902.18848  20587300.2784   20587298.2314
     -1415.9594
  -1049276.83249   -813970.30146  24082531.4744   24082530.8104
      1671.8534
  -4687650.77049  -3653333.20347  23343597.6464   23343595.7084
      1738.8754
   7346215.65649   5711258.19147  22808180.2714   22808177.4234
     -3455.3644
  -2016897.21149  -1572234.40648  21167009.5674   21167007.8844
       595.2174
 04  9 16 21  8 45.0010000  0  7G 3G 8G13G10G19G23G27
   -672494.98449   -521875.61347  23052223.0054   23052222.8064
      -465.1734
  -5075363.73049  -3942534.42647  22059775.1464   22059774.1494
      1857.4184
   1926228.05949   1495547.61348  20591365.5364   20591363.1264
     -1424.1094
  -1074230.64849   -833414.82046  24077782.7784   24077781.4894
      1663.5884
  -4713639.48049  -3673584.10247  23338652.1064   23338650.3844
      1732.5814
   7398116.46149   5751700.34047  22818056.6144   22818054.0954
     -3460.0544
  -2025776.45349  -1579153.30148  21165319.8024   21165318.5174
       591.9494
 04  9 16 21  9  0.0010000  0  7G 3G 8G13G10G19G23G27
   -665370.21949   -516323.86747  23053579.0914   23053579.0094
      -474.9844
  -5103175.12549  -3964205.63347  22054482.7004   22054482.1694
      1854.0934
   1947711.91849   1512288.27748  20595453.4504   20595451.6924
     -1432.2574
  -1099060.36349   -852762.64846  24073057.0834   24073056.4504
      1655.3144
  -4739533.48449  -3693761.19147  23333724.0994   23333723.3334
      1726.2674
   7450087.40649   5792197.12947  22827945.9424   22827943.5444
     -3464.7304
  -2034606.64149  -1586033.96548  21163639.6924   21163638.1854
       588.6794
 04  9 16 21  9 15.0010000  0  7G 3G 8G13G10G19G23G27
   -658097.75049   -510657.00047  23054963.1854   23054962.8644
      -484.8314
  -5130935.86349  -3985837.36747  22049200.1614   22049199.0404
      1850.7164
   1969318.53549   1529124.58648  20599565.0834   20599563.3104
     -1440.4414
  -1123765.27749   -872013.20746  24068356.1694   24068356.3024
      1646.9944
  -4765331.89549  -3713863.80147  23328815.7394   23328812.8064
      1719.8944
   7502128.73049   5832748.76647  22837849.5914   22837847.4544
     -3469.4224
  -2043387.41049  -1592876.11748  21161968.7714   21161967.4624
       585.3854
 04  9 16 21  9 30.0010000  0  7G 3G 8G13G10G19G23G27
   -650677.39149   -504874.90247  23056375.1534   23056375.1344
      -494.6914
  -5158645.77349  -4007429.49647  22043926.9974   22043926.3534
      1847.3274
   1991048.07849   1546056.68848  20603700.1774   20603698.2864
     -1448.6364
  -1148344.85949   -891166.11746  24063679.7554   24063678.7284
      1638.6394
  -4791034.33649  -3733891.62947  23323924.2554   23323921.8804
      1713.4964
   7554240.39549   5873355.20347  22847765.7314   22847763.9584
     -3474.1114
  -2052118.49249  -1599679.55948  21160307.2164   21160305.5794
       582.0724
 04  9 16 21  9 45.0010000  0  7G 3G 8G13G10G19G23G27
   -643110.59449   -498978.69547  23057815.4034   23057815.2164
      -504.4534
  -5186306.50849  -4028983.30947  22038663.1144   22038662.1734
      1844.0494
   2012899.05549   1563083.41848  20607858.4274   20607856.3454
     -1456.7324
  -1172800.44549   -910222.40246  24059025.6854   24059024.9194
      1630.3724
  -4816641.87949  -3753845.52047  23319051.2314   23319048.3994
      1707.1704
   7606420.87549   5914015.25447  22857695.7084   22857693.7204
     -3478.6994
  -2060801.34449  -1606445.41848  21158654.7554   21158653.2784
       578.8574
 04  9 16 21 10  0.0010000  0  7G 3G 8G13G10G19G23G27
   -635398.73449   -492969.46947  23059282.2164   23059282.3964
      -514.1244
  -5213919.39849  -4050499.83647  22033408.9274   22033407.1264
      1840.8594
   2034869.95349   1580203.58648  20612039.2864   20612037.3644
     -1464.7274
  -1197133.24249   -929183.02346  24054395.1304   24054394.5954
      1622.1864
  -4842155.64149  -3773726.32047  23314196.1144   23314193.7744
      1700.9174
   7658668.46949   5954727.60547  22867638.3804   22867635.5834
     -3483.1734
  -2069437.41849  -1613174.81248  21157011.3564   21157010.0094
       575.7384
 04  9 16 21 10 15.0010000  0  7G 3G 8G13G10G19G23G27
   -627536.89549   -486843.36347  23060778.3804   23060778.2284
      -524.1234
  -5241479.26249  -4071975.04347  22028164.6304   22028162.9504
      1837.3244
   2056965.86349   1597421.16048  20616243.9894   20616242.3494
     -1473.0614
  -1221337.91449   -948043.81646  24049789.6854   24049788.7714
      1613.6454
  -4867570.29349  -3793529.89847  23309359.8254   23309357.5094
      1694.3104
   7710987.96149   5995496.00847  22877594.3644   22877591.5214
     -3487.9664
  -2078021.69149  -1619863.86348  21155377.9274   21155376.5524
       572.2854
 04  9 16 21 10 30.0010000  0  7G 3G 8G13G10G19G23G27
   -619529.01649   -480603.45347  23062302.8174   23062302.3884
      -533.8594
  -5268990.22749  -4093412.15247  22022929.5214   22022928.0914
      1834.0644
   2079182.52349   1614732.84048  20620471.2864   20620470.0634
     -1481.1114
  -1245418.39149   -966807.81646  24045206.9424   24045206.4154
      1605.3654
  -4892889.55949  -3813259.13747  23304541.8334   23304539.2594
      1687.9514
   7763375.10549   6036317.12147  22887562.8964   22887560.4504
     -3492.4764
  -2086558.20749  -1626515.69148  21153753.5674   21153752.0914
       569.1014
 04  9 16 21 10 45.0010000  0  7G 3G 8G13G10G19G23G27
   -611374.55549   -474249.33647  23063854.1064   23063854.4814
      -543.6314
  -5296451.68749  -4114810.67647  22017703.4584   22017702.5054
      1830.7644
   2101520.59849   1632139.12548  20624722.1304   20624720.6884
     -1489.2054
  -1269373.82849   -985474.38746  24040648.6384   24040648.0874
      1597.0294
  -4918112.51249  -3832913.33247  23299741.8254   23299739.8134
      1681.5304
   7815830.33249   6077191.28147  22897544.6774   22897542.3294
     -3497.0154
  -2095046.42249  -1633129.88348  21152138.1224   21152136.9384
       565.8814
 04  9 16 21 11  0.0010000  0  7G 3G 8G13G10G19G23G27
   -603074.49249   -467781.76247  23065433.9894   23065433.8884
      -553.3374
  -5323864.71549  -4136171.46947  22012486.8564   22012485.8214
      1827.5354
   2123979.14849   1649639.29348  20628996.0444   20628994.3604
     -1497.2374
  -1293205.04749  -1004044.14546  24036113.0054   24036113.0324
      1588.7484
  -4943239.89849  -3852493.03947  23294959.8564   23294958.6424
      1675.1594
   7868352.37549   6118117.48847  22907539.9424   22907537.5634
     -3501.4704
  -2103487.20349  -1639707.11748  21150531.9424   21150530.5244
       562.7194
 04  9 16 21 11 15.0010000  0  7G 3G 8G13G10G19G23G27
   -594628.95749   -461200.81247  23067040.6464   23067041.1924
      -563.0364
  -5351229.16849  -4157494.41447  22007279.6694   22007278.7004
      1824.2974
   2146557.87949   1667233.10248  20633292.7394   20633290.9274
     -1505.2494
  -1316912.04349  -1022517.12946  24031602.5284   24031601.3924
      1580.4664
  -4968271.54749  -3871998.18447  23290196.4274   23290195.6424
      1668.7774
   7920940.96549   6159095.57047  22917547.1384   22917545.9354
     -3505.9064
  -2111880.89549  -1646247.65648  21148934.9504   21148933.6104
       559.5794
 04  9 16 21 11 30.0010000  0  7G 3G 8G13G10G19G23G27
   -586039.55149   -454507.78547  23068675.4274   23068675.1384
      -572.6274
  -5378546.77749  -4178780.84447  22002081.3414   22002080.4074
      1821.1744
   2169255.26649   1684919.36348  20637611.6534   20637610.0994
     -1513.1594
  -1340496.16849  -1040894.35246  24027114.4504   24027113.3414
      1572.2754
  -4993208.75049  -3891429.70747  23285450.9504   23285449.6464
      1662.4804
   7973594.23449   6200124.03147  22927567.2244   22927565.0174
     -3510.2184
  -2120228.94949  -1652752.63348  21147346.3334   21147344.9354
       556.5374
 04  9 16 21 11 45.0010000  0  7G 3G 8G13G10G19G23G27
   -577305.37949   -447701.93747  23070336.8414   23070337.0634
      -582.2784
  -5405816.60949  -4200030.05547  21996892.0214   21996891.1854
      1817.9894
   2192072.00049   1702698.63348  20641953.6854   20641952.0484
     -1521.1164
  -1363956.30549  -1059174.95746  24022649.8414   24022648.6814
      1564.0094
  -5018050.32049  -3910786.73447  23280723.8174   23280721.8564
      1656.1054
   8026312.84449   6241203.42247  22937598.5134   22937597.4114
     -3514.5744
  -2128530.71149  -1659221.53148  21145766.3804   21145765.0404
       553.4514
 04  9 16 21 12  0.0010000  0  7G 3G 8G13G10G19G23G27
   -568424.50849   -440781.79347  23072027.4894   23072027.2164
      -592.0584
  -5433036.56649  -4221240.39847  21991712.1064   21991711.3924
      1814.6644
   2215010.07849   1720572.44148  20646318.6064   20646316.7044
     -1529.2054
  -1387290.30149  -1077357.28546  24018209.6304   24018208.9784
      1555.6004
  -5042794.02349  -3930067.47347  23276014.8804   23276013.3064
      1649.5804
   8079098.54749   6282335.09047  22947643.5834   22947641.8644
     -3519.0474
  -2136783.97349  -1665652.64548  21144195.6614   21144194.7244
       550.2174
 04  9 16 21 12 15.0010000  0  7G 3G 8G13G10G19G23G27
   -559397.00049   -433747.38747  23073745.4194   23073745.1184
      -601.8344
  -5460206.90649  -4242412.07447  21986541.9114   21986540.8414
      1811.3564
   2238069.39849   1738540.73848  20650706.7394   20650705.3604
     -1537.2884
  -1410498.12949  -1095441.30146  24013792.9894   24013792.4154
      1547.1894
  -5067439.64849  -3949271.80547  23271325.5284   23271323.1104
      1643.0424
   8131951.06349   6323518.80947  22957700.8104   22957699.1384
     -3523.5014
  -2144988.89149  -1672046.08648  21142634.5134   21142633.2514
       546.9954
 04  9 16 21 12 30.0010000  0  7G 3G 8G13G10G19G23G27
   -550228.12549   -426602.79747  23075490.3414   23075490.0524
      -611.2584
  -5487332.80149  -4263549.12547  21981379.5364   21981378.6344
      1808.3934
   2261244.68849   1756599.38748  20655117.1144   20655114.9854
     -1545.0194
  -1433584.68749  -1113430.82446  24009400.0834   24009399.1184
      1539.1044
  -5091992.10949  -3968403.54747  23266653.2394   23266651.3604
      1636.8314
   8184864.91449   6364750.35547  22967770.1304   22967768.1064
     -3527.5904
  -2153150.77049  -1678406.00048  21141081.5524   21141080.0874
       544.1254
 04  9 16 21 12 45.0010000  0  7G 3G 8G13G10G19G23G27
   -540914.27049   -419345.24647  23077262.8414   23077261.8804
      -620.9244
  -5514410.48449  -4284648.60547  21976227.0994   21976226.2284
      1805.1794
   2284539.53549   1774751.21548  20659549.4974   20659548.1494
     -1552.9904
  -1456546.13749  -1131322.86346  24005029.9814   24005030.2514
      1530.7634
  -5116447.43449  -3987459.58247  23261999.8884   23261998.2314
      1630.3554
   8237843.62149   6406032.40247  22977852.0134   22977849.6384
     -3531.9144
  -2161265.86749  -1684729.44148  21139537.0674   21139535.7594
       541.0074
 04  9 16 21 13  0.0010000  0  7G 3G 8G13G10G19G23G27
   -531456.63749   -411975.66447  23079062.3104   23079061.4934
      -630.5094
  -5541441.06649  -4305711.38347  21971083.1614   21971082.4074
      1802.0394
   2307952.73049   1792995.24248  20664005.4424   20664003.3174
     -1560.8804
  -1479383.39549  -1149118.11346  24000684.4354   24000684.5634
      1522.4844
  -5140806.43449  -4006440.56647  23257363.6384   23257362.6924
      1623.9334
   8290885.76249   6447363.90247  22987945.6854   22987943.8104
     -3536.1434
  -2169335.42649  -1691017.39848  21138001.6924   21138000.1614
       537.9714
 04  9 16 21 13 15.0010000  0  7G 3G 8G13G10G19G23G27
   -521855.46949   -404494.22747  23080889.2864   23080888.5914
      -640.0784
  -5568424.81249  -4326737.67247  21965948.4114   21965947.3604
      1798.9164
   2331484.09449   1811331.36348  20668483.0674   20668481.2244
     -1568.7584
  -1502096.54349  -1166816.65646  23996362.5364   23996361.9854
      1514.2104
  -5165069.14549  -4025346.51647  23252746.7164   23252745.7084
      1617.5144
   8343990.90249   6488744.47747  22998051.0054   22998049.0674
     -3540.3434
  -2177359.63349  -1697270.03148  21136474.6614   21136473.2084
       534.9474
 04  9 16 21 13 30.0010000  0  7G 3G 8G13G10G19G23G27
   -512117.83249   -396906.47747  23082742.0364   23082741.9314
      -649.1764
  -5595368.96549  -4347733.10247  21960821.2714   21960820.7514
      1796.2774
   2355126.30549   1829753.85548  20672982.1854   20672980.1574
     -1576.1474
  -1524692.47749  -1184423.87946  23992062.6854   23992062.5524
      1506.3964
  -5189242.34049  -4044182.71947  23248146.6854   23248145.3104
      1611.5464
   8397151.64849   6530168.38347  23008167.5994   23008165.0994
     -3544.0504
  -2185345.63349  -1703492.89148  21134954.8104   21134953.7124
       532.4004
 04  9 16 21 13 45.0010000  0  7G 3G 8G13G10G19G23G27
   -502236.07049   -389206.39147  23084622.3494   23084622.2284
      -658.7844
  -5622265.63749  -4368691.53547  21955702.6614   21955702.1774
      1793.1114
   2378886.93849   1848268.62948  20677503.6774   20677501.8294
     -1584.0424
  -1547163.43449  -1201933.69546  23987786.6384   23987786.9154
      1498.0644
  -5213318.07449  -4062942.97747  23243565.5444   23243563.7714
      1605.0494
   8450375.53549   6571641.48847  23018294.8724   23018293.6614
     -3548.2594
  -2193285.79749  -1709680.02748  21133443.6304   21133442.5604
       529.3444
 04  9 16 21 14  0.0010000  0  8G 3G 8G13G10G19G23G28G27
   -492210.78549   -381394.48847  23086530.1614   23086529.8764
      -668.3524
  -5649115.31649  -4389613.35547  21950593.4814   21950592.8294
      1789.9794
   2402765.45749   1866875.26248  20682047.4744   20682045.9424
     -1591.9014
  -1569509.76249  -1219346.41046  23983534.2004   23983534.2474
      1489.7554
  -5237296.72349  -4081627.59847  23239002.6464   23239000.7204
      1598.5774
   8503661.72749   6613163.13747  23028435.8644   23028433.7314
     -3552.4134
   -110336.57859    -85506.82856  24446830.5914   24446829.8924

  -2201180.65249  -1715831.85948  21131941.8024   21131940.1464
       526.3244
 04  9 16 21 14 15.0010000  0  8G 3G 8G13G10G19G23G28G27
   -482045.05949   -373473.14847  23088464.5284   23088464.3604
      -677.7154
  -5675921.05949  -4410500.93047  21945492.5754   21945491.8024
      1787.0494
   2426758.80949   1885571.37548  20686613.0444   20686611.6224
     -1599.5574
  -1591734.12549  -1236664.07846  23979305.1304   23979304.7354
      1481.6244
  -5261180.74249  -4100238.47347  23234457.3884   23234455.5794
      1592.2684
   8557007.02349   6654730.86347  23038587.4114   23038583.8604
     -3556.3534
   -156001.75849   -121090.02346  24438140.6774   24438140.7864
      3044.3454
  -2209033.20749  -1721950.73048  21130447.1694   21130446.0214
       523.5044
 04  9 16 21 14 30.0010000  0  8G 3G 8G13G10G19G23G28G27
   -471734.84449   -365439.20747  23090426.9584   23090427.0284
      -687.3484
  -5702678.71949  -4431351.03947  21940400.5604   21940399.5404
      1783.8444
   2450871.15649   1904360.20348  20691201.8564   20691200.2824
     -1607.4904
  -1613832.29749  -1253883.44546  23975099.7164   23975099.3534
      1473.2114
  -5284965.84049  -4118772.25847  23229931.4424   23229929.3534
      1585.6734
   8610415.25049   6696347.62147  23048750.8414   23048748.2824
     -3560.5484
   -201632.00049   -156645.96546  24429457.3724   24429458.8494
      3042.0164
  -2216839.37949  -1728033.46148  21128961.7394   21128960.7634
       520.4114
 04  9 16 21 14 45.0010000  0  8G 3G 8G13G10G19G23G28G27
   -461282.66449   -357294.66847  23092415.6224   23092416.1344
      -696.8124
  -5729390.94149  -4452165.75447  21935317.6694   21935316.3294
      1780.8154
   2475099.70349   1923239.57048  20695812.3644   20695810.7164
     -1615.2364
  -1635806.72749  -1271006.37946  23970918.5214   23970917.5834
      1464.9624
  -5308654.39849  -4137230.82447  23225423.5134   23225421.4424
      1579.2374
   8663883.58649   6738011.23847  23058925.0834   23058922.3214
     -3564.5564
   -247229.85949   -192176.67646  24420780.0834   24420780.9934
      3039.8574
  -2224601.85549  -1734082.14148  21127484.4744   21127483.3294
       517.4984
 04  9 16 21 15  0.0010000  0  8G 3G 8G13G10G19G23G28G27
   -450689.48049   -349040.23447  23094431.9424   23094431.9894
      -706.2124
  -5756058.55149  -4472945.69147  21930242.8724   21930241.9034
      1777.8414
   2499443.57849   1942208.80548  20700444.7634   20700443.0604
     -1622.9254
  -1657658.00049  -1288033.34046  23966759.8804   23966759.5054
      1456.7524
  -5332247.04349  -4155614.64147  23220933.5754   23220932.2784
      1572.8434
   8717411.13749   6779720.95347  23069111.1694   23069109.2784
     -3568.5034
   -292796.05549   -227682.75846  24412109.1924   24412109.1224
      3037.7464
  -2232321.32449  -1740097.30948  21126015.6384   21126014.8534
       514.6314
 04  9 16 21 15 15.0010000  0  8G 3G 8G13G10G19G23G28G27
   -439955.92649   -340676.43447  23096473.8334   23096474.3334
      -715.5704
  -5782682.19949  -4493691.37947  21925176.6224   21925175.4584
      1774.9104
   2523902.06349   1961267.35948  20705099.2474   20705097.4114
     -1630.5664
  -1679386.63349  -1304964.73846  23962625.5994   23962624.6384
      1448.5764
  -5355744.01649  -4173923.91447  23216462.4504   23216460.9074
      1566.4654
   8770996.82049   6821475.96547  23079308.1384   23079306.7044
     -3572.3794
   -338330.94149   -263164.40646  24403443.0754   24403444.0914
      3035.6594
  -2239998.52749  -1746079.54748  21124554.8024   21124553.6494
       511.8144
 04  9 16 21 15 30.0010000  0  8G 3G 8G13G10G19G23G28G27
   -429081.36749   -332202.75447  23098543.2084   23098543.7984
      -724.9714
  -5809261.00449  -4514402.12147  21920119.0054   21920118.0484
      1771.9204
   2548476.07849   1980415.93048  20709775.4814   20709773.5634
     -1638.2684
  -1700991.81649  -1321799.93047  23958513.8724   23958513.2714
      1440.3464
  -5379144.38749  -4192157.92647  23212009.4744   23212007.5954
      1560.0254
   8824641.21149   6863276.73847  23089516.5754   23089514.5794
     -3576.2934
   -383833.69149   -298621.01246  24394785.2084   24394785.7314
      3033.5174
  -2247632.83249  -1752028.35248  21123101.9504   21123100.7204
       508.9544
 04  9 16 21 15 45.0010000  0  8G 3G 8G13G10G19G23G28G27
   -418063.49649   -323617.39847  23100640.2164   23100639.7394
      -734.5254
  -5835792.78949  -4535076.23047  21915070.1384   21915068.5914
      1768.7864
   2573167.31649   1999655.85248  20714473.7634   20714472.0754
     -1646.0834
  -1722471.14149  -1338537.05546  23954426.8024   23954425.9544
      1431.9554
  -5402445.56649  -4210314.64547  23207575.1924   23207573.9544
      1553.4124
   8878346.26249   6905124.78147  23099735.8334   23099734.1614
     -3580.3374
   -429301.91449   -334050.75446  24386133.0054   24386132.9814
      3031.2154
  -2255221.93049  -1757941.93048  21121657.8494   21121656.4034
       505.9404
 04  9 16 21 16  0.0010000  0  8G 3G 8G13G10G19G23G28G27
   -406904.25049   -314921.88347  23102764.1854   23102763.1304
      -743.9504
  -5862279.40249  -4555715.13747  21910029.5444   21910028.5994
      1765.7744
   2597974.05149   2018985.75048  20719194.8174   20719192.7674
     -1653.7824
  -1743826.28549  -1355177.41846  23950362.9114   23950362.2044
      1423.6764
  -5425649.08249  -4228395.26647  23203159.7784   23203158.2354
      1546.9014
   8932110.02049   6947018.55547  23109966.9744   23109964.5754
     -3584.2514
   -474737.23849   -369454.86746  24377486.9814   24377487.3604
      3029.0224
  -2262767.64149  -1763821.69948  21120221.7164   21120220.3844
       503.0474
 04  9 16 21 16 15.0010000  0  8G 3G 8G13G10G19G23G28G27
   -395601.28949   -306114.37947  23104914.5444   23104914.4274
      -753.5314
  -5888718.26249  -4576316.83647  21904998.4354   21904997.5524
      1762.5914
   2622898.52049   2038407.40648  20723937.4194   20723935.5404
     -1661.6314
  -1765054.46549  -1371718.85246  23946322.9114   23946322.6264
      1415.2124
  -5448752.27049  -4246397.71147  23198762.8494   23198762.1034
      1540.2134
   8985934.67649   6988959.78947  23120209.3644   23120206.3294
     -3588.3104
   -520137.06649   -404831.27046  24368847.9274   24368847.9464
      3026.6554
  -2270267.60249  -1769665.83248  21118794.6924   21118793.3414
       499.9974
 04  9 16 21 16 30.0010000  0  8G 3G 8G13G10G19G23G28G27
   -384150.81249   -297191.93747  23107093.9424   23107093.5794
      -763.3654
  -5915105.57449  -4596878.36747  21899977.2004   21899975.9234
      1759.1544
   2647944.71549   2057923.91048  20728703.7314   20728701.7904
     -1669.7464
  -1786151.71149  -1388158.24647  23942308.3494   23942308.2984
      1406.4834
  -5471750.98049  -4264318.73447  23194386.2004   23194385.6184
      1533.2474
   9039823.71949   7030951.19147  23130463.9114   23130463.0244
     -3592.6034
   -565497.39549   -440176.94946  24360215.5054   24360215.5174
      3024.0224
  -2277717.91849  -1775471.28148  21117377.1464   21117375.5214
       496.6884
 04  9 16 21 16 45.0010000  0  8G 3G 8G13G10G19G23G28G27
   -372553.74249   -288155.26247  23109300.1694   23109300.7124
      -773.1384
  -5941442.39549  -4617400.55547  21894965.6384   21894964.5754
      1755.7884
   2673111.78549   2077534.60948  20733492.8254   20733490.7314
     -1677.8054
  -1807118.92249  -1404496.32846  23938318.0054   23938318.2594
      1397.8144
  -5494645.88749  -4282158.87547  23190029.7714   23190028.4544
      1526.3274
   9093776.05549   7072991.91847  23140731.2314   23140728.8024
     -3596.8224
   -610819.00049   -475492.40246  24351591.0444   24351591.5174
      3021.4404
  -2285119.65249  -1781238.85548  21115968.2784   21115967.3254
       493.4494
 04  9 16 21 17  0.0010000  0  8G 3G 8G13G10G19G23G28G27
   -360812.11749   -279005.94547  23111534.2714   23111534.0014
      -782.7754
  -5967730.68449  -4637884.92647  21889963.0444   21889961.8024
      1752.5534
   2698397.41849   2097237.71548  20738304.1064   20738302.5364
     -1685.7094
  -1827957.86349  -1420734.44947  23934353.1854   23934352.3024
      1389.2634
  -5517438.80549  -4299919.54747  23185692.7554   23185691.3804
      1519.5284
   9147789.42649   7115080.21947  23151009.0524   23151007.4784
     -3600.8914
   -656103.80549   -510779.23846  24342973.7164   24342973.5284
      3018.9874
  -2292474.78949  -1786970.12948  21114568.8024   21114567.4814
       490.3424
 04  9 16 21 17 15.0010000  0  8G 3G 8G13G10G19G23G28G27
   -348929.88349   -269747.06247  23113795.7314   23113795.4114
      -792.1494
  -5993974.20749  -4658334.41447  21884968.9894   21884967.6884
      1749.5684
   2723797.68049   2117030.10948  20743137.9194   20743136.0364
     -1693.3514
  -1848672.12549  -1436875.42246  23930410.5914   23930410.9354
      1380.9514
  -5540133.31649  -4317603.54347  23181374.2634   23181372.3994
      1512.9674
   9201859.78149   7157212.88747  23161298.8564   23161296.3064
     -3604.6904
   -701355.50049   -546040.23446  24334362.7944   24334362.9384
      3016.7804
  -2299787.19549  -1792668.10248  21113177.2474   21113175.9894
       487.4944
 04  9 16 21 17 30.0010000  0  8G 3G 8G13G10G19G23G28G27
   -336901.71549   -260374.44147  23116084.3564   23116083.4464
      -801.8784
  -6020167.47349  -4678744.75047  21879984.5754   21879983.4274
      1746.2184
   2749317.95349   2136916.02048  20747994.6304   20747992.4894
     -1701.3524
  -1869256.11749  -1452914.88347  23926494.3414   23926493.7864
      1372.2664
  -5562723.64849  -4335206.35247  23177075.4974   23177073.0874
      1506.0224
   9255992.23449   7199393.96547  23171600.0674   23171597.1694
     -3608.8304
   -746568.39549   -581270.98846  24325758.7634   24325759.9934
      3014.1934
  -2307051.39149  -1798328.51248  21111794.8104   21111793.4704
       484.2804
 04  9 16 21 17 45.0010000  0  8G 3G 8G13G10G19G23G28G27
   -324727.80949   -250888.29747  23118401.3334   23118400.4354
      -811.5944
  -6046310.86749  -4699116.21947  21875009.4584   21875008.6464
      1742.8934
   2774957.98849   2156895.25048  20752873.5524   20752871.6734
     -1709.3364
  -1889709.91049  -1468852.91447  23922602.0444   23922601.3724
      1363.5864
  -5585209.80549  -4352728.00047  23172796.6064   23172794.6384
      1499.0774
   9310186.44149   7241623.18047  23181912.5284   23181911.4194
     -3612.9474
   -791742.52349   -616471.50046  24317162.6384   24317163.9384
      3011.6094
  -2314267.58249  -1803951.51648  21110421.8334   21110420.5364
       481.0794
 04  9 16 21 18  0.0010000  0  8G 3G 8G13G10G19G23G28G27
   -312406.69149   -241287.41447  23120745.1464   23120745.4974
      -821.4084
  -6072402.55149  -4719447.39147  21870044.7164   21870043.7284
      1739.4464
   2800719.28149   2176968.96548  20757775.8174   20757773.9974
     -1717.4204
  -1910031.85549  -1484688.19547  23918735.2164   23918734.0674
      1354.7964
  -5607589.82449  -4370166.93447  23168537.2474   23168535.9034
      1492.0014
   9364443.83649   7283901.60547  23192237.6144   23192235.3294
     -3617.1604
   -836876.19549   -651640.52746  24308573.3884   24308574.6654
      3008.9114
  -2321434.25049  -1809535.93048  21109057.7864   21109056.7314
       477.7784
 04  9 16 21 18 15.0010000  0  8G 3G 8G13G10G19G23G28G27
   -299942.54749   -231575.07447  23123117.6304   23123117.7634
      -830.9434
  -6098446.51649  -4739741.38747  21865088.6224   21865087.7784
      1736.2644
   2826597.66049   2197133.93048  20762700.4504   20762698.4974
     -1725.2254
  -1930225.77749  -1500423.71947  23914892.7714   23914891.9784
      1346.2614
  -5629867.61349  -4387526.20747  23164298.4974   23164296.4704
      1485.1864
   9418759.89849   7326225.77347  23202573.3804   23202571.1734
     -3621.0714
   -881973.37549   -686781.10947  24299991.9664   24299991.9704
      3006.4794
  -2328555.45349  -1815084.92248  21107702.6694   21107701.5914
       474.7474
 04  9 16 21 18 30.0010000  0  8G 3G 8G13G10G19G23G28G27
   -287334.22749   -221750.41047  23125516.9274   23125517.5954
      -840.5554
  -6124442.05949  -4759997.64547  21860141.9504   21860141.1924
      1733.0364
   2852594.12549   2217390.90648  20767647.4744   20767645.6924
     -1733.0984
  -1950290.52749  -1516058.57447  23911073.6924   23911073.7084
      1337.6504
  -5652041.75849  -4404804.73047  23160078.0444   23160076.2824
      1478.2764
   9473135.47349   7368596.28147  23212921.1614   23212918.1734
     -3625.0384
   -927032.73049   -721892.25846  24291417.7634   24291418.4354
      3003.9574
  -2335630.21149  -1820597.71948  21106356.8104   21106355.1184
       471.6514
 04  9 16 21 18 45.0010000  0  8G 3G 8G13G10G19G23G28G27
   -274582.21549   -211813.78947  23127943.8104   23127943.7744
      -850.1344
  -6150389.53149  -4780216.44547  21855204.0214   21855203.4744
      1729.8324
   2878708.14149   2237739.48448  20772616.7554   20772614.9854
     -1740.9344
  -1970226.34449  -1531592.96547  23907280.4814   23907279.7204
      1329.0544
  -5674112.50049  -4422002.67247  23155878.3254   23155877.3104
      1471.3834
   9527570.00049   7411012.75847  23223279.2244   23223276.9034
     -3628.9684
   -972054.55549   -756974.13746  24282849.4664   24282850.6384
      3001.4554
  -2342658.99649  -1826074.69148  21105019.0524   21105017.5324
       468.5864
 04  9 16 21 19  0.0010000  0  8G 3G 8G13G10G19G23G28G27
   -261684.37949   -201763.52747  23130398.2714   23130398.6964
      -859.8564
  -6176286.34049  -4800395.77047  21850275.9974   21850274.8964
      1726.4544
   2904941.97349   2258181.42248  20777608.7554   20777607.3924
     -1748.9224
  -1990030.73449  -1547024.95347  23903511.7784   23903511.4114
      1320.2934
  -5696077.20749  -4439117.99247  23151698.6304   23151697.2944
      1464.3144
   9582065.53149   7453476.75047  23233650.3254   23233648.3334
     -3633.0354
  -1017036.41449   -792024.87146  24274290.4814   24274290.8214
      2998.7914
  -2349639.35549  -1831513.93048  21103690.8564   21103689.4424
       465.3574
 04  9 16 21 19 15.0010000  0  8G 3G 8G13G10G19G23G28G27
   -248642.05949   -191600.66847  23132879.5364   23132880.3134
      -869.4884
  -6202133.90249  -4820536.71947  21845357.4114   21845356.3494
      1723.1714
   2931294.20749   2278715.62948  20782623.4664   20782621.7784
     -1756.8164
  -2009704.93049  -1562355.48047  23899767.7784   23899766.8174
      1311.6134
  -5717937.03549  -4456151.58247  23147538.9744   23147537.7394
      1457.3224
   9636620.45749   7495987.01647  23244031.7164   23244028.9584
     -3636.9954
  -1061979.49249   -827045.38747  24265737.4194   24265738.3884
      2996.2054
  -2356572.70749  -1836916.54348  21102371.2784   21102369.8134
       462.2234
 04  9 16 21 19 30.0010000  0  8G 3G 8G13G10G19G23G28G27
   -235457.34449   -181326.87947  23135388.4194   23135388.9504
      -878.9814
  -6227934.41049  -4840641.00447  21840447.9424   21840447.0524
      1720.0344
   2957762.64149   2299340.37548  20787660.3804   20787658.7674
     -1764.5624
  -2029250.73049  -1577585.97747  23896048.5834   23896047.6774
      1303.0534
  -5739693.60949  -4473104.71947  23143398.6774   23143397.0364
      1450.4384
   9691232.64849   7538541.89147  23254423.9894   23254422.4354
     -3640.8134
  -1106885.69149   -862037.16446  24257192.8964   24257193.4194
      2993.7474
  -2363461.10249  -1842284.12948  21101060.7944   21101058.9744
       459.2264
 04  9 16 21 19 45.0010000  0  8G 3G 8G13G10G19G23G28G27
   -222128.32449   -170940.62547  23137925.3724   23137925.3564
      -888.6014
  -6253685.56649  -4860706.83247  21835547.6224   21835546.5214
      1716.7444
   2984349.29349   2320057.24248  20792719.7554   20792717.7314
     -1772.4434
  -2048666.00049  -1592714.74647  23892354.0214   23892352.7554
      1294.3514
  -5761344.74649  -4489975.68747  23139278.5444   23139276.9744
      1443.4094
   9745903.72349   7581142.68447  23264827.0674   23264825.4854
     -3644.7384
  -1151752.74649   -896998.41846  24248654.4504   24248654.6574
      2991.1374
  -2370302.47749  -1847615.06248  21099758.8884   21099756.8964
       456.0924
 04  9 16 21 20  0.0010000  0  8G 3G 8G13G10G19G23G28G27
   -208652.71149   -160440.14147  23140489.8024   23140489.7634
      -898.3744
  -6279385.11749  -4880732.44147  21830656.9354   21830655.8534
      1713.3034
   3011056.40649   2340867.96948  20797801.4584   20797799.8804
     -1780.4744
  -2067948.21549  -1607739.84447  23888684.3104   23888684.1924
      1285.4814
  -5782887.83649  -4506762.48847  23135178.9354   23135176.8214
      1436.2064
   9800635.85949   7623791.00447  23275242.0054   23275240.9814
     -3648.8094
  -1196578.19549   -931927.29346  24240124.0754   24240124.5954
      2988.3634
  -2377094.52349  -1852907.57048  21098466.3724   21098464.3374
       452.8034
 04  9 16 21 20 15.0010000  0  8G 3G 8G13G10G19G23G28G27
   -195038.15649   -149831.38347  23143080.3884   23143080.7284
      -907.6374
  -6305040.30149  -4900723.48047  21825774.8724   21825773.8294
      1710.3464
   3037876.29349   2361766.56648  20802905.4894   20802903.2714
     -1787.9924
  -2087104.71949  -1622666.97347  23885039.4584   23885039.0014
      1277.1004
  -5804330.02049  -4523470.65647  23131098.4974   23131096.8174
      1429.4794
   9855421.30549   7666480.89547  23285667.9354   23285666.2204
     -3652.3634
  -1241369.44549   -966829.50846  24231600.3964   24231601.5364
      2986.0834
  -2383844.78949  -1858167.51648  21097181.8494   21097180.1884
       450.0184
 04  9 16 21 20 30.0010000  0  8G 3G 8G13G10G19G23G28G27
   -181283.66849   -139113.60547  23145697.9814   23145697.7004
      -916.9664
  -6330650.49249  -4920679.47347  21820901.8104   21820900.0874
      1707.3464
   3064809.90249   2382753.78148  20808030.9664   20808029.1734
     -1795.5744
  -2106134.50449  -1637495.37547  23881417.7394   23881417.5364
      1268.6524
  -5825670.21149  -4540099.34047  23127037.8254   23127036.6694
      1422.6794
   9910260.77349   7709212.89847  23296103.8494   23296100.9234
     -3655.9654
  -1286125.27749  -1001704.09446  24223083.4894   24223085.0094
      2983.7224
  -2390552.41849  -1863394.24248  21095905.0214   21095903.8924
       447.1754
 04  9 16 21 20 45.0010000  0  8G 3G 8G13G10G19G23G28G27
   -167383.86349   -128282.59047  23148343.3884   23148342.5914
      -926.6544
  -6356210.17249  -4940596.09847  21816037.8414   21816036.8994
      1703.9794
   3091862.74649   2403833.90648  20813178.9194   20813176.3724
     -1803.5234
  -2125031.74649  -1652220.49247  23877821.5834   23877821.2674
      1259.8164
  -5846902.49249  -4556643.93747  23122997.8804   23122995.7164
      1415.4854
   9965159.55949   7751991.13747  23306551.1144   23306548.2434
     -3659.9194
  -1330840.15649  -1036546.78546  24214574.5284   24214575.6224
      2980.9924
  -2397211.77049  -1868583.34048  21094637.9424   21094636.3254
       443.9574
 04  9 16 21 21  0.0010000  0  8G 3G 8G13G10G19G23G28G27
   -153338.35949   -117338.02347  23151015.7084   23151015.7354
      -936.3674
  -6381718.69149  -4960472.85947  21811183.7864   21811182.3374
      1700.5684
   3119035.10249   2425007.17248  20818349.4034   20818347.5524
     -1811.4904
  -2143795.89549  -1666841.89847  23874251.2714   23874250.5604
      1250.9434
  -5868026.10949  -4573103.87147  23118977.7944   23118975.7744
      1408.2414
  10020117.96149   7794815.82047  23317009.1694   23317006.7354
     -3663.8934
  -1375513.27349  -1071356.94546  24206073.9744   24206075.0994
      2978.2084
  -2403822.31649  -1873734.41848  21093380.1614   21093378.7044
       440.7034
 04  9 16 21 21 15.0010000  0  8G 3G 8G13G10G19G23G28G27
   -139147.52749   -106280.22347  23153716.3804   23153716.2394
      -946.0554
  -6407176.44549  -4980310.05947  21806339.2554   21806338.1184
      1697.1844
   3146326.62549   2446273.27748  20823542.9744   20823540.8644
     -1819.4354
  -2162427.09449  -1681359.70347  23870705.8414   23870705.7044
      1242.0804
  -5889041.32849  -4589479.33247  23114978.8024   23114976.2284
      1401.0154
  10075135.26249   7837686.37147  23327478.7554   23327476.2824
     -3667.8204
  -1420144.99249  -1106134.81647  24197580.8804   24197582.2714
      2975.4484
  -2410384.53549  -1878847.82848  21092131.2474   21092129.7514
       437.4814
 04  9 16 21 21 30.0010000  0  8G 3G 8G13G10G19G23G28G27
   -124813.71549    -95111.00847  23156443.5524   23156443.5994
      -955.5874
  -6432585.80949  -5000109.54747  21801503.9974   21801502.8804
      1693.9584
   3173734.76249   2467630.25848  20828758.6144   20828756.2204
     -1827.2094
  -2180927.59049  -1695775.66047  23867184.7554   23867184.8294
      1233.3664
  -5909950.16849  -4605771.89147  23110999.8334   23110997.1694
      1393.9234
  10130208.87549   7880600.82847  23337958.1464   23337956.9894
     -3671.5744
  -1464737.34849  -1140882.07847  24189094.6774   24189095.3454
      2972.8244
  -2416900.78149  -1883925.42248  21090891.2714   21090889.9544
       434.4164
 04  9 16 21 21 45.0010000  0  8G 3G 8G13G10G19G23G28G27
   -110334.50449    -83828.50447  23159199.4584   23159199.4584
      -965.2814
  -6457944.14149  -5019869.28147  21796678.2394   21796677.6964
      1690.5554
   3201262.06349   2489080.09048  20833996.6694   20833994.1924
     -1835.1534
  -2199294.52749  -1710087.54347  23863689.3024   23863689.6104
      1224.4634
  -5930749.83649  -4621979.41047  23107042.1924   23107039.5874
      1386.6454
  10185341.16449   7923560.95347  23348449.5444   23348448.4934
     -3675.4864
  -1509287.62949  -1175596.50446  24180617.6924   24180619.0444
      2970.0194
  -2423368.37949  -1888965.11348  21089660.3414   21089658.7164
       431.1734
 04  9 16 21 22  0.0010000  0  8G 3G 8G13G10G19G23G28G27
    -95713.11349    -72435.19547  23161981.2634   23161981.2864
      -974.7594
  -6483254.47749  -5039591.60247  21791861.9894   21791861.2084
      1687.3564
   3228905.24249   2510620.21948  20839257.4274   20839254.8254
     -1842.8794
  -2217531.05549  -1724297.80947  23860219.6924   23860219.0134
      1215.7684
  -5951443.12549  -4638104.01647  23103103.8724   23103101.5524
      1379.5534
  10240528.75849   7966564.21547  23358952.0524   23358949.5444
     -3679.1734
  -1553798.87949  -1210280.51246  24172146.8724   24172148.3804
      2967.4174
  -2429790.56249  -1893969.41048  21088438.5134   21088436.9934
       428.1464
 04  9 16 21 22 15.0010000  0  8G 3G 8G13G10G19G23G28G27
    -80950.96949    -60932.21947  23164790.5134   23164790.3454
      -984.1434
  -6508518.20749  -5059277.61347  21787054.3644   21787053.8804
      1684.2494
   3256662.93449   2532249.58648  20844539.0914   20844536.7984
     -1850.5134
  -2235638.31649  -1738407.34847  23856773.9664   23856773.5094
      1207.1514
  -5972031.09449  -4654146.56247  23099186.2394   23099183.5014
      1372.5314
  10295770.15249   8009609.39147  23369464.1924   23369462.1964
     -3682.7604
  -1598272.16849  -1244934.94546  24163684.5134   24163684.2514
      2964.8864
  -2436168.63349  -1898939.32848  21087224.7394   21087223.4974
       425.2054
 04  9 16 21 22 30.0010000  0  8G 3G 8G13G10G19G23G28G27
    -66046.54349    -49318.35947  23167626.8104   23167626.7594
      -993.6284
  -6533733.64549  -5078925.99247  21782256.0284   21782255.3724
      1681.0294
   3284536.65649   2553969.35948  20849843.4354   20849841.5364
     -1858.2484
  -2253614.56649  -1752414.81247  23853353.3564   23853352.9624
      1198.4174
  -5992511.85549  -4670105.56247  23095288.9894   23095286.9464
      1365.3844
  10351066.63749   8052697.50447  23379986.3174   23379984.1264
     -3686.4324
  -1642705.73849  -1279558.43746  24155228.8334   24155229.7864
      2962.2384
  -2442500.96949  -1903873.61748  21086019.6064   21086018.4504
       422.1564
 04  9 16 21 22 45.0010000  0  8G 3G 8G13G10G19G23G28G27
    -50999.37949    -37593.30147  23170489.8174   23170490.5564
     -1003.1444
  -6558900.21549  -5098536.28547  21777466.7314   21777465.9704
      1677.7714
   3312526.89849   2575779.93048  20855169.4584   20855167.3214
     -1866.0164
  -2271459.13349  -1766319.64547  23849957.4744   23849957.3994
      1189.6384
  -6012884.80549  -4685980.56247  23091411.9814   23091409.2744
      1358.1974
  10406418.52049   8095828.79347  23390520.2474   23390517.6654
     -3690.1264
  -1687099.06649  -1314150.58246  24146780.5674   24146781.0364
      2959.5554
  -2448787.19149  -1908771.97348  21084823.6924   21084822.4274
       419.0824
 04  9 16 21 23  0.0010000  0  8G 3G 8G13G10G19G23G28G27
    -35810.38349    -25757.69147  23173380.8494   23173380.8134
     -1012.6004
  -6584018.80549  -5118109.19147  21772686.9034   21772686.3994
      1674.5734
   3340632.78149   2597680.61748  20860518.0364   20860515.9814
     -1873.7264
  -2289172.66049  -1780122.41047  23846586.8174   23846586.3564
      1180.9024
  -6033150.32049  -4701771.85547  23087555.3174   23087552.5914
      1351.0344
  10461824.81349   8139002.47347  23401063.3644   23401061.6424
     -3693.7534
  -1731452.64149  -1348711.73846  24138340.8174   24138340.4234
      2956.9054
  -2455027.92249  -1913634.87148  21083635.6534   21083634.6654
       416.0494
 04  9 16 21 23 15.0010000  0  8G 3G 8G13G10G19G23G28G27
    -20480.35949    -13812.21947  23176297.9034   23176297.5794
     -1022.0024
  -6609090.05149  -5137645.22347  21767916.2004   21767915.2204
      1671.4164
   3368853.31649   2619670.63348  20865888.2474   20865886.1224
     -1881.3694
  -2306755.82449  -1793823.56247  23843240.7004   23843240.3214
      1172.2114
  -6053309.04749  -4717479.91847  23083719.3174   23083716.5994
      1343.9154
  10517284.49249   8182217.75047  23411616.5604   23411614.9624
     -3697.3124
  -1775767.21549  -1383242.50846  24129907.3884   24129908.0954
      2954.3054
  -2461223.97349  -1918462.95748  21082456.9584   21082455.6534
       413.0704
 04  9 16 21 23 30.0010000  0  8G 3G 8G13G10G19G23G28G27
     -5006.07049     -1754.32047  23179242.4664   23179241.9194
     -1031.6194
  -6634110.64849  -5157141.78147  21763154.9274   21763153.6384
      1668.0404
   3397191.74649   2641752.51248  20871280.9894   20871279.0054
     -1889.2294
  -2324205.12949  -1807420.41447  23839920.3884   23839919.0174
      1163.2874
  -6073357.28149  -4733101.89147  23079904.1924   23079901.8724
      1336.5494
  10572800.45349   8225476.86347  23422181.2944   23422180.2554
     -3701.0644
  -1820039.21949  -1417740.10246  24121483.2634   24121482.8294
      2951.4674
  -2467372.07049  -1923253.68448  21081287.0284   21081285.7314
       409.8734
 04  9 16 21 23 45.0010000  0  8G 3G 8G13G10G19G23G28G27
     10604.82449     10410.03147  23182213.5444   23182213.3724
     -1040.7264
  -6659088.09849  -5176604.71947  21758401.9194   21758400.7784
      1665.1634
   3425640.49249   2663920.35948  20876694.6924   20876692.3994
     -1896.5834
  -2341527.91849  -1820918.68747  23836623.7554   23836623.0914
      1154.8534
  -6093302.39849  -4748643.51647  23076109.3174   23076106.3964
      1329.6744
  10628365.07849   8268773.89547  23432754.7004   23432753.9384
     -3704.3084
  -1864276.00849  -1452210.24646  24113065.1384   24113064.9784
      2949.1194
  -2473479.70349  -1928012.87548  21080124.8414   21080123.2084
       407.1764
 04  9 16 21 24  0.0010000  0  8G 3G 8G13G10G19G23G28G27
     26360.04749     22686.84047  23185211.1614   23185211.0244
     -1050.3484
  -6684014.52349  -5196027.90247  21753658.3494   21753657.8174
      1661.7624
   3454207.29749   2686180.19148  20882130.6614   20882128.5134
     -1904.4544
  -2358716.20349  -1834312.13747  23833353.1144   23833352.3064
      1145.8864
  -6113136.17249  -4764098.37547  23072334.5284   23072332.6034
      1322.2524
  10683986.07049   8312114.87147  23443339.5134   23443337.4584
     -3708.0664
  -1908469.53949  -1486646.73446  24104654.7714   24104655.0484
      2946.2354
  -2479539.08649  -1932734.47348  21078971.7084   21078969.6964
       403.9594
 04  9 16 21 24 15.0010000  0  8G 3G 8G13G10G19G23G28G27
     42259.12149     35075.75047  23188236.7714   23188236.1064
     -1059.9384
  -6708890.28549  -5215411.60247  21748924.6464   21748923.5794
      1658.3844
   3482891.55549   2708531.55148  20887589.2084   20887587.0324
     -1912.2844
  -2375770.35949  -1847601.09047  23830107.6694   23830106.9854
      1136.9444
  -6132858.93449  -4779466.74247  23068581.6854   23068579.6304
      1314.8514
  10739662.64149   8355499.13747  23453934.3104   23453933.4424
     -3711.7714
  -1952620.24649  -1521049.81246  24096253.9114   24096253.0324
      2943.3804
  -2485550.65249  -1937418.81248  21077827.8104   21077826.3134
       400.7714
 04  9 16 21 24 30.0010000  0  8G 3G 8G13G10G19G23G28G27
     58302.95749     47577.44947  23191289.6304   23191289.1924
     -1069.5894
  -6733714.57449  -5234755.19147  21744200.8564   21744199.9074
      1654.9534
   3511694.14849   2730975.11348  20893069.8884   20893067.8024
     -1920.1734
  -2392689.15649  -1860784.57047  23826888.2474   23826887.6534
      1127.9204
  -6152469.44549  -4794747.62547  23064850.1534   23064847.7164
      1307.3674
  10795395.57049   8398927.32847  23464539.8804   23464539.0994
     -3715.5294
  -1996726.95749  -1555418.63346  24087860.3254   24087860.9194
      2940.4474
  -2491513.41849  -1942065.12148  21076693.0754   21076691.7314
       397.5184
 04  9 16 21 24 45.0010000  0  8G 3G 8G13G10G19G23G28G27
     74487.08249     60188.45347  23194369.5674   23194368.9384
     -1078.9424
  -6758491.59849  -5254061.95747  21739485.5674   21739484.7434
      1651.8024
   3540610.71149   2753507.49648  20898572.3024   20898570.4544
     -1927.7714
  -2409476.91449  -1873865.93447  23823693.1924   23823693.0994
      1119.1844
  -6171971.69149  -4809944.15647  23061138.5914   23061136.2244
      1300.1504
  10851180.25449   8442395.85947  23475155.1694   23475153.6534
     -3718.9794
  -2040793.78149  -1589756.34046  24079474.4584   24079474.7164
      2937.7884
  -2497431.67249  -1946676.74648  21075566.6464   21075565.5874
       394.5504
 04  9 16 21 25  0.0010000  0  8G 3G 8G13G10G19G23G28G27
     90812.34849     72909.45747  23197476.2554   23197476.0014
     -1088.3514
  -6783220.32449  -5273331.08647  21734779.9274   21734779.1654
      1648.5824
   3569642.24249   2776129.45748  20904096.9664   20904095.2514
     -1935.4354
  -2426132.51649  -1886844.32047  23820524.5054   23820523.5484
      1110.3734
  -6191364.41849  -4825055.34447  23057448.3334   23057445.9544
      1292.8484
  10907017.53149   8485905.35547  23485780.5674   23485779.5794
     -3722.4854
  -2084819.49649  -1624062.02346  24071096.9814   24071097.3024
      2935.0484
  -2503304.44149  -1951252.92648  21074449.1224   21074447.9234
       391.5184
 04  9 16 21 25 15.0010000  0  8G 3G 8G13G10G19G23G28G27
    107281.10949     85742.26647  23200609.9974   23200609.7674
     -1097.9174
  -6807898.27349  -5292560.64147  21730084.0054   21730083.1264
      1645.1974
   3598790.98849   2798842.75448  20909644.0754   20909642.1854
     -1943.2504
  -2442653.28149  -1899717.63747  23817380.3804   23817379.9504
      1101.3844
  -6210644.96149  -4840079.11347  23053778.9664   23053776.6534
      1285.3704
  10962909.42649   8529457.44147  23496416.0524   23496414.0094
     -3726.1264
  -2128801.62549  -1658333.73846  24062726.9974   24062727.6344
      2932.1424
  -2509129.25849  -1955791.74648  21073340.9504   21073339.8724
       388.3214
 04  9 16 21 25 30.0010000  0  8G 3G 8G13G10G19G23G28G27
    123894.02049     98687.37947  23203771.4664   23203771.4354
     -1107.5274
  -6832524.78549  -5311750.12147  21725398.1534   21725396.6884
      1641.7674
   3628057.35249   2821647.71148  20915213.1924   20915211.1614
     -1951.0914
  -2459038.43049  -1912485.26647  23814262.2474   23814262.2904
      1092.3434
  -6229812.50849  -4855014.85247  23050131.9584   23050129.0754
      1277.8364
  11018856.47349   8573052.46947  23507063.2714   23507060.9314
     -3729.8034
  -2172739.29349  -1692570.83646  24054365.5674   24054365.9314
      2929.1784
  -2514905.49249  -1960292.69948  21072241.7714   21072240.3254
       385.0824
 04  9 16 21 25 45.0010000  0  8G 3G 8G13G10G19G23G28G27
    140646.93449    111741.61347  23206959.5054   23206959.2554
     -1116.8614
  -6857103.81649  -5330902.61347  21720720.5604   21720719.4424
      1638.6024
   3657437.37149   2844541.22348  20920803.8174   20920802.0484
     -1958.6684
  -2475291.89549  -1925150.30147  23811169.7634   23811169.2354
      1083.5644
  -6248870.68449  -4869865.35247  23046504.9274   23046502.4974
      1270.5454
  11074854.37549   8616687.13347  23517719.4424   23517717.6344
     -3733.1934
  -2216636.39849  -1726776.32446  24046012.2554   24046012.0564
      2926.4744
  -2520637.10949  -1964758.89148  21071150.8024   21071149.6654
       382.1084
 04  9 16 21 26  0.0010000  0  8G 3G 8G13G10G19G23G28G27
    157544.30149    124908.39147  23210174.4114   23210174.9934
     -1126.4914
  -6881630.70749  -5350014.45347  21716053.3174   21716052.0214
      1635.1264
   3686935.52049   2867526.78548  20926417.3964   20926415.4704
     -1966.5434
  -2491408.89549  -1937708.98846  23808102.3414   23808102.0604
      1074.4674
  -6267814.79749  -4884626.97347  23042900.1464   23042897.6574
      1262.9414
  11130907.57449   8660364.88347  23528385.4584   23528384.0054
     -3736.8804
  -2260488.11349  -1760946.46147  24037667.8724   24037667.7044
      2923.4484
  -2526319.51649  -1969186.74248  21070069.6144   21070068.2474
       378.8274
 04  9 16 21 26 15.0010000  0  8G 3G 8G13G10G19G23G28G27
    174583.69149    138185.83247  23213416.7164   23213417.5444
     -1135.9594
  -6906107.82049  -5369087.52347  21711395.4424   21711394.4314
      1631.8084
   3716549.35549   2890602.48848  20932052.8024   20932050.7674
     -1974.2564
  -2507391.66049  -1950163.07847  23805060.8494   23805060.3724
      1065.5184
  -6286646.74649  -4899301.17647  23039316.5214   23039314.1104
      1255.4634
  11187013.48049   8704083.69947  23539062.4744   23539061.0484
     -3740.3944
  -2304296.74649  -1795082.98846  24029331.4034   24029331.7124
      2920.5764
  -2531955.17649  -1973578.16048  21068997.2394   21068995.7744
       375.7114
 04  9 16 21 26 30.0010000  0  8G 3G 8G13G10G19G23G28G27
    191766.84049    151575.28947  23216687.0284   23216687.2044
     -1145.5434
  -6930533.28149  -5388120.33647  21706747.4504   21706746.4814
      1628.3644
   3746280.60249   2913769.68048  20937710.3254   20937708.4504
     -1982.0834
  -2523238.22749  -1962511.05147  23802045.7634   23802044.5524
      1056.4384
  -6305364.64149  -4913886.53147  23035754.9194   23035751.9464
      1247.8604
  11243173.50849   8747844.69147  23549749.5674   23549747.6924
     -3744.0024
  -2348060.18049  -1829184.32847  24021003.3254   24021003.6384
      2917.5624
  -2537542.21149  -1977931.69148  21067934.0524   21067932.6264
       372.4694
 04  9 16 21 26 45.0010000  0  8G 3G 8G13G10G19G23G28G27
    209093.42649    165076.53947  23219984.2474   23219984.1264
     -1155.1064
  -6954907.37149  -5407113.12547  21702109.0284   21702108.0564
      1624.9394
   3776128.95349   2937028.12148  20943390.5674   20943388.1574
     -1989.8904
  -2538948.68749  -1974752.96947  23799055.9034   23799055.3214
      1047.3644
  -6323968.38349  -4928382.93047  23032214.5134   23032211.9624
      1240.2494
  11299387.33649   8791647.62547  23560446.5754   23560445.2674
     -3747.5894
  -2391778.57049  -1863250.55546  24012683.5674   24012683.6924
      2914.5594
  -2543080.67249  -1982247.37548  21066879.6384   21066878.3064
       369.2314
 04  9 16 21 27  0.0010000  0  8G 3G 8G13G10G19G23G28G27
    226564.11349    178690.05547  23223308.3884   23223308.9854
     -1164.7124
  -6979229.24249  -5426065.22347  21697481.1064   21697479.7984
      1621.4584
   3806095.07049   2960378.32448  20949092.8024   20949090.5484
     -1997.7414
  -2554522.24649  -1986888.19947  23796092.5214   23796091.3764
      1038.2374
  -6342457.00049  -4942789.61347  23028696.0284   23028693.5674
      1232.5744
  11355655.50849   8835492.84447  23571154.5054   23571152.3134
     -3751.2114
  -2435450.97349  -1897280.96146  24004373.6144   24004373.0874
      2911.4934
  -2548570.01249  -1986524.78548  21065835.1774   21065834.0714
       365.9564
 04  9 16 21 27 15.0010000  0  8G 3G 8G13G10G19G23G28G27
    244171.72349    192410.27747  23226659.1144   23226659.2514
     -1173.8414
  -7003505.83249  -5444982.03947  21692861.4354   21692860.1184
      1618.4394
   3836171.87149   2983814.78148  20954816.3334   20954814.0324
     -2005.1204
  -2569965.74249  -1998922.08247  23793153.6384   23793152.8804
      1029.5664
  -6360837.18049  -4957111.79747  23025198.5284   23025196.2124
      1225.3454
  11411970.66849   8879374.74647  23581871.1614   23581868.8564
     -3754.3444
  -2479084.19549  -1931280.83647  23996070.8564   23996070.2674
      2908.8824
  -2554017.12149  -1990769.28148  21064798.9354   21064797.5914
       363.1414
 04  9 16 21 27 30.0010000  0  8G 3G 8G13G10G19G23G28G27
    261920.34449    206240.38347  23230036.5524   23230036.7634
     -1183.2414
  -7027732.95749  -5463860.30947  21688250.8414   21688249.9424
      1615.1424
   3866363.10249   3007340.40248  20960561.3964   20960559.4314
     -2012.7494
  -2585275.03949  -2010851.37946  23790240.0054   23790239.9584
      1020.6204
  -6379104.63749  -4971346.15647  23021722.5054   23021719.8374
      1217.8304
  11468336.71949   8923296.27747  23592597.0524   23592595.2204
     -3757.7374
  -2522674.15249  -1965246.97746  23987775.6064   23987775.7204
      2905.9974
  -2559417.92649  -1994977.69948  21063770.9274   21063769.8994
       360.0544
 04  9 16 21 27 45.0010000  0  8G 3G 8G13G10G19G23G28G27
    279810.51249    220180.76247  23233440.9504   23233441.0284
     -1192.6784
  -7051910.21549  -5482699.71947  21683649.9424   21683649.2244
      1611.8174
   3896669.43849   3030955.71148  20966328.6614   20966326.3764
     -2020.4224
  -2600449.18749  -2022675.41046  23787352.6144   23787352.0524
      1011.6104
  -6397258.48049  -4985491.98447  23018268.0134   23018265.5794
      1210.2564
  11524754.09449   8967257.79747  23603333.2474   23603331.8884
     -3761.1584
  -2566219.87949  -1999178.65247  23979488.5754   23979489.0954
      2903.0484
  -2564771.82049  -1999149.56248  21062752.3414   21062751.2784
       356.9264
 04  9 16 21 28  0.0010000  0  8G 3G 8G13G10G19G23G28G27
    297842.21549    234231.44547  23236872.2864   23236872.6464
     -1202.1144
  -7076037.22749  -5501499.97747  21679058.7474   21679057.9234
      1608.4674
   3927090.94949   3054660.77348  20972117.4354   20972115.3334
     -2028.1014
  -2615487.80949  -2034393.80946  23784490.6614   23784490.0954
      1002.5754
  -6415298.34049  -4999549.00047  23014834.9894   23014832.7244
      1202.6574
  11581222.78149   9011259.30147  23614078.8564   23614077.4934
     -3764.5794
  -2609721.01649  -2033075.59047  23971210.6064   23971210.5604
      2900.0764
  -2570078.43449  -2003284.58248  21061742.5834   21061740.8804
       353.7744
 04  9 16 21 28 15.0010000  0  8G 3G 8G13G10G19G23G28G27
    316012.52349    248390.12547  23240329.7474   23240330.1264
     -1211.3544
  -7100116.73849  -5520263.23447  21674476.4814   21674475.7904
      1605.3014
   3957624.73849   3078453.30948  20977927.9114   20977925.6384
     -2035.5864
  -2630393.79349  -2046008.87146  23781654.2714   23781653.2434
       993.7324
  -6433226.80149  -5013519.20347  23011423.1774   23011421.1184
      1195.2314
  11637739.57849   9055298.28547  23624833.0914   23624833.0054
     -3767.7864
  -2653180.25049  -2066939.88747  23962940.9894   23962940.6614
      2897.2824
  -2575340.81649  -2007385.14548  21060740.9744   21060740.0994
       350.8264
 04  9 16 21 28 30.0010000  0  8G 3G 8G13G10G19G23G28G27
    334333.96149    262666.57447  23243816.8884   23243816.0174
     -1221.4294
  -7124136.30149  -5538979.75447  21669905.8104   21669905.2284
      1601.3044
   3988283.32849   3102343.12148  20983762.0364   20983759.9814
     -2043.9064
  -2645154.46549  -2057510.67647  23778845.4424   23778844.6064
       984.0454
  -6451030.96549  -5027392.55147  23008034.8494   23008033.3564
      1186.9444
  11694316.99249   9099384.48847  23635598.9354   23635598.8724
     -3771.8284
  -2696584.87149  -2100761.59447  23954681.0364   23954681.1144
      2893.6414
  -2580546.16849  -2011441.25848  21059750.3564   21059749.0714
       347.0234
 04  9 16 21 28 45.0010000  0  8G 3G 8G13G10G19G23G28G27
    352794.05149    277051.05947  23247329.5604   23247328.9704
     -1230.6734
  -7148107.92249  -5557658.93447  21665344.3884   21665342.7124
      1598.1084
   4019054.21549   3126320.41448  20989617.6464   20989615.4424
     -2051.3924
  -2659781.91849  -2068908.67647  23776062.4274   23776061.6734
       975.1644
  -6468722.85249  -5041178.41047  23004667.9744   23004665.9894
      1179.4594
  11750942.26649   9143507.99247  23646374.7394   23646374.7674
     -3775.0184
  -2739947.13749  -2134550.30147  23946429.5914   23946429.6694
      2890.8184
  -2585707.04349  -2015462.70748  21058768.2164   21058766.8564
       344.0584
 04  9 16 21 29  0.0010000  0  8G 3G 8G13G10G19G23G28G27
    371395.05949    291545.35947  23250868.9744   23250868.8964
     -1240.0674
  -7172029.19949  -5576298.87547  21660792.1774   21660791.0794
      1594.7524
   4049939.75849   3150387.05548  20995494.8804   20995493.2004
     -2059.0364
  -2674273.58649  -2080200.87147  23773304.0444   23773303.8764
       966.1114
  -6486299.93049  -5054874.80147  23001323.2394   23001320.8884
      1171.8054
  11807617.75449   9187670.61747  23657160.5054   23657159.3644
     -3778.3664
  -2783264.37149  -2168303.94547  23938186.5444   23938186.6814
      2887.8164
  -2590820.77049  -2019447.43048  21057795.3494   21057794.0134
       340.9154
 04  9 16 21 29 15.0010000  0  8G 3G 8G13G10G19G23G28G27
    390140.65649    306152.30547  23254436.1064   23254436.2594
     -1249.7074
  -7195896.34449  -5594896.63347  21656250.3884   21656249.0484
      1591.1434
   4080943.53949   3174545.84848  21001394.5284   21001392.9154
     -2066.9194
  -2688625.68749  -2091384.32447  23770573.2784   23770572.3454
       956.8074
  -6503758.18749  -5068478.61347  22998001.2394   22997998.2514
      1163.8844
  11864346.80549   9231874.99647  23667955.2864   23667954.2514
     -3781.9374
  -2826532.79349  -2202019.56246  23929952.3174   23929951.9934
      2884.5614
  -2595883.80149  -2023392.65248  21056831.5994   21056830.5524
       337.5354
 04  9 16 21 29 30.0010000  0  8G 3G 8G13G10G19G23G28G27
    409025.34849    320867.64147  23258029.8564   23258029.5404
     -1258.9794
  -7219714.84049  -5613456.49247  21651717.8494   21651716.7864
      1587.9004
   4112060.16449   3198792.55548  21007315.7944   21007314.1224
     -2074.4424
  -2702843.38749  -2102463.04347  23767867.7004   23767867.2674
       947.8474
  -6521102.76649  -5081993.84447  22994701.1304   22994697.9114
      1156.3054
  11921123.91049   9276116.87147  23678760.8334   23678757.9744
     -3785.1404
  -2869757.55549  -2235701.10546  23921726.6774   23921727.2674
      2881.6514
  -2600901.42249  -2027302.48048  21055877.2944   21055875.4274
       334.5084
 04  9 16 21 29 45.0010000  0  8G 3G 8G13G10G19G23G28G27
    428053.42649    335694.71547  23261650.4894   23261650.5674
     -1268.5394
  -7243480.28149  -5631975.01247  21647195.3494   21647194.3174
      1584.3634
   4143293.86349   3223130.49248  21013259.6464   21013257.5954
     -2082.2474
  -2716922.23449  -2113433.56647  23765188.4034   23765188.0054
       938.5904
  -6538328.83249  -5095416.73047  22991422.7784   22991420.1534
      1148.4044
  11977953.25849   9320399.41447  23689574.4424   23689573.0874
     -3788.6234
  -2912933.90249  -2269344.96146  23913511.1924   23913511.2634
      2878.4234
  -2605869.07049  -2031173.37148  21054931.7784   21054930.1854
       331.1774
 04  9 16 21 30  0.0010000  0  8G 3G 8G13G10G19G23G28G27
    447223.13749    350632.15247  23265298.3024   23265298.3604
     -1277.9814
  -7267194.28549  -5650453.44147  21642682.8884   21642681.7594
      1580.9344
   4174642.84049   3247558.25848  21019225.2554   21019223.1144
     -2089.9324
  -2730863.77349  -2124297.09847  23762535.9504   23762534.8104
       929.4364
  -6555438.10249  -5108748.58647  22988166.6924   22988164.4034
      1140.6184
  12034832.85249   9364721.13747  23700398.0284   23700396.0404
     -3791.9734
  -2956063.54349  -2302952.41447  23905303.9664   23905304.2124
      2875.3094
  -2610788.57449  -2035006.74648  21053995.6614   21053994.1574
       327.9674
 04  9 16 21 30 15.0010000  0  8G 3G 8G13G10G19G23G28G27
    466533.25849    365678.98047  23268972.9114   23268973.1424
     -1287.3414
  -7290857.78949  -5668892.52347  21638179.8884   21638178.3764
      1577.5674
   4206105.85249   3272074.87548  21025212.5754   21025210.0564
     -2097.5344
  -2744668.99249  -2135054.42647  23759908.7314   23759908.1034
       920.3484
  -6572431.33249  -5121990.03547  22984932.8564   22984930.7354
      1132.8824
  12091761.37549   9409080.94547  23711231.2714   23711230.9934
     -3795.2354
  -2999147.41449  -2336524.17646  23897104.7634   23897105.8994
      2872.2584
  -2615660.89549  -2038803.35548  21053068.3334   21053066.8994
       324.8214
 04  9 16 21 30 30.0010000  0  8G 3G 8G13G10G19G23G28G27
    485981.70349    380833.59847  23272674.4424   23272674.2044
     -1296.5634
  -7314472.92249  -5687293.91447  21633685.9354   21633684.7474
      1574.3424
   4237680.87149   3296678.77748  21031220.7164   21031218.7514
     -2105.0014
  -2758339.61749  -2145706.85247  23757306.9894   23757306.6104
       911.3754
  -6589310.15249  -5135142.34447  22981721.3494   22981718.7554
      1125.2554
  12148736.65649   9453477.18047  23722073.1144   23722072.1614
     -3798.3524
  -3042187.18049  -2370061.61747  23888914.4814   23888914.7244
      2869.3184
  -2620488.04349  -2042564.76648  21052149.9424   21052148.2514
       321.8104
 04  9 16 21 30 45.0010000  0  8G 3G 8G13G10G19G23G28G27
    505571.09849    396098.05547  23276401.6144   23276401.9624
     -1305.9604
  -7338036.83249  -5705655.39847  21629202.1064   21629200.6494
      1570.9274
   4269370.51649   3321371.99248  21037251.1774   21037249.0994
     -2112.6434
  -2771872.98849  -2156252.33247  23754731.6144   23754731.5564
       902.2254
  -6606071.78549  -5148203.34047  22978531.5914   22978529.1104
      1117.4424
  12205761.10549   9497911.75447  23732925.1064   23732923.8334
     -3801.6304
  -3085180.10249  -2403562.52047  23880733.7394   23880734.5014
      2866.1954
  -2625267.26649  -2046288.83648  21051240.4114   21051238.9114
       318.6154
 04  9 16 21 31  0.0010000  0  8G 3G 8G13G10G19G23G28G27
    525301.90249    411472.69547  23280156.2634   23280156.3724
     -1315.3874
  -7361548.64849  -5723976.28547  21624727.9114   21624726.0324
      1567.4544
   4301175.33249   3346154.96148  21043303.4814   21043301.6424
     -2120.3214
  -2785268.21549  -2166690.16847  23752182.6854   23752182.5754
       893.0154
  -6622715.27749  -5161172.27047  22975364.3104   22975361.5134
      1109.5664
  12262835.21949   9542384.99247  23743786.2084   23743785.1034
     -3804.9414
  -3128125.28549  -2437026.22347  23872561.4894   23872561.4624
      2863.0124
  -2629997.91449  -2049975.04748  21050339.9974   21050338.9034
       315.3774
 04  9 16 21 31 15.0010000  0  8G 3G 8G13G10G19G23G28G27
    545171.16449    426955.23447  23283936.9114   23283937.3294
     -1324.6174
  -7385011.37149  -5742258.91847  21620262.9194   21620261.4464
      1564.1824
   4333092.25049   3371025.26648  21049377.1614   21049375.1884
     -2127.7954
  -2798528.13349  -2177022.55547  23749659.6614   23749658.6734
       883.9954
  -6639243.16049  -5174051.12547  22972218.7634   22972215.9894
      1101.8594
  12319955.87549   9586894.52747  23754655.6924   23754654.5134
     -3808.0444
  -3171025.51249  -2470454.88347  23864397.1384   23864398.2314
      2860.0154
  -2634682.82849  -2053625.62548  21049448.6614   21049447.1694
       312.3284
 04  9 16 21 31 30.0010000  0  8G 3G 8G13G10G19G23G28G27
    565176.38749    442543.69147  23287744.0214   23287744.3844
     -1333.6824
  -7408427.25449  -5760505.04747  21615807.0214   21615805.6694
      1561.0594
   4365118.98449   3395981.14148  21055471.3334   21055469.5134
     -2135.1164
  -2811654.87949  -2187251.19947  23747161.7474   23747161.0054
       875.1164
  -6655657.57449  -5186841.54747  22969095.3724   22969092.8534
      1094.2944
  12377120.43049   9631438.25047  23765533.7244   23765532.2554
     -3810.9704
  -3213882.79749  -2503850.12147  23856241.7474   23856242.6384
      2857.1524
  -2639324.28549  -2057242.34448  21048565.4664   21048563.7124
       309.4304
 04  9 16 21 31 45.0010000  0  8G 3G 8G13G10G19G23G28G27
    585322.73449    458242.13347  23291578.5524   23291578.6144
     -1343.0904
  -7431791.00849  -5778710.55547  21611361.1224   21611359.9504
      1557.5844
   4397260.55949   3421026.52048  21061588.1064   21061586.3494
     -2142.7724
  -2824643.11749  -2197371.89547  23744690.2084   23744688.8644
       865.8834
  -6671953.07849  -5199539.32047  22965994.3024   22965992.3804
      1086.3674
  12434333.97349   9676020.18847  23776420.6924   23776419.6854
     -3814.2364
  -3256691.84849  -2537207.77047  23848095.3564   23848095.9584
      2853.9374
  -2643917.14149  -2060821.19548  21047691.5834   21047689.7634
       306.1904
 04  9 16 21 32  0.0010000  0  8G 3G 8G13G10G19G23G28G27
    605609.60249    474050.06347  23295438.4194   23295438.5674
     -1352.4584
  -7455103.21549  -5796875.91047  21606924.8724   21606923.9544
      1554.1474
   4429516.27349   3446160.82048  21067725.9424   21067724.2004
     -2150.3814
  -2837493.35249  -2207385.06647  23742245.0754   23742243.7984
       856.6824
  -6688130.05149  -5212144.73447  22962916.1924   22962914.1614
      1078.4654
  12491595.76649   9720639.68447  23787317.8104   23787317.0054
     -3817.4534
  -3299453.11349  -2570528.16047  23839958.4744   23839959.1424
      2850.7514
  -2648461.80949  -2064362.48448  21046826.7634   21046824.9664
       302.9784
 04  9 16 21 32 15.0010000  0  8G 3G 8G13G10G19G23G28G27
    626036.42249    489967.06347  23299324.9664   23299325.3024
     -1361.7884
  -7478364.02049  -5815001.19547  21602498.7554   21602497.6614
      1550.7204
   4461885.70349   3471383.73848  21073885.6464   21073883.8254
     -2157.9624
  -2850205.78949  -2217290.85247  23739825.3884   23739824.6464
       847.4964
  -6704188.51649  -5224657.80547  22959859.9814   22959857.7124
      1070.5644
  12548905.18849   9765296.25447  23798222.9194   23798222.0674
     -3820.6284
  -3342166.78549  -2603811.48046  23831829.7004   23831829.8924
      2847.5784
  -2652958.57449  -2067866.45748  21045970.7004   21045969.5914
       299.7844
 04  9 16 21 32 30.0010000  0  8G 3G 8G13G10G19G23G28G27
    646603.40649    505993.26647  23303239.0284   23303238.8604
     -1371.1324
  -7501572.91849  -5833086.03947  21598081.7474   21598080.5954
      1547.2604
   4494369.08249   3496695.44548  21080066.8254   21080065.0604
     -2165.5594
  -2862780.03149  -2227088.94546  23737432.6064   23737431.6144
       838.2834
  -6720127.94149  -5237078.12147  22956827.2784   22956824.4974
      1062.6284
  12606262.32849   9809990.05947  23809137.6774   23809137.4814
     -3823.8094
  -3384832.36749  -2637057.33647  23823710.6534   23823711.3724
      2844.3724
  -2657407.26249  -2071332.96148  21045124.0674   21045122.8064
       296.5794
 04  9 16 21 32 45.0010000  0  8G 3G 8G13G10G19G23G28G27
    667312.88749    522130.51247  23307180.1224   23307179.6924
     -1380.6324
  -7524727.64849  -5851128.66847  21593675.8254   21593674.8254
      1543.6494
   4526968.64849   3522097.69148  21086270.7394   21086268.5604
     -2173.3044
  -2875213.56249  -2236777.40247  23735066.3104   23735065.8534
       828.9024
  -6735945.56249  -5249403.52047  22953816.8414   22953814.6574
      1054.5084
  12663669.32849   9854722.69947  23820062.8024   23820061.6224
     -3827.1334
  -3427447.22349  -2670263.62547  23815601.4664   23815601.4034
      2840.9904
  -2661805.28949  -2074760.00448  21044287.4114   21044286.1734
       293.2024
 04  9 16 21 33  0.0010000  0  8G 3G 8G13G10G19G23G28G27
    688163.32849    538377.60247  23311148.3254   23311147.9424
     -1390.0294
  -7547829.66049  -5869130.23047  21589279.9974   21589278.8534
      1540.1344
   4559682.98849   3547589.36748  21092495.6694   21092494.0794
     -2180.9564
  -2887507.57049  -2246357.15646  23732726.8414   23732726.9504
       819.6014
  -6751642.54349  -5261634.90647  22950829.9114   22950827.7244
      1046.4654
  12721124.61749   9899492.96547  23830996.3334   23830995.4624
     -3830.3534
  -3470012.47749  -2703431.30547  23807501.6774   23807501.5244
      2837.6844
  -2666153.99249  -2078148.59448  21043459.8494   21043458.5524
       289.9144
 04  9 16 21 33 15.0010000  0  8G 3G 8G13G10G19G23G28G27
    709152.19149    554732.55547  23315141.4424   23315142.3024
     -1399.2584
  -7570881.30149  -5887092.52747  21584892.8724   21584892.0244
      1536.7764
   4592509.53949   3573168.48048  21098742.5364   21098740.7164
     -2188.4374
  -2899664.40649  -2255829.99247  23730413.6924   23730413.2474
       810.4564
  -6767221.16849  -5273774.08647  22947865.3804   22947863.1494
      1038.5754
  12778625.50449   9944298.78147  23841938.6384   23841936.3804
     -3833.3924
  -3512530.48849  -2736562.16047  23799410.6144   23799410.9154
      2834.5344
  -2670455.90249  -2081500.73048  21042641.2004   21042639.8134
       286.7944
 04  9 16 21 33 30.0010000  0  8G 3G 8G13G10G19G23G28G27
    730279.39149    571195.28147  23319162.0994   23319162.2864
     -1408.4804
  -7593882.19949  -5905015.30947  21580516.1854   21580514.9624
      1533.3934
   4625448.30149   3598835.03548  21105010.3414   21105008.9744
     -2195.9174
  -2911683.90249  -2265195.84047  23728126.6854   23728125.8334
       801.3004
  -6782681.17249  -5285820.82447  22944923.9744   22944921.9704
      1030.6674
  12836171.85949   9989140.01647  23852889.1224   23852887.1064
     -3836.4244
  -3555001.00849  -2769656.01647  23791328.9114   23791328.0404
      2831.3684
  -2674710.79349  -2084816.23048  21041831.3564   21041830.1034
       283.6594
 04  9 16 21 33 45.0010000  0  8G 3G 8G13G10G19G23G28G27
    751543.88749    587765.02047  23323208.7864   23323208.5364
     -1417.6334
  -7616833.28549  -5922899.25447  21576148.6774   21576147.6494
      1530.0724
   4658498.11749   3624588.12948  21111299.8644   21111298.2714
     -2203.3214
  -2923566.84849  -2274455.27347  23725865.5444   23725864.7004
       792.1964
  -6798023.27749  -5297775.68747  22942004.2784   22942002.1064
      1022.8074
  12893762.49249  10034015.76247  23863848.0674   23863846.7284
     -3839.3764
  -3597424.87949  -2802713.52347  23783255.6694   23783254.8454
      2828.2584
  -2678919.54749  -2088095.78548  21041030.6694   21041029.1144
       280.5844
 04  9 16 21 34  0.0010000  0  8G 3G 8G13G10G19G23G28G27
    772945.85249    604441.85947  23327281.4744   23327280.7554
     -1426.7984
  -7639734.25049  -5940744.15247  21571790.5444   21571789.4234
      1526.7314
   4691659.42249   3650428.09848  21117610.2164   21117608.6384
     -2210.7544
  -2935312.60249  -2283607.80147  23723629.7864   23723629.0634
       783.0504
  -6813246.73449  -5309638.10247  22939107.0444   22939105.4584
      1014.8974
  12951397.57449  10078926.16047  23874815.4504   23874813.8844
     -3842.3394
  -3639801.34449  -2835734.07847  23775191.6614   23775191.3254
      2825.0984
  -2683081.74649  -2091339.05948  21040238.9194   21040236.9624
       277.4804
 04  9 16 21 34 15.0010000  0  8G 3G 8G13G10G19G23G28G27
    794490.37949    621229.79747  23331381.9894   23331381.2354
     -1436.3024
  -7662580.05149  -5958546.06247  21567443.1464   21567442.2124
      1523.0534
   4724937.01249   3676358.67648  21123942.7864   21123941.0604
     -2218.5064
  -2946916.18049  -2292649.55947  23721422.2164   23721420.9854
       773.5724
  -6828346.32049  -5321403.98447  22936233.9814   22936231.7824
      1006.6394
  13009081.94549  10123874.96146  23885792.2314   23885790.5994
     -3845.6254
  -3682125.27049  -2868713.70747  23767137.6694   23767137.4504
      2821.5954
  -2687192.43749  -2094542.19148  21039456.2864   21039454.8254
       274.0464
 04  9 16 21 34 30.0010000  0  8G 3G 8G13G10G19G23G28G27
    816171.77049    638124.37547  23335507.1384   23335507.3964
     -1445.4264
  -7685376.09849  -5976309.20347  21563105.0604   21563104.0244
      1519.7364
   4758325.39549   3702375.58648  21130296.2784   21130294.6264
     -2225.8924
  -2958382.90249  -2301584.65247  23719240.4274   23719238.8764
       764.4484
  -6843327.35949  -5333077.50447  22933383.4664   22933380.9234
       998.7364
  13066809.77749  10168857.59046  23896777.8254   23896776.3884
     -3848.5224
  -3724402.09849  -2901656.62947  23759092.8254   23759092.6304
      2818.4554
  -2691257.00849  -2097709.39148  21038682.9034   21038681.3684
       270.9714
 04  9 16 21 34 45.0010000  0  8G 3G 8G13G10G19G23G28G27
    837989.35949    655125.07847  23339659.4114   23339658.9704
     -1454.5064
  -7708123.06649  -5994034.10947  21558776.8174   21558775.4074
      1516.4654
   4791823.75049   3728478.18048  21136670.9194   21136669.3534
     -2233.2244
  -2969713.30549  -2310413.52046  23717084.1384   23717083.1494
       755.3604
  -6858190.15249  -5344658.88747  22930554.8024   22930552.2984
       990.8534
  13124580.26249  10213873.46147  23907770.6694   23907770.0094
     -3851.3664
  -3766632.15649  -2934563.11347  23751056.2554   23751055.4194
      2815.3374
  -2695276.07449  -2100841.12948  21037917.8334   21037916.2284
       267.9384
 04  9 16 21 35  0.0010000  0  8G 3G 8G13G10G19G23G28G27
    859945.50449    672233.74647  23343837.4664   23343837.1304
     -1463.7434
  -7730818.25449  -6011718.65647  21554458.2784   21554456.1734
      1513.0134
   4825434.56349   3754668.41448  21143066.7084   21143064.8994
     -2240.7214
  -2980904.72749  -2319134.12547  23714954.5134   23714953.6144
       746.0954
  -6872931.87149  -5356145.92647  22927749.7714   22927747.0674
       982.7814
  13182395.84449  10258924.48046  23918773.0284   23918771.8294
     -3854.3724
  -3808812.75449  -2967431.06247  23743029.4584   23743030.4154
      2812.0404
  -2699246.93449  -2103935.30548  21037162.5444   21037160.8174
       264.7244
 04  9 16 21 35 15.0010000  0  8G 3G 8G13G10G19G23G28G27
    882037.37549    689448.18447  23348041.2714   23348041.2984
     -1472.7914
  -7753463.93749  -6029364.64547  21550148.8804   21550147.6384
      1509.7124
   4859155.16049   3780944.18848  21149483.5994   21149481.9894
     -2248.0404
  -2991959.71149  -2327748.40247  23712850.1384   23712850.3294
       736.9994
  -6887554.81649  -5367540.40247  22924967.0214   22924964.4074
       974.8634
  13240253.73849  10304008.45347  23929783.3884   23929783.0214
     -3857.1934
  -3850946.37949  -3000262.40247  23735012.0214   23735012.1534
      2808.9084
  -2703172.17249  -2106993.93048  21036415.2714   21036414.2004
       261.6834
 04  9 16 21 35 30.0010000  0  8G 3G 8G13G10G19G23G28G27
    904266.68849    706769.71947  23352271.7554   23352271.4624
     -1481.9544
  -7776058.64149  -6046970.90247  21545849.2784   21545847.7634
      1506.3144
   4892986.91849   3807306.58648  21155921.8414   21155920.1104
     -2255.4514
  -3002876.37549  -2336254.87947  23710773.2244   23710772.3684
       727.7784
  -6902057.23049  -5378840.95747  22922207.0054   22922205.4314
       966.8284
  13298155.24649  10349126.43447  23940802.2394   23940801.2164
     -3860.1014
  -3893031.15249  -3033055.67647  23727003.4354   23727003.3174
      2805.6524
  -2707050.24249  -2110015.80548  21035677.3884   21035676.6774
       258.5384
 04  9 16 21 35 45.0010000  0  8G 3G 8G13G10G19G23G28G27
    926631.39149    724196.73047  23356526.9354   23356526.5604
     -1490.9804
  -7798604.00449  -6064538.70747  21541558.9034   21541557.4854
      1503.0244
   4926927.77749   3833754.00048  21162380.1304   21162378.4584
     -2262.7244
  -3013656.61749  -2344655.05946  23708722.3104   23708721.2084
       718.6834
  -6916440.69549  -5390048.82447  22919469.6924   22919468.2944
       958.8984
  13356098.20349  10394276.67647  23951828.5364   23951827.9274
     -3862.8644
  -3935068.85949  -3065812.29347  23719003.9194   23719003.5674
      2802.5144
  -2710882.86349  -2113002.25848  21034948.3494   21034946.8334
       255.5084
 04  9 16 21 36  0.0010000  0  8G 3G 8G13G10G19G23G28G27
    949132.57049    741730.12547  23360809.3254   23360808.2784
     -1500.0794
  -7821098.61349  -6082066.96947  21537278.1534   21537276.4624
      1499.6414
   4960979.05949   3860287.44948  21168860.0754   21168858.2394
     -2270.0854
  -3024299.04749  -2352947.88346  23706696.7244   23706695.4194
       709.4954
  -6930703.81649  -5401162.91047  22916756.0604   22916753.7984
       950.8754
  13414083.68049  10439460.06347  23962862.5524   23962861.8294
     -3865.6984
  -3977058.07049  -3098531.09447  23711013.6774   23711013.2514
      2799.2814
  -2714668.80549  -2115952.34848  21034227.7784   21034226.2124
       252.3964
 04  9 16 21 36 15.0010000  0  8G 3G 8G13G10G19G23G28G27
    971769.26249    759369.09847  23365116.7864   23365116.5484
     -1509.1134
  -7843543.54749  -6099556.52347  21533007.2004   21533006.0754
      1496.3294
   4995139.90249   3886906.27748  21175360.5134   21175359.1104
     -2277.3904
  -3034804.37149  -2361133.84046  23704697.4274   23704696.9784
       700.3554
  -6944847.25049  -5412183.74647  22914064.2474   22914062.4384
       942.8964
  13472110.69549  10484675.82047  23973904.8334   23973904.4354
     -3868.4684
  -4018999.36349  -3131212.57847  23703032.3964   23703031.8924
      2796.0864
  -2718408.81649  -2118866.64148  21033516.1534   21033514.4974
       249.3344
 04  9 16 21 36 30.0010000  0  8G 3G 8G13G10G19G23G28G27
    994539.20349    777111.91447  23369449.6064   23369449.4464
     -1517.9964
  -7865940.83249  -6117008.94947  21528745.0284   21528743.3564
      1493.1524
   5029408.07049   3913608.73048  21181881.5754   21181879.9544
     -2284.5454
  -3045174.59049  -2369214.52047  23702724.1774   23702723.1854
       691.3484
  -6958872.70749  -5423112.65247  22911395.0994   22911393.3254
       935.0304
  13530176.94549  10529922.16047  23984954.2784   23984953.2434
     -3871.0834
  -4060894.59049  -3163858.16847  23695060.1464   23695059.7204
      2793.0154
  -2722104.87549  -2121746.69548  21032812.6854   21032811.3104
       246.4044
 04  9 16 21 36 45.0010000  0  8G 3G 8G13G10G19G23G28G27
   1017443.21949    794959.19547  23373808.1384   23373808.1814
     -1526.9344
  -7888289.35949  -6134423.38347  21524491.9814   21524490.6384
      1489.9024
   5063784.38749   3940395.44948  21188423.7474   21188421.8134
     -2291.7544
  -3055408.56649  -2377189.03147  23700776.6774   23700775.5634
       682.2654
  -6972778.93449  -5433948.64147  22908748.8804   22908746.9744
       927.0824
  13588283.10549  10575199.59847  23996011.7864   23996010.2674
     -3873.7444
  -4102742.75049  -3196467.05547  23687096.8174   23687095.8964
      2789.8774
  -2725755.99249  -2124591.71548  21032117.7864   21032116.6224
       243.4084
 04  9 16 21 37  0.0010000  0  8G 3G 8G13G10G19G23G28G27
   1040486.30949    812914.84447  23378193.2314   23378193.1614
     -1536.2064
  -7910584.01649  -6151795.84047  21520249.6924   21520248.4854
      1486.3104
   5098273.81349   3967270.31648  21194986.2244   21194985.1774
     -2299.2954
  -3065501.21549  -2385053.43446  23698856.2784   23698855.6384
       672.8434
  -6986560.68049  -5444687.62147  22906126.5214   22906124.3334
       918.7834
  13646434.09049  10620512.01247  24007078.5604   24007075.5364
     -3876.7324
  -4144538.51249  -3229035.12547  23679142.8414   23679142.7084
      2786.3844
  -2729357.00449  -2127397.69948  21031432.6614   21031431.2984
       240.0674
 04  9 16 21 37 15.0010000  0  8G 3G 8G13G10G19G23G28G27
   1063667.59049    830978.18847  23382604.1384   23382604.2904
     -1545.4194
  -7932825.59849  -6169126.93747  21516016.8494   21516016.0404
      1482.7724
   5132875.41849   3994232.59048  21201570.9974   21201569.4704
     -2306.7744
  -3075453.16049  -2392808.18046  23696962.2394   23696961.2314
       663.4634
  -7000218.58249  -5455330.11347  22903527.7244   22903525.4784
       910.5274
  13704628.93849  10665858.55947  24018151.6534   24018150.9664
     -3879.6574
  -4186282.50449  -3261562.84847  23671199.9034   23671199.0244
      2782.9334
  -2732908.69949  -2130165.26248  21030757.0284   21030755.2244
       236.7804
 04  9 16 21 37 30.0010000  0  8G 3G 8G13G10G19G23G28G27
   1086984.43049    849147.13747  23387041.6854   23387041.2984
     -1554.4564
  -7955016.31249  -6186418.39847  21511794.3024   21511793.0794
      1479.3814
   5167586.51649   4021280.18448  21208176.1464   21208174.7904
     -2314.0734
  -3085266.87549  -2400455.25046  23695094.7164   23695093.9194
       654.2484
  -7013754.84449  -5465877.81647  22900951.8724   22900949.5134
       902.4174
  13762864.85249  10711237.11347  24029233.7394   24029232.1034
     -3882.3944
  -4227977.00449  -3294052.00847  23663265.2164   23663264.9234
      2779.6334
  -2736413.57049  -2132896.32448  21030089.9664   21030088.5634
       233.6584
 04  9 16 21 37 45.0010000  0  8G 3G 8G13G10G19G23G28G27
   1110433.46549    867419.11747  23391503.3254   23391503.3844
     -1563.2694
  -7977159.38349  -6203672.72747  21507580.4354   21507579.3644
      1476.2054
   5202403.90249   4048410.59848  21214801.9194   21214799.9744
     -2321.1594
  -3094945.37949  -2407996.91847  23693252.6534   23693251.6034
       645.2344
  -7027172.43049  -5476333.05547  22898398.1774   22898396.2204
       894.5064
  13821138.43449  10756645.02046  24040323.0674   24040320.9074
     -3884.9054
  -4269625.01249  -3326504.94947  23655339.2394   23655339.5634
      2776.5344
  -2739874.77349  -2135593.36748  21029431.4974   21029429.8564
       230.7474
 04  9 16 21 38  0.0010000  0  8G 3G 8G13G10G19G23G28G27
   1134020.48849    885798.61747  23395992.3564   23395991.4744
     -1572.4684
  -7999248.77049  -6220885.23447  21503377.1694   21503376.3374
      1472.6264
   5237333.43849   4075628.40648  21221448.7004   21221446.8924
     -2328.6364
  -3104482.52349  -2415428.46946  23691438.1694   23691437.0564
       635.8104
  -7040465.17649  -5486691.00847  22895868.8174   22895866.3724
       886.1834
  13879455.30149  10802086.65646  24051419.4194   24051419.4704
     -3887.7914
  -4311220.49649  -3358916.94547  23647424.0284   23647424.0604
      2773.0324
  -2743286.27349  -2138251.67648  21028782.0524   21028780.8374
       227.4334
 04  9 16 21 38 15.0010000  0  8G 3G 8G13G10G19G23G28G27
   1157738.99649    904280.58647  23400505.2784   23400504.9934
     -1581.2344
  -8021290.82449  -6238060.85247  21499182.7944   21499181.5524
      1469.4704
   5272368.64849   4102928.55148  21228115.6924   21228114.1694
     -2335.6814
  -3113884.77349  -2422754.87147  23689649.1694   23689648.2674
       626.8174
  -7053639.19149  -5496956.44547  22893361.3104   22893358.8684
       878.2684
  13937808.97749  10847556.95346  24062524.4744   24062523.6924
     -3890.2454
  -4352769.74649  -3391292.93447  23639517.7004   23639517.8104
      2769.9504
  -2746654.28949  -2140876.10548  21028141.2084   21028139.3414
       224.5344
 04  9 16 21 38 30.0010000  0  8G 3G 8G13G10G19G23G28G27
   1181587.93449    922864.16447  23405043.7944   23405043.3254
     -1589.9294
  -8043286.38349  -6255200.24647  21494997.3024   21494996.1264
      1466.3714
   5307508.37149   4130310.12948  21234802.5524   21234800.8024
     -2342.6484
  -3123152.85549  -2429976.74646  23687885.1694   23687884.5874
       617.8724
  -7066695.33249  -5507130.02747  22890877.2554   22890874.9194
       870.4094
  13996198.32849  10893055.05946  24073635.0994   24073634.1734
     -3892.6234
  -4394273.43049  -3423633.40247  23631619.4664   23631619.7944
      2766.9124
  -2749979.87549  -2143467.48048  21027508.1854   21027506.4354
       221.7064
 04  9 16 21 38 45.0010000  0  8G 3G 8G13G10G19G23G28G27
   1205572.25449    941553.23847  23409607.8334   23409607.6854
     -1598.9554
  -8065230.19549  -6272299.31248  21490821.5834   21490820.4464
      1462.9214
   5342757.66849   4157777.10248  21241510.3174   21241508.6924
     -2349.9534
  -3132281.54749  -2437090.02746  23686147.7864   23686147.8604
       608.5794
  -7079628.10949  -5517207.48847  22888416.3644   22888413.7944
       862.1854
  14054628.14149  10938584.69146  24084754.7004   24084753.7244
     -3895.3214
  -4435726.12549  -3455934.14547  23623731.2864   23623731.5714
      2763.5134
  -2753257.80949  -2146021.71148  21026884.4194   21026883.0134
       218.5294
 04  9 16 21 39  0.0010000  0  8G 3G 8G13G10G19G23G28G27
   1229691.16449    960347.19947  23414197.4974   23414197.2744
     -1607.9274
  -8087122.60549  -6289358.32047  21486655.3334   21486654.4074
      1459.4944
   5378115.81349   4185328.87948  21248238.7314   21248237.0994
     -2357.2104
  -3141271.33649  -2444095.06646  23684437.7714   23684437.0874
       599.3194
  -7092437.88749  -5527189.10247  22885978.2394   22885975.9194
       853.9854
  14113097.59049  10984145.20347  24095881.5284   24095880.4074
     -3897.9634
  -4477128.35549  -3488195.57047  23615853.2004   23615852.9114
      2760.1494
  -2756488.54749  -2148539.17248  21026269.5284   21026268.5674
       215.3834
 04  9 16 21 39 15.0010000  0  8G 3G 8G13G10G19G23G28G27
   1253946.25849    979247.25447  23418813.5604   23418812.5604
     -1617.0064
  -8108962.21149  -6306376.18447  21482499.2394   21482498.1654
      1455.9744
   5413584.24649   4212966.60948  21254988.0674   21254986.7784
     -2364.5624
  -3150120.57049  -2450990.55947  23682753.5284   23682753.0214
       589.9494
  -7105122.84049  -5537073.46147  22883564.4424   22883561.6064
       845.6644
  14171608.19549  11029737.79347  24107015.4354   24107014.3254
     -3900.7074
  -4518478.40249  -3520416.30947  23607983.5754   23607984.2714
      2756.6704
  -2759670.49649  -2151018.60548  21025664.0674   21025662.7204
       212.1304
 04  9 16 21 39 30.0010000  0  8G 3G 8G13G10G19G23G28G27
   1278336.35949    998252.53147  23423454.7084   23423453.9384
     -1626.0074
  -8130750.01649  -6323353.69147  21478353.2944   21478352.4424
      1452.5204
   5449161.84449   4240689.39147  21261758.5444   21261756.8564
     -2371.8404
  -3158830.10549  -2457777.21146  23681096.1774   23681095.1464
       580.6364
  -7117683.82449  -5546861.19547  22881174.3334   22881171.5714
       837.3994
  14230158.71549  11075361.50047  24118157.4814   24118156.5324
     -3903.3684
  -4559777.07049  -3552597.02347  23600124.9664   23600124.4544
      2753.2454
  -2762804.67649  -2153460.82448  21025067.7314   21025066.3254
       208.9454
 04  9 16 21 39 45.0010000  0  8G 3G 8G13G10G19G23G28G27
   1302862.80149   1017364.05147  23428121.7004   23428121.5214
     -1635.0964
  -8152484.17249  -6340289.39547  21474217.6534   21474216.3214
      1448.9444
   5484850.14549   4268498.43047  21268549.6534   21268548.0754
     -2379.2204
  -3167398.39149  -2464453.81247  23679465.8254   23679464.7004
       571.2194
  -7130119.03149  -5556550.94547  22878807.9814   22878804.6424
       829.0144
  14288750.39549  11121017.26647  24129307.4504   24129306.5174
     -3906.1124
  -4601022.60249  -3584736.33647  23592276.4664   23592275.9074
      2749.7024
  -2765889.30549  -2155864.42648  21024480.8174   21024479.2284
       205.6424
 04  9 16 21 40  0.0010000  0  8G 3G 8G13G10G19G23G28G27
   1327523.44149   1036580.12947  23432814.3104   23432814.4814
     -1644.0434
  -8174166.71149  -6357184.87947  21470091.5444   21470090.4784
      1445.5034
   5520646.95349   4296392.02748  21275361.4894   21275359.8454
     -2386.4544
  -3175827.35549  -2471021.82847  23677861.4274   23677861.3334
       561.9314
  -7142430.23049  -5566144.05947  22876465.4664   22876462.4114
       820.7474
  14347380.94149  11166703.34447  24140464.7474   24140462.5834
     -3908.7034
  -4642216.87149  -3616835.70747  23584436.9194   23584437.2244
      2746.2854
  -2768926.48449  -2158231.06648  21023903.1144   21023901.2634
       202.4794
 04  9 16 21 40 15.0010000  0  8G 3G 8G13G10G19G23G28G27
   1352314.88749   1055898.12547  23437532.3334   23437531.4814
     -1652.7634
  -8195800.93749  -6374042.70747  21465974.7474   21465973.1654
      1442.2824
   5556548.90649   4324367.55948  21282193.5604   21282192.0914
     -2393.4644
  -3184120.07849  -2477483.67647  23676283.6534   23676283.0914
       552.8484
  -7154620.46949  -5575642.92647  22874145.2394   22874142.8174
       812.6834
  14406047.05149  11212417.11747  24151627.9584   24151627.0214
     -3911.0744
  -4683362.93049  -3648897.50847  23576607.4504   23576607.0404
      2743.0714
  -2771919.41049  -2160563.21148  21023333.3494   21023331.7864
       199.5284
 04  9 16 21 40 30.0010000  0  8G 3G 8G13G10G19G23G28G27
   1377243.82449   1075323.27747  23442275.7004   23442275.2354
     -1661.9294
  -8217379.92249  -6390857.50447  21461868.1694   21461867.0404
      1438.5994
   5592562.55549   4352430.12147  21289046.5834   21289044.7514
     -2400.9104
  -3192269.71949  -2483834.03547  23674732.5054   23674732.4624
       543.3094
  -7166682.87149  -5585042.16847  22871850.0604   22871847.2674
       804.1604
  14464755.21149  11258163.62547  24162800.2164   24162799.2944
     -3913.8774
  -4724453.89849  -3680916.39547  23568787.6384   23568787.7904
      2739.3984
  -2774861.35249  -2162855.63748  21022773.6854   21022771.7204
       196.1294
 04  9 16 21 40 45.0010000  0  8G 3G 8G13G10G19G23G28G27
   1402310.00849   1094855.36347  23447046.1224   23447045.0564
     -1671.0794
  -8238903.71149  -6407629.27747  21457772.5054   21457771.0754
      1434.9194
   5628687.83249   4380579.67647  21295920.9194   21295919.3374
     -2408.3524
  -3200276.41049  -2490073.01647  23673208.8964   23673208.3104
       533.7794
  -7178617.22349  -5594341.63347  22869579.2084   22869576.3024
       795.6234
  14523505.07449  11303942.63747  24173979.8024   24173979.1064
     -3916.6584
  -4765489.71149  -3712892.28547  23560978.8724   23560978.2514
      2735.7214
  -2777752.14549  -2165108.19948  21022223.3804   21022221.9544
       192.7204
 04  9 16 21 41  0.0010000  0  8G 3G 8G13G10G19G23G28G27
   1427511.73849   1114493.07447  23451841.5994   23451841.3884
     -1680.1154
  -8260373.67249  -6424359.11347  21453686.8644   21453685.2554
      1431.3314
   5664923.07049   4408814.91047  21302816.3724   21302814.8804
     -2415.6834
  -3208141.54349  -2496201.69547  23671712.8174   23671711.2824
       524.3424
  -7190424.78149  -5603542.30147  22867332.1064   22867329.2124
       787.1714
  14582294.90249  11349752.80547  24185167.0134   24185166.1924
     -3919.3224
  -4806471.58249  -3744826.15247  23553180.5674   23553180.2004
      2732.1254
  -2780593.28949  -2167322.08248  21021682.5834   21021680.9934
       189.4104
 04  9 16 21 41 15.0010000  0  8G 3G 8G13G10G19G23G28G27
   1452845.23849   1134233.44947  23456662.3414   23456662.3644
     -1688.9004
  -8281793.37149  -6441049.77348  21449610.9274   21449609.6534
      1427.9804
   5701264.50049   4437132.89147  21309732.0834   21309730.6694
     -2422.7624
  -3215868.60249  -2502222.79747  23670242.0444   23670241.1384
       515.1374
  -7202108.91849  -5612646.80547  22865108.5524   22865105.1884
       778.9424
  14641120.89549  11395591.12147  24196360.6144   24196361.0484
     -3921.7334
  -4847403.07449  -3776720.78147  23545391.4194   23545391.1854
      2728.7664
  -2783388.39149  -2169500.07848  21021150.8414   21021149.4934
       186.3404
 04  9 16 21 41 30.0010000  0  8G 3G 8G13G10G19G23G28G27
   1478314.28549   1154079.46147  23461508.9814   23461509.0284
     -1697.9364
  -8303158.72749  -6457698.09447  21445545.2314   21445544.2434
      1424.3574
   5737715.85249   4465536.52347  21316668.5604   21316666.9624
     -2430.0904
  -3223453.51649  -2508133.10247  23668798.1464   23668797.9664
       505.6614
  -7213665.53149  -5621651.93447  22862909.8334   22862905.8844
       770.4414
  14699986.69549  11441460.46146  24207563.3494   24207562.7354
     -3924.3874
  -4888280.02049  -3808572.88747  23537613.0754   23537612.3534
      2725.1304
  -2786133.47349  -2171639.10548  21020628.6534   21020627.2084
       183.0054
 04  9 16 21 41 45.0010000  0  8G 3G 8G13G10G19G23G28G27
   1503920.24249   1174032.15647  23466381.4744   23466381.6614
     -1707.0644
  -8324468.17249  -6474302.85248  21441489.7634   21441488.7474
      1420.6304
   5774278.44549   4494026.84047  21323626.0604   21323624.6184
     -2437.5064
  -3230894.76249  -2513931.48047  23667383.0054   23667382.5054
       496.0834
  -7225093.03549  -5630556.47347  22860735.3024   22860731.9934
       761.8344
  14758893.58649  11487361.83246  24218772.3804   24218772.3134
     -3927.1264
  -4929100.77749  -3840381.22747  23529845.0604   23529844.7354
      2721.3844
  -2788826.96949  -2173737.93448  21020116.0284   21020114.8064
       179.5664
 04  9 16 21 42  0.0010000  0  8G 3G 8G13G10G19G23G28G27
   1529659.44549   1194088.67247  23471279.4814   23471279.1774
     -1715.9474
  -8345725.32049  -6490866.85947  21437444.8414   21437443.5014
      1417.1434
   5810948.82849   4522601.14547  21330604.0524   21330602.4894
     -2444.6924
  -3238195.71949  -2519620.54347  23665993.1924   23665992.5564
       486.7304
  -7236394.54349  -5639362.82447  22858584.0134   22858581.9314
       753.4344
  14817837.94949  11533292.44146  24229989.3644   24229988.9854
     -3929.6244
  -4969868.62549  -3872148.32447  23522087.3564   23522086.7124
      2717.8574
  -2791472.34849  -2175799.26248  21019612.4424   21019610.9934
       176.3594
 04  9 16 21 42 15.0010000  0  8G 3G 8G13G10G19G23G28G27
   1555528.96949   1214246.74647  23476202.8964   23476201.8374
     -1724.6354
  -8366932.78949  -6507392.15248  21433409.1924   21433408.0674
      1413.8314
   5847724.10549   4551257.19547  21337601.9584   21337600.6884
     -2451.6854
  -3245359.08649  -2525202.37947  23664630.2164   23664629.8414
       477.5584
  -7247572.67649  -5648073.03947  22856456.8564   22856454.6184
       745.2094
  14876816.81649  11579249.93446  24241212.2944   24241211.6614
     -3931.9244
  -5010586.20349  -3903876.25847  23514338.3334   23514337.8884
      2714.5054
  -2794072.23049  -2177825.14548  21019117.5914   21019116.6384
       173.3264
 04  9 16 21 42 30.0010000  0  8G 3G 8G13G10G19G23G28G27
   1581528.56649   1234506.16047  23481150.0134   23481150.0284
     -1733.3074
  -8388090.37949  -6523878.57848  21429383.0754   21429381.9194
      1410.5064
   5884603.96949   4579994.73447  21344620.1534   21344618.9704
     -2458.6584
  -3252384.91049  -2530677.03147  23663293.2244   23663292.8964
       468.3884
  -7258627.34449  -5656687.03547  22854353.4974   22854351.1574
       736.9784
  14935829.78549  11625233.98846  24252443.0604   24252442.2164
     -3934.1984
  -5051253.49649  -3935565.01647  23506600.1464   23506599.0604
      2711.1534
  -2796626.64549  -2179815.60248  21018631.7004   21018630.3454
       170.2944
 04  9 16 21 42 45.0010000  0  8G 3G 8G13G10G19G23G28G27
   1607660.42249   1254868.63347  23486122.3414   23486123.1774
     -1742.1244
  -8409195.86349  -6540324.40647  21425367.1854   21425365.9234
      1407.0324
   5921590.57449   4608815.44947  21351658.8644   21351657.0524
     -2465.7744
  -3259270.86749  -2536042.71947  23661983.0214   23661982.2864
       459.0644
  -7269555.93749  -5665202.80547  22852273.7084   22852270.9814
       728.5734
  14994878.78149  11671246.12147  24263679.6304   24263679.4424
     -3936.6004
  -5091867.97749  -3967212.61347  23498871.3494   23498870.6224
      2707.6324
  -2799133.33249  -2181768.85548  21018154.2634   21018153.0954
       167.1134
 04  9 16 21 43  0.0010000  0  8G 3G 8G13G10G19G23G28G27
   1633923.96149   1275333.73047  23491120.5214   23491121.0794
     -1750.9034
  -8430249.52349  -6556729.85247  21421360.3334   21421359.0444
      1403.5774
   5958683.50049   4637719.01647  21358717.4744   21358715.8604
     -2472.8624
  -3266017.23049  -2541299.61747  23660699.1304   23660698.9034
       449.7584
  -7280358.58649  -5673620.44147  22850218.0134   22850214.9814
       720.1774
  15053963.33649  11717285.94147  24274923.2634   24274923.5214
     -3938.9704
  -5132429.78149  -3998819.15247  23491152.7084   23491151.7984
      2704.1204
  -2801592.53549  -2183685.12148  21017686.5834   21017685.3374
       163.9474
 04  9 16 21 43 15.0010000  0  8G 3G 8G13G10G19G23G28G27
   1660321.58649   1295903.30947  23496143.5834   23496144.0364
     -1759.8424
  -8451248.80149  -6573092.91447  21417364.6144   21417363.3374
      1399.9524
   5995885.14849   4666707.29747  21365796.4114   21365795.1464
     -2480.1104
  -3272621.26649  -2546445.62547  23659442.4114   23659442.0954
       440.2694
  -7291032.60549  -5681937.85547  22848186.5754   22848183.8644
       711.6014
  15113086.00849  11763355.45347  24286173.4814   24286173.4504
     -3941.5114
  -5172936.07449  -4030382.46147  23483444.5604   23483443.8804
      2700.4204
  -2804001.57849  -2185562.29748  21017228.1534   21017226.5954
       160.6034
 04  9 16 21 43 30.0010000  0  8G 3G 8G13G10G19G23G28G27
   1686855.58249   1316579.12147  23501192.7394   23501192.9664
     -1768.9334
  -8472191.23449  -6589411.68747  21413379.2864   21413378.0284
      1396.1624
   6033197.77749   4695782.06347  21372896.6304   21372895.1654
     -2487.5094
  -3279080.53149  -2551478.80947  23658213.2944   23658212.2984
       430.6184
  -7301575.47749  -5690153.05947  22846180.0134   22846177.5674
       702.8584
  15172248.72749  11809456.17647  24297432.5444   24297432.4274
     -3944.1814
  -5213384.50049  -4061900.66047  23475747.4114   23475746.5714
      2696.5624
  -2806358.09049  -2187398.54348  21016779.8104   21016778.3414
       157.1014
 04  9 16 21 43 45.0010000  0  8G 3G 8G13G10G19G23G28G27
   1713519.23449   1337356.00047  23506267.0284   23506266.8844
     -1777.5774
  -8493083.26249  -6605691.18047  21409403.5604   21409402.5484
      1392.8024
   6070614.78149   4724938.15247  21380017.1144   21380015.2124
     -2494.4674
  -3285401.50849  -2556404.24647  23657010.4274   23657009.8844
       421.3984
  -7311993.58249  -5698271.04747  22844197.8804   22844195.4504
       694.5404
  15231444.73849  11855582.84047  24308696.4584   24308697.1184
     -3946.4014
  -5253781.46149  -4093378.77047  23468060.2714   23468058.9464
      2693.1314
  -2808668.65649  -2189198.98448  21016340.3104   21016338.8564
       154.0384
 04  9 16 21 44  0.0010000  0  8G 3G 8G13G10G19G23G28G27
   1740314.89549   1358235.71547  23511366.1614   23511366.3844
     -1786.3774
  -8513922.12149  -6621929.25048  21405438.0754   21405436.8334
      1389.2574
   6108138.53549   4754177.41847  21387157.6464   21387155.9314
     -2501.5844
  -3291581.46949  -2561219.79347  23655834.4744   23655833.5834
       411.9974
  -7322283.95749  -5706289.51247  22842240.2084   22842237.3604
       686.0254
  15290676.49249  11901737.33647  24319968.5834   24319968.8064
     -3948.7844
  -5294123.95749  -4124814.43747  23460382.9504   23460381.5284
      2689.5004
  -2810930.37549  -2190961.35948  21015909.7474   21015908.4194
       150.7814
 04  9 16 21 44 15.0010000  0  8G 3G 8G13G10G19G23G28G27
   1767245.82449   1379220.85547  23516490.7084   23516491.3644
     -1795.3954
  -8534704.22349  -6638123.09047  21401483.3644   21401482.2474
      1385.4734
   6145772.33649   4783502.44947  21394318.9814   21394317.5484
     -2508.9204
  -3297617.11349  -2565922.91047  23654685.6854   23654684.8724
       402.3764
  -7332443.03949  -5714205.65647  22840306.9744   22840303.8964
       677.2724
  15349947.07049  11947922.12147  24331247.5674   24331247.4464
     -3951.3724
  -5334408.64849  -4156205.05947  23452717.4194   23452716.5014
      2685.6464
  -2813139.93049  -2192683.09448  21015489.3964   21015487.8374
       147.3044
 04  9 16 21 44 30.0010000  0  8G 3G 8G13G10G19G23G28G27
   1794300.50449   1400302.41047  23521639.1774   23521639.5484
     -1803.6454
  -8555441.08249  -6654281.67248  21397537.3804   21397536.3684
      1382.4574
   6183504.69149   4812904.26647  21401499.3414   21401497.6574
     -2515.4904
  -3303519.69149  -2570522.31647  23653562.5604   23653561.3804
       393.5054
  -7342481.98049  -5722028.21947  22838396.2634   22838393.3334
       669.2634
  15409244.98849  11994128.19946  24342530.2714   24342531.0954
     -3953.1954
  -5374646.65249  -4187559.30947  23445060.4584   23445058.9234
      2682.5344
  -2815308.67249  -2194373.02048  21015076.5444   21015075.3494
       144.5834
 04  9 16 21 44 45.0010000  0  8G 3G 8G13G10G19G23G28G27
   1821485.53549   1421485.56647  23526812.7164   23526812.5244
     -1812.3354
  -8576125.74249  -6670399.57047  21393600.5364   21393599.8884
      1378.9774
   6221342.22349   4842388.05547  21408699.4744   21408698.5674
     -2522.5024
  -3309282.33249  -2575012.67646  23652465.9424   23652464.9974
       384.1764
  -7352393.81649  -5729751.70747  22836510.1854   22836507.2244
       660.7894
  15468576.80949  12040360.64846  24353821.0054   24353822.3134
     -3955.4554
  -5414831.07849  -4218871.79347  23437413.2244   23437411.7554
      2678.9624
  -2817429.64149  -2196025.70747  21014673.0524   21014671.4384
       141.3984
 04  9 16 21 45  0.0010000  0  8G 3G 8G13G10G19G23G28G27
   1848794.45749   1442765.21947  23532009.0214   23532009.2204
     -1820.5954
  -8596764.59049  -6686481.80147  21389673.6384   21389672.5564
      1375.9234
   6259278.25449   4871948.55947  21415918.6384   21415916.8724
     -2529.0694
  -3314911.44949  -2579399.01247  23651395.2944   23651393.6814
       375.2744
  -7362184.87949  -5737381.09847  22834646.7554   22834644.0604
       652.7374
  15527935.82849  12086614.29746  24365117.7634   24365117.8684
     -3957.2684
  -5454968.12949  -4250147.36747  23429775.3564   23429774.8374
      2675.8034
  -2819509.21549  -2197646.17248  21014277.2314   21014275.7784
       138.6384
 04  9 16 21 45 15.0010000  0  8G 3G 8G13G10G19G23G28G27
   1876230.20349   1464143.73047  23537229.2084   23537229.4274
     -1829.0504
  -8617354.51649  -6702525.88748  21385755.6924   21385754.7984
      1372.6624
   6297316.01649   4901588.36348  21423157.0524   21423155.5174
     -2535.8514
  -3320403.78949  -2583678.76647  23650349.8564   23650348.8534
       366.1564
  -7371851.69949  -5744913.67247  22832807.7164   22832805.2634
       644.4554
  15587325.01649  12132891.49246  24376417.6304   24376418.8884
     -3959.2794
  -5495054.48849  -4281383.46147  23422146.5284   23422145.4194
      2672.4244
  -2821544.34449  -2199231.99248  21013890.2784   21013888.7244
       135.6754
 04  9 16 21 45 30.0010000  0  8G 3G 8G13G10G19G23G28G27
   1903794.09449   1485622.07047  23542474.8414   23542474.6614
     -1837.5934
  -8637893.51249  -6718530.29348  21381847.0214   21381846.0484
      1369.2664
   6335456.96949   4931308.56347  21430415.3024   21430413.6734
     -2542.7304
  -3325757.71149  -2587850.63347  23649330.8804   23649330.1494
       356.9284
  -7381392.47349  -5752348.03147  22830992.1224   22830989.6034
       636.0524
  15646745.68849  12179193.23846  24387726.2474   24387725.9034
     -3961.3784
  -5535088.50849  -4312578.75447  23414529.1384   23414527.9544
      2668.9354
  -2823533.21549  -2200781.75848  21013511.6224   21013510.3134
       132.5914
 04  9 16 21 45 45.0010000  0  8G 3G 8G13G10G19G23G28G27
   1931490.50049   1507203.65647  23547745.8334   23547744.9274
     -1846.4274
  -8658377.37949  -6734491.73448  21377948.9744   21377947.6774
      1365.5914
   6373705.32049   4961112.45747  21437693.4974   21437692.2904
     -2549.8904
  -3330968.61749  -2591911.07047  23648339.2944   23648338.8924
       347.3944
  -7390802.57849  -5759680.57047  22829201.6694   22829198.7514
       627.3404
  15706202.07449  12225522.77046  24399040.8494   24399040.8534
     -3963.7594
  -5575065.42249  -4343729.55547  23406921.7944   23406920.1854
      2665.1284
  -2825471.25049  -2202291.91448  21013142.6774   21013141.4464
       129.2024
 04  9 16 21 46  0.0010000  0  8G 3G 8G13G10G19G23G28G27
   1959312.74649   1528883.33647  23553040.0754   23553039.7864
     -1854.8164
  -8678812.15249  -6750414.92648  21374060.5604   21374059.5794
      1362.3184
   6412054.60249   4990994.99247  21444991.3174   21444989.8494
     -2556.6194
  -3336042.91049  -2595865.06247  23647374.0284   23647373.2434
       338.2864
  -7400088.32449  -5766916.19947  22827434.3024   22827431.6304
       619.0504
  15765687.56349  12271875.01246  24410359.7784   24410360.7904
     -3965.6994
  -5614991.51649  -4374840.76247  23399323.5444   23399322.1144
      2661.7404
  -2827364.85949  -2203767.45748  21012782.4194   21012781.1814
       126.2414
 04  9 16 21 46 15.0010000  0  8G 3G 8G13G10G19G23G28G27
   1987259.14149   1550659.74247  23558358.0054   23558358.2004
     -1863.0934
  -8699199.55149  -6766301.19948  21370180.8414   21370179.8024
      1359.1604
   6450502.69549   5020954.53547  21452307.5284   21452306.4814
     -2563.2064
  -3340982.03149  -2599713.73047  23646433.9114   23646433.0954
       329.2754
  -7409251.04749  -5774055.96147  22825690.5674   22825687.7634
       610.8484
  15825200.36349  12318248.55946  24421685.3334   24421685.2474
     -3967.5204
  -5654868.16449  -4405913.43047  23391734.8884   23391734.3064
      2658.4434
  -2829215.63749  -2205209.62148  21012430.4194   21012428.7744
       123.3854
 04  9 16 21 46 30.0010000  0  7G 3G 8G13G10G19G28G27
   2015339.45749   1572540.50047  23563702.1144   23563701.2984
     -1872.0214
  -8719529.38749  -6782142.62148  21366312.2244   21366311.2634
      1355.3224
   6489059.63749   5050998.88347  21459644.7314   21459643.2744
     -2570.4634
  -3345776.10249  -2603449.37547  23645521.0994   23645521.2714
       319.6054
  -7418280.56649  -5781091.93747  22823972.8174   22823969.0564
       601.9684
  -5694685.19949  -4436939.63347  23384158.1924   23384157.5324
      2654.4694
  -2831013.55149  -2206610.59448  21012088.0834   21012086.9584
       119.8614
 04  9 16 21 46 45.0010000  0  7G 3G 8G13G10G19G28G27
   2043545.97349   1594519.59847  23569069.0284   23569068.9784
     -1880.4344
  -8739809.17649  -6797945.04348  21362453.0134   21362451.7784
      1351.9864
   6527717.99249   5081122.25847  21467001.3254   21466999.7124
     -2577.2244
  -3350432.60249  -2607077.82047  23644635.3884   23644635.2554
       310.4334
  -7427184.20349  -5788029.82047  22822278.5524   22822274.8374
       593.5764
  -5734450.21149  -4467925.31647  23376591.3024   23376590.0364
      2651.0014
  -2832766.13349  -2207976.24648  21011754.5994   21011753.2244
       116.8394
 04  9 16 21 47  0.0010000  0  7G 3G 8G13G10G19G28G27
   2071879.14549   1616597.37147  23574460.8254   23574461.4974
     -1888.8784
  -8760038.18749  -6813707.90648  21358603.7714   21358602.5324
      1348.6014
   6566478.36349   5111325.12947  21474377.2944   21474375.5484
     -2584.0254
  -3354950.68749  -2610598.41047  23643775.7244   23643775.1304
       301.2064
  -7435961.06649  -5794868.92247  22820607.6774   22820604.8024
       585.1244
  -5774162.01649  -4498869.55147  23369034.2004   23369033.0564
      2647.4544
  -2834472.31249  -2209305.74248  21011429.8254   21011428.3104
       113.7454
 04  9 16 21 47 15.0010000  0  7G 3G 8G13G10G19G28G27
   2100344.53149   1638778.16847  23579877.2474   23579877.9934
     -1897.6924
  -8780210.70349  -6829426.74247  21354764.9354   21354763.3844
      1344.8344
   6605345.97749   5141611.55947  21481773.3334   21481771.6224
     -2591.1744
  -3359324.79749  -2614006.80547  23642942.8964   23642942.5634
       291.6074
  -7444605.47749  -5801604.79347  22818962.9584   22818960.2204
       576.2944
  -5813815.09049  -4529768.02747  23361488.5284   23361487.6614
      2643.5384
  -2836126.81649  -2210594.96148  21011114.9354   21011113.2594
       110.3004
 04  9 16 21 47 30.0010000  0  7G 3G 8G13G10G19G28G27
   2128943.87549   1661063.37147  23585320.1224   23585320.2554
     -1906.6234
  -8800324.65249  -6845099.94547  21350937.2004   21350936.1344
      1340.9304
   6644322.71949   5171983.02047  21489190.3254   21489188.7904
     -2598.4494
  -3363552.84849  -2617301.37947  23642138.6224   23642138.2164
       281.8704
  -7453115.20749  -5808235.73447  22817343.6064   22817341.1344
       567.3154
  -5853407.23049  -4560618.99647  23353953.9814   23353953.5174
      2639.4764
  -2837727.28149  -2211842.08648  21010810.7084   21010809.1534
       106.6984
 04  9 16 21 47 45.0010000  0  7G 3G 8G13G10G19G28G27
   2157679.41049   1683454.68847  23590787.8884   23590788.6614
     -1915.7024
  -8820377.44949  -6860725.49248  21347121.6064   21347119.9744
      1336.8534
   6683410.80549   5202441.25447  21496628.8644   21496626.9744
     -2605.8724
  -3367632.50849  -2620480.33247  23641361.8964   23641361.9074
       271.9774
  -7461487.74249  -5814759.77047  22815750.1614   22815747.4704
       558.1694
  -5892935.91049  -4591420.51647  23346432.4894   23346431.3254
      2635.2454
  -2839271.44949  -2213045.33248  21010516.3564   21010515.3994
       102.9454
 04  9 16 21 48  0.0010000  0  7G 3G 8G13G10G19G28G27
   2186546.55549   1705948.55547  23596281.0834   23596281.3134
     -1924.4764
  -8840373.58249  -6876306.89548  21343316.4584   21343314.6304
      1333.0764
   6722605.72749   5232982.73047  21504087.2714   21504085.6034
     -2612.9954
  -3371567.92249  -2623546.89547  23640613.8414   23640612.1774
       262.3614
  -7469727.11349  -5821180.03947  22814182.1534   22814179.1104
       549.2914
  -5932405.31249  -4622175.87547  23338921.7244   23338919.9424
      2631.2934
  -2840763.44549  -2214207.93048  21010232.8024   21010231.5794
        99.4664
 04  9 16 21 48 15.0010000  0  7G 3G 8G13G10G19G28G27
   2215544.03149   1728543.98446  23601798.6614   23601799.4424
     -1933.1654
  -8860313.79749  -6891844.71948  21339521.6694   21339520.4624
      1329.3484
   6761906.27349   5263606.52347  21511565.8644   21511564.4034
     -2620.0364
  -3375360.26649  -2626501.96547  23639891.8334   23639890.8024
       252.8234
  -7477834.16449  -5827497.20747  22812639.5054   22812635.8564
       540.4704
  -5971816.31249  -4652885.70347  23331421.9274   23331421.0444
      2627.4004
  -2842204.32049  -2215330.68748  21009958.7944   21009957.1884
        96.0584
 04  9 16 21 48 30.0010000  0  7G 3G 8G13G10G19G28G27
   2244673.08649   1751241.93046  23607342.4354   23607342.7354
     -1941.9374
  -8880196.85549  -6907338.00448  21335738.2164   21335737.1964
      1325.5374
   6801313.61349   5294313.52747  21519064.8414   21519063.3294
     -2627.1564
  -3379008.15649  -2629344.47747  23639197.4274   23639196.7984
       243.1934
  -7485807.57849  -5833710.23447  22811122.2244   22811118.9274
       531.5614
  -6011167.46949  -4683548.91047  23323933.6924   23323932.4034
      2623.4104
  -2843592.80549  -2216412.62948  21009694.3564   21009693.2204
        92.5664
 04  9 16 21 48 45.0010000  0  7G 3G 8G13G10G19G28G27
   2273939.05149   1774046.57847  23612911.8964   23612912.1224
     -1951.0644
  -8900017.17649  -6922782.39848  21331966.5214   21331965.7004
      1321.3554
   6840833.20349   5325107.99647  21526585.2944   21526583.6814
     -2634.6394
  -3382505.91049  -2632070.00047  23638532.3414   23638531.7714
       233.1844
  -7493641.57849  -5839814.62547  22809631.7714   22809628.7714
       522.2674
  -6050452.94549  -4714160.93047  23316457.5994   23316456.1654
      2619.0324
  -2844923.14849  -2217449.25848  21009441.3644   21009439.7824
        88.6904
 04  9 16 21 49  0.0010000  0  7G 3G 8G13G10G19G28G27
   2303335.68849   1796953.03547  23618505.2554   23618505.6384
     -1959.7764
  -8919780.52049  -6938182.40248  21328205.7714   21328204.7824
      1317.5564
   6880458.93049   5355985.16847  21534125.7244   21534124.3024
     -2641.7154
  -3385859.46549  -2634683.15647  23637893.9034   23637893.3174
       223.5704
  -7501341.93049  -5845814.87147  22808166.1304   22808163.4234
       513.3574
  -6089678.64149  -4744726.38747  23308993.1384   23308992.3254
      2615.0464
  -2846201.32449  -2218445.24648  21009197.8884   21009196.4894
        85.2124
 04  9 16 21 49 15.0010000  0  7G 3G 8G13G10G19G28G27
   2332860.46949   1819959.34447  23624123.9274   23624124.1184
     -1968.3194
  -8939489.25849  -6953539.85247  21324455.0994   21324454.1694
      1313.9164
   6920188.19949   5386943.02047  21541685.6614   21541684.7744
     -2648.6184
  -3389071.25849  -2637185.85947  23637282.4114   23637282.1304
       214.1204
  -7508910.81649  -5851712.68047  22806725.8174   22806723.6534
       504.5924
  -6128846.90649  -4775247.07047  23301539.8804   23301539.1464
      2611.2184
  -2847429.71549  -2219402.43748  21008964.6464   21008962.7904
        81.8934
 04  9 16 21 49 30.0010000  0  7G 3G 8G13G10G19G28G27
   2362513.38749   1843065.50447  23629766.6224   23629766.3564
     -1976.8614
  -8959142.96149  -6968854.42248  21320714.9664   21320714.2514
      1310.2474
   6960021.19949   5417981.69547  21549265.6304   21549264.5364
     -2655.5334
  -3392140.94149  -2639577.81247  23636698.1774   23636697.8844
       204.6464
  -7516347.78549  -5857507.70347  22805310.7314   22805307.7284
       495.7984
  -6167957.35549  -4805722.70747  23294097.4194   23294096.5094
      2607.3634
  -2848607.85549  -2220320.46948  21008740.3564   21008738.4274
        78.5434
 04  9 16 21 49 45.0010000  0  7G 3G 8G13G10G19G28G27
   2392293.41449   1866270.70347  23635433.4424   23635433.1574
     -1985.3354
  -8978742.26649  -6984126.60248  21316985.6064   21316984.4544
      1306.6204
   6999956.90649   5449100.39847  21556865.4034   21556863.9114
     -2662.3804
  -3395069.34049  -2641859.68747  23636141.0834   23636139.5874
       195.2274
  -7523653.64149  -5863200.55947  22803920.5674   22803917.1224
       487.0574
  -6207010.44949  -4836153.65647  23286665.8564   23286665.2204
      2603.5404
  -2849736.57049  -2221199.98848  21008525.3104   21008523.8024
        75.2484
 04  9 16 21 50  0.0010000  0  7G 3G 8G13G10G19G28G27
   2422197.68049   1889572.71546  23641123.9114   23641123.4584
     -1993.6184
  -8998290.19149  -6999358.74248  21313265.8024   21313264.4744
      1303.1954
   7039992.45749   5480296.91847  21564483.5994   21564482.1964
     -2669.0374
  -3397859.08649  -2644033.52747  23635610.7084   23635609.1924
       185.9834
  -7530830.90649  -5868793.21147  22802553.7944   22802551.5634
       478.4844
  -6246008.77749  -4866541.93747  23279244.2474   23279242.9424
      2599.8894
  -2850818.60949  -2222043.14148  21008319.8024   21008317.6144
        72.1364
 04  9 16 21 50 15.0010000  0  7G 3G 8G13G10G19G28G27
   2452192.76649   1912945.50047  23646832.1384   23646831.1384
     -1999.6724
  -9017819.66849  -7014576.51648  21309549.4034   21309548.2244
      1301.9654
   7080094.23049   5511545.02347  21572114.9814   21572113.4154
     -2673.4524
  -3400543.39849  -2646125.18447  23635099.3494   23635098.8104
       178.9544
  -7537912.66449  -5874311.44147  22801206.6854   22801204.0524
       472.1174
  -6284985.64149  -4896913.50047  23271827.3724   23271826.4814
      2598.4584
  -2851887.16849  -2222875.77748  21008116.2084   21008114.4854
        71.2374
 04  9 16 21 50 30.0010000  0  7G 3G 8G13G10G19G28G27
   2482280.16049   1936390.21147  23652557.6384   23652556.5484
     -2005.8264
  -9037329.09049  -7029778.65248  21305836.8964   21305835.9464
      1300.6284
   7120263.89849   5542846.04747  21579759.0444   21579757.6224
     -2677.9784
  -3403120.64849  -2648133.44547  23634609.1224   23634608.2904
       171.8174
  -7544897.08649  -5879753.82847  22799878.0284   22799875.1184
       465.6284
  -6323938.91849  -4927266.66447  23264415.0834   23264414.0794
      2596.8854
  -2852940.46149  -2223696.52048  21007915.6064   21007913.8534
        70.2204
 04  9 16 21 50 45.0010000  0  7G 3G 8G13G10G19G28G27
   2512492.17249   1959932.02347  23658307.2784   23658306.0134
     -2014.1344
  -9056785.73049  -7044939.67248  21302134.6464   21302133.5994
      1297.1094
   7160533.72349   5574225.10547  21587422.2714   21587421.0444
     -2684.6554
  -3405558.46149  -2650033.02347  23634144.9894   23634144.2594
       162.5214
  -7551751.58249  -5885094.98447  22798572.8884   22798571.2354
       456.9664
  -6362836.00049  -4957576.04347  23257013.2244   23257012.2354
      2593.1394
  -2853945.87149  -2224479.95748  21007724.0134   21007722.6494
        67.0274
 04  9 16 21 51  0.0010000  0  7G 3G 8G13G10G19G28G27
   2542828.71149   1983570.88747  23664080.1384   23664078.7674
     -2022.4364
  -9076189.30949  -7060059.34048  21298441.9894   21298441.1064
      1293.5724
   7200903.81349   5605682.29347  21595104.1924   21595102.5214
     -2691.3394
  -3407856.45349  -2651823.68047  23633707.4424   23633707.0874
       153.1994
  -7558475.59449  -5890334.44547  22797293.2244   22797291.4624
       448.2674
  -6401676.55549  -4987841.39147  23249621.9584   23249621.0794
      2589.3704
  -2854903.08249  -2225225.83248  21007542.0604   21007540.2124
        63.8144
 04  9 16 21 51 15.0010000  0  7G 3G 8G13G10G19G28G27
   2573286.96949   2007304.57047  23669875.8174   23669875.4314
     -2030.5514
  -9095542.55149  -7075139.77748  21294759.0214   21294757.8454
      1290.2164
   7241371.22349   5637215.32447  21602804.9354   21602803.6144
     -2697.8274
  -3410017.22349  -2653507.38747  23633296.7394   23633296.2124
       144.0514
  -7565071.78149  -5895474.31247  22796037.9814   22796035.8334
       439.7464
  -6440463.28949  -5018064.78147  23242241.5524   23242240.0714
      2585.7824
  -2855814.85549  -2225936.31248  21007368.3964   21007367.2284
        60.7854
 04  9 16 21 51 30.0010000  0  7G 3G 8G13G10G19G28G27
   2603869.04349   2031134.74247  23675694.9584   23675694.7944
     -2038.8054
  -9114843.07849  -7090179.14548  21291086.6224   21291084.9154
      1286.7024
   7281938.21549   5668825.94547  21610524.6224   21610523.3024
     -2704.4664
  -3412038.64149  -2655082.53147  23632911.5214   23632911.8024
       134.7614
  -7571537.61749  -5900512.60547  22794807.7244   22794804.7314
       431.0564
  -6479193.81649  -5048244.37147  23234870.9664   23234869.9544
      2582.0354
  -2856678.77349  -2226609.48848  21007204.1774   21007202.7594
        57.5954
 04  9 16 21 51 45.0010000  0  7G 3G 8G13G10G19G28G27
   2634574.46149   2055061.03147  23681537.9424   23681537.6534
     -2047.0284
  -9134091.00449  -7105177.52348  21287423.8174   21287422.4354
      1283.1954
   7322604.41849   5700513.87947  21618263.3104   21618261.5094
     -2711.0804
  -3413920.77349  -2656549.14147  23632553.8414   23632553.2164
       125.4764
  -7577873.07449  -5905449.32047  22793602.0134   22793598.9544
       422.3644
  -6517868.05149  -5078380.11347  23227511.2244   23227510.5094
      2578.2824
  -2857494.97349  -2227245.48448  21007048.9894   21007047.6104
        54.4134
 04  9 16 21 52  0.0010000  0  7G 3G 8G13G10G19G28G27
   2665407.48049   2079086.73447  23687405.1384   23687404.8334
     -2055.5354
  -9153281.84849  -7120131.42248  21283771.7244   21283770.4154
      1279.3904
   7363374.10949   5732282.44947  21626021.2714   21626019.7744
     -2717.9794
  -3415659.18749  -2657903.75047  23632223.1534   23632222.6574
       115.8944
  -7584073.68749  -5910280.94147  22792422.3024   22792419.6654
       413.3744
  -6556481.44549  -5108468.43047  23220163.4424   23220162.5754
      2574.2264
  -2858258.98849  -2227840.82448  21006903.4664   21006902.6854
        50.9344
 04  9 16 21 52 15.0010000  0  7G 3G 8G13G10G19G28G27
   2696368.02049   2103211.82047  23693297.0914   23693297.2514
     -2064.0364
  -9172415.29749  -7135040.59448  21280130.8884   21280129.4894
      1275.5634
   7404247.16449   5764131.56347  21633799.2554   21633797.9854
     -2724.8704
  -3417253.78949  -2659146.30547  23631919.2314   23631919.3254
       106.3074
  -7590139.23849  -5915007.32447  22791267.9894   22791266.0564
       404.3704
  -6595033.73449  -5138509.15647  23212826.9814   23212826.0914
      2570.1534
  -2858970.57849  -2228395.30548  21006768.0994   21006766.4894
        47.4394
 04  9 16 21 52 30.0010000  0  7G 3G 8G13G10G19G28G27
   2727453.46149   2127434.22347  23699212.3024   23699212.6304
     -2072.3634
  -9191493.54349  -7149906.75048  21276500.0604   21276498.9584
      1271.8834
   7445221.08249   5796059.27747  21641596.3644   21641594.9894
     -2731.5954
  -3418706.85549  -2660278.55147  23631643.7784   23631642.5244
        96.8714
  -7596071.83249  -5919630.10547  22790139.0214   22790137.0524
       395.5064
  -6633527.12549  -5168503.96547  23205502.0994   23205500.7714
      2566.2264
  -2859631.94949  -2228910.65248  21006642.2554   21006640.8174
        44.0914
 04  9 16 21 52 45.0010000  0  7G 3G 8G13G10G19G28G27
   2758666.12149   2151755.75447  23705152.2784   23705151.8254
     -2080.8444
  -9210513.99249  -7164727.86348  21272880.6384   21272879.4154
      1268.0304
   7486298.08249   5828067.30147  21649413.0674   21649411.7164
     -2738.4674
  -3420015.93449  -2661298.61747  23631394.0054   23631393.3174
        87.2724
  -7601868.94149  -5924147.31247  22789035.9114   22789033.6104
       386.4744
  -6671959.06649  -5198450.89147  23198188.9664   23198187.8254
      2562.1294
  -2860240.78549  -2229385.07048  21006526.0284   21006524.8684
        40.5894
 04  9 16 21 53  0.0010000  0  7G 3G 8G13G10G19G28G27
   2790003.72349   2176174.66447  23711115.5524   23711115.1494
     -2089.1734
  -9229478.75049  -7179505.59448  21269271.8174   21269270.6614
      1264.3174
   7527476.09049   5860154.04347  21657248.9354   21657247.7004
     -2745.2014
  -3421183.16449  -2662208.15647  23631171.4664   23631171.2124
        77.8154
  -7607532.40649  -5928560.40247  22787958.5054   22787955.6064
       377.5644
  -6710331.36749  -5228351.36347  23190886.6064   23190885.4314
      2558.1534
  -2860798.97749  -2229820.03548  21006420.1534   21006418.6884
        37.2134
 04  9 16 21 53 15.0010000  0  7G 3G 8G13G10G19G28G27
   2821466.05149   2200690.74647  23717103.1464   23717102.3454
     -2097.4894
  -9248387.90649  -7194240.00848  21265673.8254   21265672.4504
      1260.6104
   7568754.95749   5892319.38747  21665103.8884   21665102.7044
     -2751.9244
  -3422208.48449  -2663007.09047  23630976.3414   23630975.8964
        68.3554
  -7613062.01249  -5932869.17647  22786906.2944   22786903.1034
       368.6404
  -6748643.77749  -5258205.16847  23183595.9814   23183594.7314
      2554.1614
  -2861306.39149  -2230215.42248  21006323.3804   21006322.2084
        33.8284
 04  9 16 21 53 30.0010000  0  7G 3G 8G13G10G19G28G27
   2853050.25049   2225301.80147  23723112.8964   23723112.9784
     -2105.6134
  -9267243.87549  -7208932.96548  21262085.2314   21262083.9894
      1257.0654
   7610131.71949   5924560.98847  21672978.1464   21672976.6304
     -2758.4514
  -3423094.52749  -2663697.52747  23630807.7164   23630807.7714
        59.0704
  -7618460.45349  -5937075.73447  22785878.4744   22785876.1464
       359.8964
  -6786898.94149  -5288014.35547  23176315.6694   23176315.0954
      2550.3444
  -2861765.75449  -2230573.36348  21006236.4814   21006234.7164
        30.6244
 04  9 16 21 53 45.0010000  0  7G 3G 8G13G10G19G28G27
   2884755.27749   2250007.00447  23729146.4274   23729146.6034
     -2113.6684
  -9286047.35949  -7223585.02048  21258507.2784   21258505.9814
      1253.5664
   7651605.42649   5956878.13747  21680870.1854   21680868.8214
     -2764.9144
  -3423842.10249  -2664280.04347  23630665.7164   23630665.1694
        49.8384
  -7623728.26249  -5941180.51647  22784876.4584   22784873.9894
       351.1874
  -6825097.49249  -5317779.41847  23169047.0914   23169045.7394
      2546.5704
  -2862177.71549  -2230894.37948  21006157.9194   21006156.2084
        27.4644
 04  9 16 21 54  0.0010000  0  7G 3G 8G13G10G19G28G27
   2916584.45349   2274808.93447  23735203.4194   23735203.3294
     -2121.9454
  -9304794.71949  -7238193.34448  21254939.8884   21254938.1734
      1249.8244
   7693179.58649   5989273.56347  21688781.5754   21688780.2084
     -2771.6114
  -3424447.59049  -2664751.85547  23630549.8804   23630550.1854
        40.3664
  -7628861.74649  -5945180.61347  22783898.8884   22783897.2984
       342.2324
  -6863235.75849  -5347497.52047  23161790.0214   23161788.8254
      2542.5514
  -2862538.67249  -2231175.64148  21006089.2474   21006087.3964
        24.0644
 04  9 16 21 54 15.0010000  0  7G 3G 8G13G10G19G28G27
   2948539.13349   2299708.65647  23741284.2474   23741284.4784
     -2130.3124
  -9323484.42649  -7252756.75048  21251383.0214   21251382.1064
      1245.9804
   7734855.50849   6021748.29347  21696712.4974   21696710.5054
     -2778.3954
  -3424909.43749  -2665111.75047  23630462.4354   23630462.4664
        30.7904
  -7633859.21949  -5949074.75447  22782948.6464   22782946.1104
       333.1654
  -6901312.03149  -5377167.32047  23154543.6924   23154542.7594
      2538.4184
  -2862847.00449  -2231415.89848  21006030.5364   21006028.7284
        20.5554
 04  9 16 21 54 30.0010000  0  7G 3G 8G13G10G19G28G27
   2980618.32849   2324705.43447  23747388.1464   23747388.7904
     -2138.6134
  -9342117.10249  -7267275.70748  21247837.3494   21247836.1614
      1242.1784
   7776632.23449   6054301.56647  21704662.0994   21704660.5364
     -2785.1154
  -3425228.53549  -2665360.40247  23630402.1384   23630401.1144
        21.2734
  -7638721.34049  -5952863.40247  22782023.3804   22782020.8214
       324.1414
  -6939326.96549  -5406789.31247  23147309.8724   23147309.4384
      2534.3294
  -2863103.46549  -2231615.73848  21005981.8024   21005980.1384
        17.0974
 04  9 16 21 54 45.0010000  0  7G 3G 8G13G10G19G28G27
   3012821.46549   2349798.76247  23753516.0914   23753517.0604
     -2146.8764
  -9360693.08249  -7281750.48848  21244302.5444   21244301.4464
      1238.3994
   7818509.10949   6086932.86747  21712630.8884   21712629.4934
     -2791.7924
  -3425405.23049  -2665498.07047  23630368.2314   23630367.5834
        11.7804
  -7643448.27749  -5956546.73047  22781124.1064   22781120.3104
       315.1294
  -6977280.72349  -5436363.63747  23140087.3254   23140086.2904
      2530.2514
  -2863308.29349  -2231775.34448  21005942.9424   21005941.3534
        13.6554
 04  9 16 21 55  0.0010000  0  7G 3G 8G13G10G19G28G27
   3045150.78549   2374990.43447  23759668.2634   23759668.2944
     -2155.2884
  -9379209.87549  -7296179.15248  21240779.2944   21240777.8804
      1234.4534
   7860488.37149   6119643.95747  21720619.5284   21720618.1854
     -2798.6174
  -3425437.09849  -2665522.91447  23630362.7634   23630361.9894
         2.1244
  -7648037.56649  -5960122.78547  22780250.5214   22780247.5134
       305.9534
  -7015170.80149  -5465888.35247  23132876.7634   23132876.1264
      2526.0054
  -2863459.07449  -2231892.84048  21005914.1144   21005912.2864
        10.0524
 04  9 16 21 55 15.0010000  0  7G 3G 8G13G10G19G28G27
   3077605.51249   2400279.82447  23765844.9424   23765844.7394
     -2163.6484
  -9397667.70749  -7310561.87548  21237266.5994   21237265.4704
      1230.5224
   7902569.50049   6152434.43447  21728627.1694   21728625.8374
     -2805.4094
  -3425324.61749  -2665435.26247  23630384.1384   23630383.2944
        -7.4994
  -7652489.50849  -5963591.82047  22779403.2084   22779400.3104
       296.7964
  -7052997.54749  -5495363.71547  23125679.3414   23125678.0994
      2521.7834
  -2863556.19149  -2231968.52348  21005895.7714   21005894.2164
         6.4744
 04  9 16 21 55 30.0010000  0  7G 3G 8G13G10G19G28G27
   3110184.42649   2425665.98047  23772043.8254   23772043.6104
     -2171.9284
  -9416067.62549  -7324899.46948  21233765.3414   21233764.0174
      1226.6614
   7944751.26249   6185303.31347  21736654.1534   21736652.8764
     -2812.1174
  -3425068.80549  -2665235.94147  23630432.6064   23630432.5634
       -17.0544
  -7656805.03949  -5966954.56247  22778581.9744   22778579.2944
       287.7024
  -7090761.78149  -5524790.36347  23118492.8564   23118492.0174
      2517.6164
  -2863600.57849  -2232003.10248  21005886.8644   21005885.7824
         2.9594
 04  9 16 21 55 45.0010000  0  7G 3G 8G13G10G19G28G27
   3142888.15249   2451149.40647  23778266.8804   23778266.8804
     -2180.2484
  -9434408.71949  -7339191.22748  21230275.1774   21230274.0954
      1222.7404
   7987034.28149   6218251.10247  21744700.4354   21744698.9114
     -2818.8684
  -3424668.80949  -2664924.24647  23630509.0914   23630508.6614
       -26.6664
  -7660983.09849  -5970210.19147  22777787.6774   22777784.1424
       278.5374
  -7128462.59849  -5554167.59847  23111318.5444   23111317.7784
      2513.3884
  -2863591.26249  -2231995.84448  21005889.1064   21005887.2904
        -0.6214
 04  9 16 21 56  0.0010000  0  7G 3G 8G13G10G19G28G27
   3175717.48449   2476730.69146  23784514.1614   23784514.3884
     -2188.6224
  -9452689.78149  -7353436.19548  21226796.2314   21226794.5134
      1218.7384
   8029419.47349   6251278.50447  21752766.3024   21752764.8454
     -2825.6794
  -3424123.59849  -2664499.41447  23630612.5054   23630611.9234
       -36.3474
  -7665022.54349  -5973357.82047  22777018.7004   22777015.7984
       269.2964
  -7166098.71149  -5583494.39547  23104156.3884   23104155.5794
      2509.0744
  -2863527.19149  -2231945.91848  21005900.9974   21005899.3564
        -4.2714
 04  9 16 21 56 15.0010000  0  7G 3G 8G13G10G19G28G27
   3208671.56349   2502409.16447  23790785.4744   23790784.9664
     -2196.9394
  -9470911.64549  -7367635.04748  21223328.5834   21223327.2284
      1214.7914
   8071905.90249   6284384.78947  21760851.5134   21760849.8294
     -2832.4294
  -3423433.87149  -2663961.96147  23630744.1614   23630743.2204
       -45.9824
  -7668924.03949  -5976397.93047  22776275.9894   22776273.0444
       260.1004
  -7203670.70349  -5612771.24647  23097007.0754   23097006.1424
      2504.7994
  -2863409.05149  -2231853.86748  21005923.7314   21005922.2554
        -7.8764
 04  9 16 21 56 30.0010000  0  7G 3G 8G13G10G19G28G27
   3241748.22749   2528183.18847  23797079.6224   23797078.9354
     -2205.1114
  -9489075.92249  -7381789.02048  21219872.2474   21219870.8604
      1210.9524
   8114491.52349   6317568.35947  21768954.5754   21768953.6694
     -2839.0414
  -3422601.44949  -2663313.33647  23630902.1854   23630901.5134
       -55.4954
  -7672689.16049  -5979331.77347  22775558.7784   22775556.2044
       251.0084
  -7241180.31249  -5641999.48447  23089869.1304   23089868.1264
      2500.6414
  -2863238.52749  -2231720.98448  21005956.1464   21005954.5564
       -11.3684
 04  9 16 21 56 45.0010000  0  7G 3G 8G13G10G19G28G27
   3274947.96149   2554053.09047  23803397.7394   23803397.0484
     -2213.3164
  -9507181.77349  -7395897.46548  21216426.8334   21216425.1534
      1207.0574
   8157176.89849   6350829.66847  21777077.5214   21777076.1924
     -2845.6924
  -3421625.69149  -2662553.00047  23631087.9424   23631086.6224
       -65.0514
  -7676317.11349  -5982158.75047  22774869.0134   22774865.8494
       241.8644
  -7278626.68049  -5671178.44547  23082743.1614   23082742.1224
      2496.4244
  -2863014.88349  -2231546.71948  21005998.4194   21005997.0634
       -14.9104
 04  9 16 21 57  0.0010000  0  7G 3G 8G13G10G19G28G27
   3308269.09849   2580017.60547  23809738.2784   23809737.8924
     -2221.4094
  -9525230.71549  -7409961.57048  21212992.0054   21212990.9584
      1203.2634
   8199960.48849   6384167.50047  21785219.1384   21785217.4384
     -2852.2394
  -3420508.07049  -2661682.12947  23631300.5444   23631299.7004
       -74.5084
  -7679809.18749  -5984879.83247  22774204.9744   22774201.9894
       232.8054
  -7316011.14549  -5700309.15647  23075629.2164   23075628.6494
      2492.2984
  -2862739.49249  -2231332.12548  21006051.0284   21006049.3924
       -18.3594
 04  9 16 21 57 15.0010000  0  7G 3G 8G13G10G19G28G27
   3341709.58249   2606075.13747  23816101.7714   23816101.7044
     -2229.3664
  -9543224.20349  -7423982.46148  21209567.9584   21209567.0014
      1199.5664
   8242840.09049   6417580.16047  21793378.8104   21793377.2714
     -2858.6404
  -3419250.43749  -2660702.17247  23631540.2784   23631539.4624
       -83.8424
  -7683167.19549  -5987496.46547  22773565.5754   22773562.6384
       223.8674
  -7353335.40649  -5729392.96547  23068526.7084   23068525.7204
      2488.2844
  -2862414.29349  -2231078.72348  21006112.7784   21006111.2314
       -21.6804
 04  9 16 21 57 30.0010000  0  7G 3G 8G13G10G19G28G27
   3375272.05549   2632227.68446  23822488.6854   23822488.9034
     -2237.4984
  -9561159.46549  -7437957.99648  21206154.9744   21206153.7864
      1195.6844
   8285818.37149   6451069.69947  21801557.3334   21801556.0564
     -2865.2194
  -3417850.06249  -2659610.96547  23631806.0284   23631805.7714
       -93.3584
  -7686388.14549  -5990006.29747  22772952.3254   22772949.8024
       214.7304
  -7390596.39549  -5758427.46947  23061436.1854   23061435.2314
      2484.0664
  -2862036.04749  -2230783.99648  21006184.7864   21006183.5174
       -25.2164
 04  9 16 21 57 45.0010000  0  7G 3G 8G13G10G19G28G27
   3408957.58249   2658476.12546  23828898.6694   23828898.7434
     -2245.7024
  -9579035.23849  -7451887.15648  21202753.5214   21202752.3174
      1191.7184
   8328896.64549   6484637.16047  21809754.9814   21809753.3844
     -2871.8854
  -3416305.51249  -2658407.42247  23632099.9814   23632099.6884
      -102.9704
  -7689470.57449  -5992408.17647  22772366.1464   22772362.6384
       205.4954
  -7427792.69549  -5787411.56647  23054358.0364   23054357.0634
      2479.7534
  -2861603.59849  -2230447.02048  21006266.8494   21006265.3214
       -28.8304
 04  9 16 21 58  0.0010000  0  7G 3G 8G13G10G19G28G27
   3442762.56349   2684817.68046  23835331.3724   23835331.3924
     -2253.6654
  -9596854.78549  -7465772.51648  21199362.7784   21199361.1184
      1187.9704
   8372071.31349   6518279.73447  21817970.7474   21817969.0174
     -2878.3114
  -3414620.24249  -2657094.23047  23632420.6224   23632420.4034
      -112.3514
  -7692417.73449  -5994704.64547  22771805.1774   22771801.8494
       196.4774
  -7464927.48049  -5816347.73847  23047291.1224   23047290.3604
      2475.6524
  -2861120.23849  -2230070.37948  21006358.9194   21006357.4934
       -32.2244
 04  9 16 21 58 15.0010000  0  7G 3G 8G13G10G19G28G27
   3476686.51649   2711251.91446  23841786.9194   23841787.1384
     -2261.5974
  -9614617.93749  -7479613.93748  21195982.1144   21195980.7674
      1184.2104
   8415341.93049   6551997.07847  21826205.0134   21826203.8174
     -2884.7084
  -3412794.46949  -2655671.56247  23632768.6144   23632767.5954
      -121.7184
  -7695229.67649  -5996895.77347  22771270.3564   22771266.7944
       187.4634
  -7502000.89149  -5845236.07047  23040236.2864   23040235.2594
      2471.5614
  -2860585.87949  -2229653.99648  21006460.4894   21006458.9354
       -35.6244
 04  9 16 21 58 30.0010000  0  7G 3G 8G13G10G19G28G27
   3510732.59049   2737781.30546  23848265.4034   23848266.1344
     -2269.7384
  -9632321.44949  -7493408.87548  21192613.5524   21192611.5564
      1180.2344
   8458711.75849   6585791.72747  21834458.0214   21834456.5604
     -2891.3224
  -3410824.87549  -2654136.80547  23633143.1064   23633142.2244
      -131.3064
  -7697902.97749  -5998978.86747  22770761.2164   22770758.6734
       178.2204
  -7539009.45349  -5874073.88747  23033194.4504   23033192.5874
      2467.2384
  -2859997.30949  -2229195.36748  21006572.8174   21006571.3064
       -39.2384
 04  9 16 21 58 45.0010000  0  7G 3G 8G13G10G19G28G27
   3544897.66849   2764403.42646  23854767.3964   23854767.2784
     -2277.6724
  -9649968.19149  -7507159.57848  21189255.3964   21189254.1774
      1176.4494
   8502177.47749   6619661.09047  21842729.3964   21842727.6424
     -2897.7154
  -3408714.44149  -2652492.30947  23633544.5284   23633544.3214
      -140.6964
  -7700440.44949  -6000956.11347  22770278.3644   22770275.6694
       169.1654
  -7575955.99649  -5902863.36747  23026163.3334   23026162.5604
      2463.1034
  -2859357.40649  -2228696.74648  21006694.3414   21006692.6104
       -42.6604
 04  9 16 21 59  0.0010000  0  7G 3G 8G13G10G19G28G27
   3579180.09849   2791117.00046  23861290.9664   23861290.8254
     -2285.4954
  -9667559.41449  -7520867.02048  21185907.7084   21185906.1534
      1172.7484
   8545737.67649   6653604.08247  21851018.5214   21851017.1184
     -2904.0134
  -3406464.60949  -2650739.19547  23633973.0914   23633972.2744
      -149.9894
  -7702843.30149  -6002828.46147  22769821.2084   22769818.2314
       160.1904
  -7612841.62549  -5931605.38347  23019143.9424   23019143.0444
      2459.0424
  -2858667.32449  -2228159.01648  21006825.8104   21006824.4544
       -46.0054
 04  9 16 21 59 15.0010000  0  7G 3G 8G13G10G19G28G27
   3613579.99249   2817922.11347  23867836.8964   23867837.0634
     -2293.3264
  -9685094.70749  -7534530.88748  21182571.3024   21182569.5994
      1169.0204
   8589392.56649   6687620.84847  21859325.8964   21859324.4784
     -2910.3264
  -3404074.92249  -2648877.11747  23634427.6304   23634427.2164
      -159.3124
  -7705111.05149  -6004595.52347  22769389.4664   22769386.7634
       151.1834
  -7649665.85549  -5960299.55547  23012136.8254   23012135.2354
      2454.9494
  -2857926.79349  -2227581.98048  21006966.7164   21006965.3764
       -49.3694
 04  9 16 21 59 30.0010000  0  7G 3G 8G13G10G19G28G27
   3648097.93849   2844819.19147  23874405.6614   23874405.3924
     -2301.1964
  -9702573.26249  -7548150.53548  21179245.0604   21179243.7124
      1165.2374
   8633142.74649   6721711.87547  21867650.9354   21867649.4424
     -2916.6794
  -3401544.59049  -2646905.41847  23634909.1384   23634908.8104
      -168.6894
  -7707242.69949  -6006256.53147  22768984.1304   22768980.5484
       142.1104
  -7686427.75449  -5988945.15247  23005141.4814   23005139.6814
      2450.7934
  -2857134.74249  -2226964.79748  21007117.2714   21007116.3334
       -52.8034
 04  9 16 21 59 45.0010000  0  7G 3G 8G13G10G19G28G27
   3682733.61749   2871808.01247  23880996.5054   23880996.9504
     -2309.0454
  -9719994.98049  -7561725.89548  21175929.8494   21175928.4314
      1161.4484
   8676987.90649   6755876.91447  21875994.3254   21875992.7634
     -2923.0114
  -3398873.79349  -2644824.29347  23635417.6224   23635416.4624
      -178.0534
  -7709238.36749  -6007811.59047  22768604.6774   22768600.9274
       133.0454
  -7723127.41849  -6017542.27047  22998157.3804   22998155.7674
      2446.6444
  -2856291.29749  -2226307.56648  21007277.9034   21007276.3884
       -56.2304
 04  9 16 22  0  0.0010000  0  7G 3G 8G13G10G19G28G27
   3717485.47749   2898887.38746  23887609.4114   23887609.4314
     -2316.7914
  -9737360.99649  -7575257.84448  21172625.1384   21172624.0874
      1157.7344
   8720926.41049   6790114.68047  21884355.8414   21884354.2244
     -2929.2344
  -3396064.04749  -2642634.86347  23635951.9974   23635951.1574
      -187.3164
  -7711099.34449  -6009261.70747  22768250.2474   22768246.6654
       124.0654
  -7759766.06249  -6046091.83247  22991185.3104   22991183.5794
      2442.5764
  -2855397.73049  -2225611.28148  21007447.7164   21007446.5874
       -59.5714
 04  9 16 22  0 15.0010000  0  7G 3G 8G13G10G19G28G27
   3752357.94149   2926060.71146  23894245.7314   23894245.6424
     -2324.8314
  -9754666.80949  -7588742.89148  21169331.7004   21169330.5284
      1153.7214
   8764962.76649   6824428.69947  21892735.8024   21892734.3684
     -2935.7574
  -3393110.50449  -2640333.41447  23636514.0214   23636513.5874
      -196.9034
  -7712820.78149  -6010603.07447  22767922.3414   22767919.7594
       114.7634
  -7796338.75449  -6074590.00047  22984226.0284   22984224.8254
      2438.1794
  -2854449.32849  -2224872.26648  21007628.4744   21007626.7904
       -63.2274
 04  9 16 22  0 30.0010000  0  7G 3G 8G13G10G19G28G27
   3787349.14149   2953326.58647  23900904.4894   23900904.6534
     -2332.7474
  -9771913.85249  -7602182.14548  21166049.6774   21166048.5604
      1149.8034
   8809095.26649   6858817.63747  21901133.8494   21901132.5914
     -2942.1674
  -3390014.88749  -2637921.25047  23637102.8804   23637102.3764
      -206.3744
  -7714404.07449  -6011836.78947  22767620.9664   22767618.7714
       105.5534
  -7832846.89849  -6103037.87147  22977278.3964   22977277.0244
      2433.8764
  -2853447.55949  -2224091.66848  21007819.2244   21007817.6884
       -66.7854
 04  9 16 22  0 45.0010000  0  7G 3G 8G13G10G19G28G27
   3822460.57049   2980686.12947  23907585.7714   23907586.1654
     -2340.7624
  -9789100.15249  -7615574.05148  21162779.3254   21162778.0714
      1145.7534
   8853325.45749   6893282.69547  21909550.1304   21909549.5244
     -2948.6794
  -3386775.50449  -2635397.05547  23637719.5604   23637718.8884
      -215.9594
  -7715847.47349  -6012961.50847  22767346.6694   22767343.7904
        96.2274
  -7869288.78149  -6131434.12147  22970343.4744   22970341.9704
      2429.4594
  -2852390.63749  -2223268.09848  21008020.0754   21008018.3884
       -70.4614
 04  9 16 22  1  0.0010000  0  7G 3G 8G13G10G19G28G27
   3857694.97749   3008141.48447  23914290.9894   23914291.1424
     -2348.9604
  -9806222.64849  -7628916.25448  21159520.9274   21159519.9034
      1141.5004
   8897656.10949   6927826.03947  21917986.2084   21917985.3294
     -2955.3774
  -3383389.52749  -2632758.65247  23638363.4274   23638363.2394
      -225.7324
  -7717147.87549  -6013974.79347  22767098.9974   22767096.4504
        86.6934
  -7905661.22349  -6159776.24647  22963422.1774   22963421.1814
      2424.8294
  -2851275.47749  -2222399.13748  21008232.4504   21008230.7314
       -74.3444
 04  9 16 22  1 15.0010000  0  7G 3G 8G13G10G19G28G27
   3893048.16449   3035689.41047  23921018.5994   23921018.8564
     -2356.8794
  -9823285.09049  -7642211.66048  21156274.2314   21156272.8724
      1137.4964
   8942083.07049   6962444.42247  21926440.7474   21926439.5324
     -2961.7974
  -3379860.87549  -2630009.05947  23639035.4744   23639034.7044
      -235.2434
  -7718309.18049  -6014879.69947  22766878.3254   22766875.5324
        77.4204
  -7941968.05149  -6188067.24247  22956513.2864   22956512.0994
      2420.4554
  -2850106.06649  -2221487.91448  21008454.9114   21008453.9154
       -77.9614
 04  9 16 22  1 30.0010000  0  7G 3G 8G13G10G19G28G27
   3928521.88349   3063331.27347  23927769.1464   23927769.2084
     -2364.9154
  -9840285.60949  -7655458.81648  21153039.0834   21153038.0284
      1133.3684
   8986608.16049   6997139.26647  21934913.3334   21934912.8134
     -2968.3394
  -3376187.50449  -2627146.67647  23639734.5674   23639734.3764
      -244.8914
  -7719329.24649  -6015674.55947  22766684.0994   22766680.4354
        68.0044
  -7978207.06249  -6216305.42247  22949617.2944   22949615.8064
      2415.9344
  -2848880.20749  -2220532.69948  21008688.1534   21008686.6064
       -81.7244
 04  9 16 22  1 45.0010000  0  7G 3G 8G13G10G19G28G27
   3964115.74649   3091066.74247  23934542.3104   23934542.4544
     -2372.9244
  -9857224.24249  -7668657.74648  21149815.5524   21149814.7394
      1129.2424
   9031231.10949   7031910.37147  21943405.0054   21943403.9624
     -2974.8634
  -3372369.57449  -2624171.68747  23640460.5994   23640460.7554
      -254.5294
  -7720208.07049  -6016359.34447  22766516.5834   22766513.4814
        58.5884
  -8014378.31649  -6244490.78147  22942733.8494   22942732.9074
      2411.4174
  -2847597.93749  -2219533.52348  21008932.4194   21008930.7434
       -85.4854
 04  9 16 22  2  0.0010000  0  7G 3G 8G13G10G19G28G27
   3999831.55549   3118897.23047  23941338.9974   23941338.8724
     -2381.0544
  -9874098.85949  -7681806.79348  21146604.3174   21146603.6224
      1124.9744
   9075953.55949   7066759.00447  21951915.2864   21951914.5794
     -2981.4974
  -3368405.26649  -2621082.62147  23641215.5674   23641215.1574
      -264.2874
  -7720943.63349  -6016932.49647  22766377.0914   22766373.6574
        49.0384
  -8050479.72749  -6272621.71547  22935864.1464   22935862.9664
      2406.7614
  -2846257.32049  -2218488.89548  21009187.4664   21009185.8844
       -89.3744
 04  9 16 22  2 15.0010000  0  7G 3G 8G13G10G19G28G27
   4035666.74649   3146820.74247  23948157.8024   23948158.0674
     -2389.0134
  -9890911.44549  -7694907.50848  21143405.3104   21143404.9034
      1120.8394
   9120773.13749   7101683.32047  21960443.9664   21960443.0954
     -2987.9724
  -3364296.79749  -2617881.21147  23641997.0284   23641996.5914
      -273.8984
  -7721538.03949  -6017395.64847  22766264.0054   22766260.2354
        39.6274
  -8086513.27049  -6300699.77347  22929007.0364   22929005.9074
      2402.2364
  -2844860.32049  -2217400.32048  21009453.3564   21009451.7244
       -93.1334
 04  9 16 22  2 30.0010000  0  7G 3G 8G13G10G19G28G27
   4071618.64849   3174835.21147  23954998.7944   23954999.1734
     -2396.7934
  -9907664.65649  -7707961.95748  21140217.2004   21140216.2904
      1116.8814
   9165687.10249   7136681.19147  21968990.9664   21968989.5914
     -2994.2644
  -3360046.64849  -2614569.42247  23642805.8334   23642805.3994
      -283.3434
  -7721993.75449  -6017750.74247  22766176.9974   22766173.3644
        30.3814
  -8122481.39549  -6328726.85247  22922162.2714   22922161.4854
      2397.8754
  -2843409.56249  -2216269.85948  21009729.3804   21009727.7864
       -96.7174
 04  9 16 22  2 45.0010000  0  7G 3G 8G13G10G19G28G27
   4107687.16049   3202940.52047  23961863.2474   23961862.7784
     -2404.5674
  -9924358.44549  -7720970.09048  21137040.4114   21137039.7864
      1112.9194
   9210695.41449   7171752.59447  21977555.5284   21977554.6224
     -3000.5544
  -3355654.81649  -2611147.23047  23643641.3804   23643640.9384
      -292.7894
  -7722310.53949  -6017997.57847  22766116.5134   22766113.1464
        21.1194
  -8158383.96149  -6356702.85247  22915330.4584   22915329.4584
      2393.5044
  -2841904.81649  -2215097.32848  21010015.6854   21010013.9114
      -100.3164
 04  9 16 22  3  0.0010000  0  7G 3G 8G13G10G19G28G27
   4143873.35949   3231137.55147  23968748.4744   23968749.5634
     -2412.4134
  -9940991.28549  -7733930.73448  21133875.1534   21133873.8924
      1108.8564
   9255799.43049   7206898.54347  21986138.7314   21986137.8254
     -3006.9344
  -3351120.05149  -2607613.64847  23644504.2394   23644503.7904
      -302.3184
  -7722486.81249  -6018134.91847  22766082.9584   22766080.0014
        11.7524
  -8194219.40649  -6384626.54347  22908510.7714   22908509.6064
      2389.0304
  -2840344.50049  -2213881.50048  21010312.5444   21010311.1494
      -104.0214
 04  9 16 22  3 15.0010000  0  7G 3G 8G13G10G19G28G27
   4180177.46149   3259426.44546  23975657.2554   23975657.2984
     -2420.2734
  -9957562.13749  -7746843.08248  21130722.0444   21130720.5914
      1104.7234
   9300999.26249   7242119.17247  21994739.9814   21994738.7904
     -3013.3224
  -3346441.72349  -2603968.19147  23645394.2084   23645394.3684
      -311.8894
  -7722522.00849  -6018162.31647  22766076.2944   22766073.1734
         2.3464
  -8229986.98849  -6412497.35547  22901704.7314   22901704.0634
      2384.5054
  -2838728.17649  -2212622.01648  21010620.2314   21010618.8024
      -107.7554
 04  9 16 22  3 30.0010000  0  7G 3G 8G13G10G19G28G27
   4216598.78149   3287806.68047  23982588.4664   23982588.5564
     -2428.0884
  -9974071.42249  -7759707.45748  21127580.3334   21127578.8294
      1100.6194
   9346294.28149   7277413.95747  22003359.9814   22003358.5914
     -3019.6684
  -3341620.47349  -2600211.39147  23646312.0674   23646311.5054
      -321.4174
  -7722416.54749  -6018080.13747  22766096.6534   22766093.5834
        -7.0314
  -8265687.10549  -6440315.59847  22894911.4354   22894909.9814
      2380.0084
  -2837056.05549  -2211319.06648  21010938.4034   21010936.9034
      -111.4754
 04  9 16 22  3 45.0010000  0  7G 3G 8G13G10G19G28G27
   4253137.01249   3316278.01646  23989541.2634   23989541.6304
     -2435.8824
  -9990519.18449  -7772523.89148  21124450.2634   21124448.8884
      1096.5174
   9391684.27349   7312782.75847  22011997.3804   22011996.0714
     -3025.9994
  -3336656.39549  -2596343.28147  23647257.2784   23647256.0174
      -330.9394
  -7722170.45349  -6017888.37147  22766143.0054   22766140.0364
       -16.4064
  -8301319.63749  -6468081.18447  22888131.1854   22888129.2824
      2375.5024
  -2835328.32849  -2209972.79348  21011267.4274   21011265.6964
      -115.1824
 04  9 16 22  4  0.0010000  0  7G 3G 8G13G10G19G28G27
   4289790.52349   3344839.18847  23996516.1304   23996516.2124
     -2443.5674
 -10006907.03949  -7785293.64148  21121332.1614   21121330.5404
      1092.5244
   9437167.59049   7348224.28147  22020652.5054   22020651.1184
     -3032.2214
  -3331550.96149  -2592365.02747  23648228.8494   23648227.4034
      -340.3624
  -7721784.93749  -6017587.96147  22766216.4974   22766214.0524
       -25.7014
  -8336885.97349  -6495795.18447  22881362.4424   22881361.2394
      2371.0894
  -2833546.25049  -2208584.15248  21011606.1694   21011605.2204
      -118.8054
 04  9 16 22  4 15.0010000  0  7G 3G 8G13G10G19G28G27
   4326557.98049   3373489.12947  24003512.5914   24003512.7314
     -2451.1644
 -10023235.97749  -7798017.48448  21118224.5754   21118223.1534
      1088.5964
   9482742.90649   7383737.49247  22029324.8964   22029324.1964
     -3038.3544
  -3326305.44549  -2588277.62147  23649226.5364   23649226.1654
      -349.7014
  -7721261.14849  -6017179.81247  22766315.9034   22766313.5094
       -34.9194
  -8372387.05949  -6523458.32447  22874606.8024   22874605.7474
      2366.7394
  -2831710.86749  -2207153.98448  21011955.4744   21011954.2124
      -122.3594
 04  9 16 22  4 30.0010000  0  7G 3G 8G13G10G19G28G27
   4363443.26249   3402230.89847  24010531.8564   24010531.9544
     -2459.0194
 -10039501.37549  -7810691.81648  21115129.6694   21115128.1654
      1084.3604
   9528414.35249   7419325.61747  22038015.9504   22038014.6854
     -3044.7634
  -3320915.48449  -2584077.66447  23650252.9194   23650252.1424
      -359.3314
  -7720594.75449  -6016660.52747  22766442.8104   22766440.2004
       -44.4264
  -8407818.50449  -6551067.22347  22867864.3644   22867863.1774
      2362.0964
  -2829817.85549  -2205678.90248  21012315.6774   21012314.2434
      -126.2014
 04  9 16 22  4 45.0010000  0  7G 3G 8G13G10G19G28G27
   4400445.55549   3431063.84046  24017572.6464   24017572.7674
     -2466.8204
 -10055703.77749  -7823317.05948  21112046.6614   21112044.9624
      1080.1604
   9574180.93849   7454987.85947  22046724.9744   22046723.8454
     -3051.1064
  -3315381.81249  -2579765.69947  23651305.3494   23651305.0094
      -368.9114
  -7719786.22349  -6016030.49247  22766596.9034   22766594.1574
       -53.9024
  -8443180.80549  -6578622.23847  22861135.3494   22861133.9704
      2357.4874
  -2827867.74649  -2204159.34448  21012686.8564   21012685.2784
      -130.0074
 04  9 16 22  5  0.0010000  0  7G 3G 8G13G10G19G28G27
   4437563.22349   3459986.68846  24024636.7714   24024635.9664
     -2474.5114
 -10071844.75049  -7835894.43748  21108974.9114   21108973.8724
      1076.0654
   9620041.18049   7490723.09047  22055451.7864   22055450.5794
     -3057.3494
  -3309705.80949  -2575342.84847  23652385.5134   23652385.2984
      -378.4004
  -7718836.88349  -6015290.73447  22766777.9274   22766774.8134
       -63.2894
  -8478475.14149  -6606124.28547  22854418.6774   22854417.7744
      2352.9564
  -2825861.75049  -2202596.22748  21013068.5364   21013066.9664
      -133.7334
 04  9 16 22  5 15.0010000  0  7G 3G 8G13G10G19G28G27
   4474794.82849   3488998.32046  24031721.2314   24031720.6774
     -2482.1074
 -10087925.05549  -7848424.54348  21105914.8964   21105913.7864
      1072.0204
   9665993.68449   7526530.20747  22064196.4114   22064194.8454
     -3063.5004
  -3303888.68749  -2570810.03147  23653492.7164   23653491.9664
      -387.8084
  -7717747.69549  -6014442.01647  22766984.9034   22766981.9314
       -72.6124
  -8513702.57449  -6633574.20747  22847715.4274   22847714.3214
      2348.4964
  -2823800.91849  -2200990.38748  21013460.7714   21013459.1774
      -137.3894
 04  9 16 22  5 30.0010000  0  7G 3G 8G13G10G19G28G27
   4512140.43449   3518098.78146  24038827.9274   24038827.2204
     -2489.7074
 -10103944.44949  -7860907.18048  21102866.3964   21102865.1964
      1067.9604
   9712038.58649   7562409.33247  22072958.3884   22072957.0244
     -3069.6604
  -3297930.38749  -2566167.21547  23654626.3724   23654625.5674
      -397.2204
  -7716518.35949  -6013484.07847  22767218.7714   22767215.5834
       -81.9564
  -8548862.62949  -6660971.63347  22841024.4744   22841023.5014
      2344.0044
  -2821684.98049  -2199341.59848  21013863.2784   21013862.0054
      -141.0624
 04  9 16 22  5 45.0010000  0  7G 3G 8G13G10G19G28G27
   4549602.53549   3547290.01646  24045956.7554   24045956.2394
     -2497.4734
 -10119900.27049  -7873340.27748  21099830.1534   21099829.0244
      1063.7214
   9758178.39849   7598362.40647  22081738.7394   22081737.2434
     -3075.9874
  -3291828.19149  -2561412.26247  23655787.6924   23655786.7594
      -406.8134
  -7715146.05949  -6012414.75447  22767479.8644   22767476.2824
       -91.4874
  -8583952.56249  -6688314.39547  22834347.2314   22834345.9194
      2339.3294
  -2819511.12949  -2197647.68748  21014276.8174   21014275.2984
      -144.9234
 04  9 16 22  6  0.0010000  0  7G 3G 8G13G10G19G28G27
   4587178.21949   3576569.74646  24053107.3414   24053106.4194
     -2505.0464
 -10135794.85949  -7885725.66848  21096805.4584   21096804.4074
      1059.6394
   9804410.39149   7634387.31347  22090536.1854   22090534.9974
     -3082.1334
  -3285584.89149  -2556547.35947  23656975.4354   23656975.4664
      -416.2204
  -7713633.43049  -6011236.07047  22767768.0914   22767764.7084
      -100.8424
  -8618974.78949  -6715604.41847  22827682.4814   22827681.5564
      2334.8154
  -2817281.85949  -2195910.59848  21014701.1384   21014699.6814
      -148.6184
 04  9 16 22  6 15.0010000  0  7G 3G 8G13G10G19G28G27
   4624868.57449   3605938.84446  24060279.1854   24060279.0284
     -2512.6904
 -10151626.45749  -7898061.97748  21093792.8414   21093791.2864
      1055.4404
   9850735.65649   7670484.89547  22099351.6614   22099350.6814
     -3088.3514
  -3279199.08249  -2551571.40247  23658190.6464   23658190.8534
      -425.7214
  -7711978.96149  -6009946.85247  22768082.9584   22768079.6034
      -110.2984
  -8653927.93049  -6742840.59447  22821031.1614   22821030.1924
      2330.2094
  -2814995.79349  -2194129.24648  21015136.3644   21015134.6424
      -152.4044
 04  9 16 22  6 30.0010000  0  7G 3G 8G13G10G19G28G27
   4662672.83649   3635396.70346  24067472.7244   24067473.0794
     -2520.2844
 -10167395.88349  -7910349.83248  21090792.0444   21090790.9854
      1051.2954
   9897153.36749   7706654.50447  22108184.5834   22108183.6224
     -3094.5144
  -3272671.37949  -2546484.87947  23659432.7004   23659432.9074
      -435.1804
  -7710183.09849  -6008547.46947  22768424.2634   22768420.9664
      -119.7244
  -8688812.36349  -6770023.24647  22814392.9894   22814391.6534
      2325.6294
  -2812653.30149  -2192303.93048  21015581.8724   21015580.5604
      -156.1664
 04  9 16 22  6 45.0010000  0  7G 3G 8G13G10G19G28G27
   4700591.49649   3664943.68046  24074688.4274   24074688.6924
     -2527.9114
 -10183102.09449  -7922588.43448  21087803.1224   21087801.9934
      1047.0814
   9943664.15649   7742896.65247  22117035.3494   22117034.6344
     -3100.7194
  -3266000.89549  -2541287.09447  23660702.5834   23660702.2434
      -444.6994
  -7708244.90649  -6007037.18747  22768793.1614   22768790.0404
      -129.2134
  -8723627.04349  -6797151.54347  22807767.9424   22807766.4114
      2320.9794
  -2810253.51649  -2190433.96948  21016038.7314   21016037.2634
      -159.9864
 04  9 16 22  7  0.0010000  0  7G 3G 8G13G10G19G28G27
   4738625.03949   3694580.17246  24081925.4504   24081926.4424
     -2535.5704
 -10198744.25049  -7934777.12148  21084826.6534   21084825.5054
      1042.8104
   9990268.51249   7779211.70747  22125903.7864   22125903.3104
     -3106.9574
  -3259187.24649  -2535977.75447  23661999.2634   23661997.9504
      -454.2434
  -7706163.76249  -6005415.51247  22769188.8104   22769186.1924
      -138.7434
  -8758371.28149  -6824224.96147  22801156.3024   22801154.8214
      2316.2834
  -2807795.71149  -2188518.78948  21016506.3334   21016505.1184
      -163.8544
 04  9 16 22  7 15.0010000  0  7G 3G 8G13G10G19G28G27
   4776771.48049   3724304.66046  24089184.6694   24089186.0834
     -2543.0964
 -10214324.13749  -7946917.28548  21081861.9194   21081860.8414
      1038.6594
  10036964.49649   7815598.16047  22134790.0444   22134788.7904
     -3113.0664
  -3252232.14149  -2530558.19947  23663322.0134   23663321.5674
      -463.6744
  -7703941.35549  -6003683.75447  22769611.9814   22769608.4384
      -148.1604
  -8793046.68749  -6851244.72747  22794557.9974   22794556.6184
      2311.6944
  -2805281.53949  -2186559.69548  21016984.8334   21016983.6344
      -167.6114
 04  9 16 22  7 30.0010000  0  7G 3G 8G13G10G19G28G27
   4815032.60249   3754118.50446  24096465.7714   24096466.3924
     -2550.7414
 -10229839.54349  -7959007.21148  21078909.3884   21078908.3214
      1034.3604
  10083754.06649   7852057.55547  22143693.5214   22143692.7864
     -3119.3054
  -3245133.62949  -2525026.90647  23664673.5054   23664672.8414
      -473.2344
  -7701575.49249  -6001840.22347  22770062.1464   22770058.5674
      -157.7244
  -8827651.06649  -6878209.14147  22787972.8564   22787971.5874
      2306.9594
  -2802708.78549  -2184554.95348  21017474.6694   21017472.9034
      -171.5174
 04  9 16 22  7 45.0010000  0  7G 3G 8G13G10G19G28G27
   4853408.19949   3784021.54346  24103768.8254   24103769.2594
     -2558.3734
 -10245290.26649  -7971046.72348  21075969.3024   21075968.1264
      1030.0484
  10130636.92249   7888589.62147  22152615.1464   22152614.1694
     -3125.5244
  -3237891.74249  -2519383.88347  23666051.1614   23666050.5994
      -482.7924
  -7699066.07049  -5999884.83247  22770539.5674   22770536.6654
      -167.2954
  -8862184.26649  -6905118.09447  22781401.1464   22781399.8174
      2302.2134
  -2800077.44549  -2182504.55548  21017975.4814   21017973.5244
      -175.4234
 04  9 16 22  8  0.0010000  0  7G 3G 8G13G10G19G28G27
   4891893.22349   3814009.86346  24111092.1464   24111092.2354
     -2565.6684
 -10260681.41449  -7983039.81248  21073040.3564   21073039.3294
      1026.0774
  10177608.12149   7925190.53547  22161553.5134   22161552.8564
     -3131.4134
  -3230511.41849  -2513632.97347  23667455.5994   23667454.9854
      -492.0224
  -7696417.77349  -5997821.21147  22771043.5674   22771040.6534
      -176.5534
  -8896650.86749  -6931975.16447  22774842.5444   22774841.0524
      2297.7734
  -2797392.19149  -2180412.14848  21018486.0134   21018484.4744
      -179.0174
 04  9 16 22  8 15.0010000  0  7G 3G 8G13G10G19G28G27
   4930488.05149   3844083.72346  24118436.7084   24118436.3884
     -2572.9894
 -10276011.68749  -7994985.48448  21070123.2474   21070121.7864
      1022.0184
  10224668.00849   7961860.54747  22170508.9584   22170507.3374
     -3137.3264
  -3222991.97749  -2507773.67647  23668886.5754   23668886.3494
      -501.2964
  -7693629.91849  -5995648.84847  22771574.5914   22771571.5094
      -185.8574
  -8931050.04749  -6958779.69547  22768296.6464   22768295.3924
      2293.2794
  -2794652.23849  -2178277.12548  21019007.4354   21019005.9274
      -182.6644
 04  9 16 22  8 30.0010000  0  7G 3G 8G13G10G19G28G27
   4969195.26249   3874245.17246  24125802.2084   24125802.3724
     -2580.4814
 -10291278.16449  -8006881.43448  21067218.0054   21067216.6884
      1017.7654
  10271819.30949   7998601.80547  22179481.3024   22179480.4074
     -3143.4204
  -3215330.67649  -2501803.83647  23670344.3884   23670344.0054
      -510.7534
  -7690699.57849  -5993365.46147  22772131.6924   22772129.1264
      -195.3564
  -8965378.97749  -6985529.48847  22761763.9584   22761762.3684
      2288.5954
  -2791854.67249  -2176097.19948  21019539.9424   21019538.3644
      -186.5044
 04  9 16 22  8 45.0010000  0  7G 3G 8G13G10G19G28G27
   5008014.24249   3904493.71146  24133189.3334   24133190.0714
     -2587.9324
 -10306481.49649  -8018728.18448  21064325.0364   21064323.5214
      1013.5554
  10319061.44949   8035413.84847  22188471.4354   22188470.2004
     -3149.4764
  -3207527.94149  -2495723.79347  23671828.9034   23671828.6924
      -520.1824
  -7687627.03549  -5990971.26247  22772716.8104   22772713.2124
      -204.8364
  -8999637.88349  -7012224.70747  22755244.6144   22755243.3844
      2283.9274
  -2788999.71149  -2173872.55148  21020083.0754   21020081.8804
      -190.3314
 04  9 16 22  9  0.0010000  0  7G 3G 8G13G10G19G28G27
   5046944.32049   3934828.82446  24140598.2554   24140598.2124
     -2595.3394
 -10321621.85549  -8030525.85948  21061443.8024   21061442.2944
      1009.3574
  10366393.88749   8072296.25047  22197478.3564   22197477.4234
     -3155.4964
  -3199584.23849  -2489533.90647  23673341.5134   23673340.5244
      -529.5804
  -7684412.68449  -5988466.57447  22773328.4744   22773324.8454
      -214.2904
  -9033826.94549  -7038865.50447  22748738.8564   22748737.0324
      2279.2714
  -2786087.73849  -2171603.48448  21020637.2474   21020636.0014
      -194.1324
 04  9 16 22  9 15.0010000  0  7G 3G 8G13G10G19G28G27
   5085985.61749   3965250.57446  24148026.9424   24148027.2004
     -2602.7534
 -10336698.59849  -8042273.96548  21058574.8174   21058573.5484
      1005.1164
  10413816.78949   8109249.12947  22206502.6854   22206501.7434
     -3161.5274
  -3191499.25849  -2483233.92647  23674880.3024   23674879.5674
      -538.9994
  -7681056.01249  -5985850.98047  22773967.2314   22773963.9154
      -223.7784
  -9067945.64149  -7065451.48047  22742245.8494   22742244.4664
      2274.5804
  -2783118.23849  -2169289.59048  21021202.3334   21021200.9744
      -197.9674
 04  9 16 22  9 30.0010000  0  7G 3G 8G13G10G19G28G27
   5125137.44149   3995758.47746  24155476.9194   24155477.9274
     -2610.1224
 -10351712.13349  -8053972.82448  21055717.3804   21055716.7554
      1000.9024
  10461329.43049   8146271.93047  22215544.1694   22215542.7394
     -3167.5094
  -3183273.57049  -2476824.29347  23676444.9894   23676444.8064
      -548.3794
  -7677557.43449  -5983124.81647  22774632.1694   22774629.6924
      -233.2394
  -9101994.37549  -7091982.93747  22735766.8254   22735765.5604
      2269.9164
  -2780091.57049  -2166931.14548  21021778.3174   21021777.0364
      -201.7784
 04  9 16 22  9 45.0010000  0  7G 3G 8G13G10G19G28G27
   5164400.79349   4026353.27046  24162948.8724   24162949.4504
     -2617.5574
 -10366661.10949  -8065621.36748  21052873.0214   21052871.9584
       996.5984
  10508932.71949   8183365.37947  22224602.3884   22224601.3494
     -3173.5534
  -3174906.02349  -2470304.12947  23678036.9034   23678036.7944
      -557.8364
  -7673915.67249  -5980287.05947  22775325.4424   22775322.8644
      -242.7844
  -9135971.84849  -7118458.84447  22729300.9974   22729299.4974
      2265.1654
  -2777006.54349  -2164527.23048  21022365.2864   21022363.8104
      -205.6684
 04  9 16 22 10  0.0010000  0  7G 3G 8G13G10G19G28G27
   5203775.15249   4057034.58246  24170441.3644   24170441.9974
     -2624.9574
 -10381545.65249  -8077219.70348  21050040.5444   21050039.5284
       992.3034
  10556626.38749   8220529.24247  22233678.6064   22233677.2204
     -3179.5784
  -3166397.03949  -2463673.75047  23679656.2314   23679655.7124
      -567.2664
  -7670130.82449  -5977337.83247  22776045.7864   22776042.8604
      -252.3234
  -9169878.08249  -7144879.26247  22722848.7944   22722847.6614
      2260.4164
  -2773863.13749  -2162077.81648  21022963.3254   21022962.1064
      -209.5604
 04  9 16 22 10 15.0010000  0  7G 3G 8G13G10G19G28G27
   5243260.45749   4087802.33246  24177955.0914   24177955.1854
     -2632.3544
 -10396365.36349  -8088767.52748  21047220.7634   21047219.4504
       987.9814
  10604410.50849   8257763.59847  22242771.7634   22242770.4504
     -3185.6084
  -3157746.30149  -2456932.91847  23681302.2944   23681301.7594
      -576.7164
  -7666202.68049  -5974276.94147  22776793.2944   22776789.8764
      -261.8764
  -9203712.66449  -7171243.84847  22716410.5604   22716409.6574
      2255.6394
  -2770661.06649  -2159582.69948  21023572.8724   21023571.4784
      -213.4714
 04  9 16 22 10 30.0010000  0  7G 3G 8G13G10G19G28G27
   5282856.54749   4118656.40246  24185490.4354   24185490.8964
     -2639.7394
 -10411120.03149  -8100264.66048  21044412.9504   21044411.4314
       983.6454
  10652284.88349   8295068.27347  22251881.9114   22251880.9584
     -3191.6254
  -3148953.93749  -2450081.74247  23682975.5524   23682974.5094
      -586.1584
  -7662131.03549  -5971104.23047  22777568.1694   22777565.1494
      -271.4434
  -9237475.45749  -7197552.48847  22709985.5994   22709984.0404
      2250.8534
  -2767400.12549  -2157041.70748  21024193.5444   21024191.6734
      -217.3964
 04  9 16 22 10 45.0010000  0  7G 3G 8G13G10G19G28G27
   5322566.79749   4149599.42246  24193046.9354   24193047.6964
     -2647.3504
 -10425806.18049  -8111708.41048  21041618.1304   21041616.6344
       979.0774
  10700252.67249   8332445.73847  22261009.8564   22261008.6494
     -3197.8534
  -3140016.53949  -2443117.53947  23684676.4974   23684675.9814
      -595.8274
  -7657912.33249  -5967816.92647  22778371.2864   22778367.5094
      -281.2474
  -9271162.77749  -7223802.32047  22703574.9194   22703573.6104
      2245.8214
  -2764076.67249  -2154452.01248  21024826.1464   21024824.1884
      -221.5644
 04  9 16 22 11  0.0010000  0  7G 3G 8G13G10G19G28G27
   5362386.98849   4180628.12146  24200624.6384   24200625.2164
     -2654.6794
 -10440427.35249  -8123101.53548  21038835.7714   21038834.8374
       974.7454
  10748310.10549   8369893.06647  22270154.8414   22270153.4384
     -3203.8294
  -3130937.81249  -2436043.20747  23686403.7244   23686403.4504
      -605.2484
  -7653550.34849  -5964417.97347  22779201.2784   22779198.0404
      -290.7994
  -9304778.25049  -7249996.16047  22697178.3564   22697177.2514
      2241.0324
  -2760694.46149  -2151816.52048  21025469.5914   21025467.5604
      -225.4814
 04  9 16 22 11 15.0010000  0  7G 3G 8G13G10G19G28G27
   5402318.14849   4211743.30146  24208222.5524   24208223.1884
     -2662.0774
 -10454982.03949  -8134442.84848  21036065.9814   21036064.7474
       970.3134
  10796458.19149   8407411.03547  22279316.9894   22279315.9544
     -3209.8724
  -3121716.63349  -2428857.87947  23688158.5754   23688158.2714
      -614.7454
  -7649043.74249  -5960906.32047  22780058.3024   22780055.7394
      -300.4404
  -9338320.62549  -7276133.04747  22690795.0524   22690794.0794
      2236.1584
  -2757252.09849  -2149134.16048  21026124.5054   21026122.6224
      -229.4914
 04  9 16 22 11 30.0010000  0  7G 3G 8G13G10G19G28G27
   5442359.80549   4242944.58246  24215842.3884   24215842.3644
     -2669.4444
 -10469470.80949  -8145732.79348  21033309.0604   21033307.7204
       965.9184
  10844696.42649   8444999.23847  22288496.6384   22288495.0094
     -3215.8824
  -3112353.44549  -2421561.89147  23689940.2314   23689939.8684
      -624.2124
  -7644392.77049  -5957282.18047  22780943.4664   22780941.2594
      -310.0654
  -9371790.00849  -7302213.05547  22684426.3334   22684425.0054
      2231.2924
  -2753749.85249  -2146405.13348  21026790.5604   21026789.0324
      -233.4834
 04  9 16 22 11 45.0010000  0  7G 3G 8G13G10G19G28G27
   5482510.28949   4274230.65646  24223483.7714   24223482.5284
     -2676.6994
 -10483894.74249  -8156972.21148  21030564.3564   21030562.9274
       961.5964
  10893023.21149   8482656.44147  22297693.0134   22297691.7864
     -3221.7864
  -3102849.60949  -2414156.31647  23691749.0444   23691748.3294
      -633.5894
  -7639598.61349  -5953546.47747  22781856.0054   22781853.3644
      -319.6104
  -9405187.56649  -7328237.09447  22678070.8414   22678069.6384
      2226.5044
  -2750188.98049  -2143630.43448  21027468.4424   21027466.6264
      -237.3914
 04  9 16 22 12  0.0010000  0  7G 3G 8G13G10G19G28G27
   5522772.49249   4305603.78546  24231144.5054   24231144.7314
     -2684.1474
 -10498250.53949  -8168158.54348  21027832.4194   21027831.1734
       957.0534
  10941441.39849   8520384.86747  22306906.6694   22306905.4314
     -3227.8794
  -3093202.21949  -2406638.88747  23693585.0524   23693584.1614
      -643.1594
  -7634658.22349  -5949696.83247  22782796.1924   22782792.8884
      -329.3594
  -9438510.11749  -7354202.69947  22671729.5994   22671728.6064
      2221.5034
  -2746566.22349  -2140807.50048  21028157.9894   21028156.4194
      -241.5174
 04  9 16 22 12 15.0010000  0  7G 3G 8G13G10G19G28G27
   5563146.32049   4337063.89146  24238827.5134   24238827.4544
     -2691.5894
 -10512537.83249  -8179291.49248  21025113.7314   21025112.6964
       952.4864
  10989951.06649   8558184.59047  22316137.6144   22316136.7904
     -3233.9784
  -3083411.02049  -2399009.37947  23695448.1614   23695446.9784
      -652.7474
  -7629571.28149  -5945732.98447  22783763.9894   22783760.6884
      -339.1294
  -9471757.36349  -7380109.59847  22665403.1614   22665401.5214
      2216.4834
  -2742881.23049  -2137936.08248  21028859.1064   21028857.5634
      -245.6664
 04  9 16 22 12 30.0010000  0  7G 3G 8G13G10G19G28G27
   5603633.05949   4368611.97346  24246531.9664   24246531.9034
     -2699.1164
 -10526755.03549  -8190369.83648  21022408.3564   21022406.9154
       947.8144
  11038553.43849   8596056.53947  22325386.2714   22325385.2594
     -3240.1584
  -3073474.74249  -2391266.84847  23697339.0054   23697338.2554
      -662.4184
  -7624336.27349  -5941653.75447  22784760.0524   22784756.8414
      -349.0014
  -9504927.57049  -7405956.50447  22659091.0834   22659089.2514
      2211.3474
  -2739132.44549  -2135014.95748  21029572.5054   21029571.2284
      -249.9194
 04  9 16 22 12 45.0010000  0  7G 3G 8G13G10G19G28G27
   5644229.43849   4400245.48846  24254257.3964   24254257.3334
     -2706.4254
 -10540905.07049  -8201395.83648  21019715.7004   21019714.5754
       943.3364
  11087245.47349   8633998.35247  22334652.3494   22334651.5564
     -3246.1364
  -3063396.48049  -2383413.66447  23699256.3334   23699255.8964
      -671.8844
  -7618956.08649  -5937461.39547  22785784.1614   22785780.5954
      -358.6794
  -9538023.64549  -7431745.61347  22652792.9974   22652791.2904
      2206.4054
  -2735322.69949  -2132046.31648  21030297.6534   21030296.0134
      -253.9834
 04  9 16 22 13  0.0010000  0  7G 3G 8G13G10G19G28G27
   5684938.00049   4431966.41046  24262004.1534   24262004.7944
     -2713.9044
 -10554985.02049  -8212367.21548  21017036.1854   21017034.8414
       938.6634
  11136029.78949   8672012.08247  22343935.5054   22343934.6064
     -3252.2884
  -3053173.47749  -2375447.69947  23701202.3104   23701201.5634
      -681.5344
  -7613427.77049  -5933153.62547  22786835.9814   22786832.8994
      -368.5544
  -9571042.53149  -7457474.58647  22646509.7554   22646507.8294
      2201.2594
  -2731449.11749  -2129027.94548  21031034.5524   21031032.9034
      -258.2394
 04  9 16 22 13 15.0010000  0  7G 3G 8G13G10G19G28G27
   5725758.62149   4463774.68846  24269772.0914   24269772.1494
     -2721.3754
 -10568994.70749  -8223283.84848  21014370.0674   21014368.8844
       933.9794
  11184906.16449   8710097.54347  22353236.3024   22353235.8724
     -3258.4254
  -3042805.65249  -2367368.88347  23703175.0604   23703174.2314
      -691.1884
  -7607751.24649  -5928730.35247  22787916.2474   22787913.5564
      -378.4354
  -9603984.04749  -7483143.27347  22640240.7474   22640239.5324
      2196.1014
  -2727511.44949  -2125959.63348  21031783.7314   21031782.4974
      -262.5114
 04  9 16 22 13 30.0010000  0  7G 3G 8G13G10G19G28G27
   5766687.84849   4495667.57046  24277560.8104   24277561.1344
     -2728.6154
 -10582936.84849  -8234147.85248  21011716.9424   21011716.0094
       929.4764
  11233871.30549   8748252.16847  22362554.3024   22362553.5634
     -3264.3434
  -3032296.36749  -2359179.84047  23705175.0994   23705173.6574
      -700.6194
  -7601929.78149  -5924194.14847  22789023.7634   22789021.3134
      -388.0984
  -9636851.22749  -7508754.02747  22633986.6384   22633984.9814
      2191.1454
  -2723512.75449  -2122843.77348  21032544.6224   21032543.1814
      -266.5804
 04  9 16 22 13 45.0010000  0  7G 3G 8G13G10G19G28G27
   5807727.67649   4527646.62547  24285370.3254   24285370.7394
     -2735.9894
 -10596809.36749  -8244957.59848  21009077.1774   21009075.9584
       924.8354
  11282927.17649   8786477.50047  22371889.0674   22371888.2004
     -3270.3914
  -3021643.39849  -2350878.82447  23707202.5134   23707201.2204
      -710.1984
  -7595960.89149  -5919543.06647  22790160.1064   22790156.6734
      -397.9264
  -9669641.79349  -7534305.09847  22627746.9194   22627745.1814
      2186.0384
  -2719450.77049  -2119678.59448  21033317.9744   21033316.4274
      -270.7994
 04  9 16 22 14  0.0010000  0  7G 3G 8G13G10G19G28G27
   5848878.84849   4559712.46146  24293200.7634   24293201.1224
     -2743.4114
 -10610610.95349  -8255712.07848  21006451.0284   21006449.3964
       920.1064
  11332074.55549   8824774.14147  22381241.6224   22381240.8024
     -3276.4924
  -3010845.82849  -2342465.14147  23709256.7084   23709256.1224
      -719.8384
  -7589843.55949  -5914776.31247  22791324.3884   22791320.5564
      -407.8224
  -9702354.59849  -7559795.56647  22621521.5054   22621520.7674
      2180.8544
  -2715324.26649  -2116463.14148  21034103.2394   21034101.6064
      -275.1004
 04  9 16 22 14 15.0010000  0  7G 3G 8G13G10G19G28G27
   5890136.31349   4591861.11346  24301052.2634   24301051.8454
     -2750.4984
 -10624346.44549  -8266415.05148  21003837.2314   21003835.9704
       915.6994
  11381308.45749   8863138.19147  22390610.7474   22390609.7594
     -3282.2604
  -2999908.56649  -2333942.60947  23711338.3024   23711337.4314
      -729.1514
  -7583582.67249  -5909897.69547  22792515.7944   22792512.4744
      -417.3924
  -9734994.32049  -7585229.09047  22615310.2944   22615309.5834
      2175.9824
  -2711138.11749  -2113201.20348  21034899.8104   21034898.5674
      -279.0774
 04  9 16 22 14 30.0010000  0  7G 3G 8G13G10G19G28G27
   5931502.14849   4624094.19546  24308923.8494   24308923.9194
     -2757.7224
 -10638013.40649  -8277064.62948  21001236.1774   21001234.9424
       911.1314
  11430631.02349   8901571.33647  22399996.1144   22399995.0874
     -3288.1714
  -2988829.42249  -2325309.50847  23713446.6854   23713445.8764
      -738.6104
  -7577175.75849  -5904905.29747  22793734.8104   22793731.9274
      -427.1284
  -9767558.40249  -7610603.68047  22609113.7554   22609112.2594
      2170.9394
  -2706889.71149  -2109890.76248  21035708.2714   21035707.2394
      -283.2274
 04  9 16 22 14 45.0010000  0  7G 3G 8G13G10G19G28G27
   5972975.56349   4656411.12546  24316815.7474   24316816.0404
     -2764.8944
 -10651612.10949  -8287661.01648  20998648.4814   20998647.1654
       906.5804
  11480041.53549   8940073.00447  22409398.9274   22409398.4194
     -3294.0344
  -2977608.97349  -2316566.30147  23715581.2554   23715581.2434
      -748.0304
  -7570623.22349  -5899799.41847  22794981.7164   22794978.9624
      -436.8364
  -9800047.26649  -7635919.64847  22602931.3104   22602929.9504
      2165.9244
  -2702579.60249  -2106532.22748  21036528.1224   21036526.8684
      -287.3414
 04  9 16 22 15  0.0010000  0  7G 3G 8G13G10G19G28G27
   6014558.76249   4688813.60546  24324728.4974   24324729.0524
     -2772.2134
 -10665139.96149  -8298202.19548  20996074.4974   20996072.8104
       901.8574
  11529542.35549   8978645.04747  22418818.8644   22418818.1774
     -3300.0554
  -2966244.75449  -2307711.07047  23717744.0524   23717743.6304
      -757.6154
  -7563922.60949  -5894578.15647  22796256.5444   22796253.9154
      -446.7084
  -9832458.25049  -7661174.93447  22596763.6924   22596762.6694
      2160.7324
  -2698204.97749  -2103123.43048  21037360.7634   21037359.4314
      -291.6424
 04  9 16 22 15 15.0010000  0  7G 3G 8G13G10G19G28G27
   6056249.25449   4721299.64846  24332662.2554   24332662.4894
     -2779.3664
 -10678599.23049  -8308689.93048  20993513.0834   20993511.9894
       897.2854
  11579131.16849   9017285.65647  22428254.9974   22428254.5174
     -3305.9214
  -2954739.18749  -2298745.70347  23719933.6224   23719933.3374
      -767.0384
  -7557076.03549  -5889243.16447  22797559.5834   22797556.6574
      -456.4384
  -9864793.49249  -7686371.20347  22590610.4274   22590609.2354
      2155.6834
  -2693768.07049  -2099666.10248  21038205.0054   21038203.5324
      -295.7944
 04  9 16 22 15 30.0010000  0  7G 3G 8G13G10G19G28G27
   6098049.38749   4753871.16447  24340616.4894   24340617.1854
     -2786.6764
 -10691986.93049  -8319121.89848  20990965.7714   20990964.1304
       892.5134
  11628810.09449   9055996.47747  22437708.4194   22437708.0874
     -3311.9284
  -2943089.75849  -2289668.23847  23722150.5214   23722150.1064
      -776.6294
  -7550080.93449  -5883792.43447  22798890.9354   22798887.6494
      -466.3404
  -9897050.27049  -7711506.33247  22584471.8644   22584470.7944
      2150.4524
  -2689266.20349  -2096158.15248  21039061.8254   21039060.0174
      -300.1244
 04  9 16 22 15 45.0010000  0  7G 3G 8G13G10G19G28G27
   6139957.92649   4786527.15246  24348591.7784   24348592.1654
     -2793.9034
 -10705303.96149  -8329498.80548  20988431.5444   20988430.0714
       887.8024
  11678578.05149   9094776.67247  22447179.2784   22447178.1694
     -3317.8644
  -2931297.41849  -2280479.43047  23724394.8644   23724393.9934
      -786.1564
  -7542938.23849  -5878226.70347  22800249.9664   22800246.6104
      -476.1804
  -9929229.49649  -7736581.02347  22578348.6464   22578347.4544
      2145.2824
  -2684700.19549  -2092600.23048  21039930.3254   21039929.0244
      -304.4014
 04  9 16 22 16  0.0010000  0  7G 3G 8G13G10G19G28G27
   6181974.99649   4819267.68446  24356587.8414   24356587.8804
     -2801.1384
 -10718549.95749  -8339820.35548  20985910.6614   20985909.5674
       883.0664
  11728435.25049   9133626.41447  22456666.7474   22456665.9464
     -3323.8134
  -2919361.97349  -2271179.08647  23726665.7394   23726664.7864
      -795.6964
  -7535647.42249  -5872545.53547  22801637.2394   22801633.9384
      -486.0544
  -9961330.48849  -7761594.75847  22572239.9894   22572239.2084
      2140.0664
  -2680069.54349  -2088991.93048  21040811.8724   21040810.0284
      -308.7104
 04  9 16 22 16 15.0010000  0  7G 3G 8G13G10G19G28G27
   6224101.62549   4852093.59046  24364603.6304   24364604.5994
     -2808.4424
 -10731723.19149  -8350085.21548  20983404.1534   20983402.8964
       878.2164
  11778382.71549   9172546.48447  22466171.7784   22466170.3334
     -3329.8314
  -2907282.29349  -2261766.35247  23728964.4894   23728963.8804
      -805.3124
  -7528207.08649  -5866747.86347  22803052.6774   22803050.2984
      -496.0224
  -9993351.89149  -7786546.46547  22566146.5524   22566145.7284
      2134.7604
  -2675372.77049  -2085332.10948  21041705.6384   21041703.9784
      -313.1184
 04  9 16 22 16 30.0010000  0  7G 3G 8G13G10G19G28G27
   6266335.09049   4885002.76246  24372640.7004   24372641.0444
     -2815.5644
 -10744826.51249  -8360295.58648  20980910.6304   20980909.2984
       873.5554
  11828417.73449   9211534.78947  22475692.6774   22475692.1884
     -3335.6684
  -2895061.02349  -2252243.30547  23731290.3254   23731289.5674
      -814.7514
  -7520619.96949  -5860835.81647  22804497.0444   22804494.1344
      -505.8084
 -10025296.11749  -7811438.04747  22560067.8884   22560066.5524
      2129.6154
  -2670612.41449  -2081622.74248  21042611.4584   21042610.0834
      -317.3574
 04  9 16 22 16 45.0010000  0  7G 3G 8G13G10G19G28G27
   6308674.59449   4917994.59046  24380697.7314   24380698.0404
     -2822.6344
 -10757860.17249  -8370451.68448  20978430.4424   20978429.1344
       868.9114
  11878539.65649   9250590.80547  22485230.6144   22485230.1494
     -3341.4614
  -2882698.75049  -2242610.37147  23733642.4814   23733641.8414
      -824.1524
  -7512886.39849  -5854809.65247  22805968.4504   22805965.3134
      -515.5714
 -10057163.50449  -7836269.75447  22554003.6924   22554002.2634
      2124.4924
  -2665788.79349  -2077864.07448  21043529.4894   21043528.0444
      -321.5754
 04  9 16 22 17  0.0010000  0  7G 3G 8G13G10G19G28G27
   6351121.03549   4951069.69546  24388775.2554   24388775.3994
     -2829.7634
 -10770822.64549  -8380552.30948  20975963.7634   20975962.3494
       864.1654
  11928749.37549   9289715.22747  22494785.3174   22494784.4584
     -3347.3154
  -2870194.41849  -2232866.75047  23736021.8414   23736021.1494
      -833.6224
  -7505005.27749  -5848668.51647  22807467.9664   22807464.9704
      -525.4084
 -10088952.84849  -7861040.64147  22547954.0604   22547953.1344
      2119.2904
  -2660900.56249  -2074055.07048  21044459.6384   21044457.8644
      -325.8824
 04  9 16 22 17 15.0010000  0  7G 3G 8G13G10G19G28G27
   6393673.46949   4984227.44146  24396871.4974   24396872.3064
     -2836.8294
 -10783714.59849  -8390597.98448  20973510.5214   20973508.9384
       859.4644
  11979046.01649   9328907.39147  22504356.4114   22504356.1654
     -3353.1094
  -2857548.84849  -2223013.07047  23738428.7554   23738427.9424
      -843.0384
  -7496977.11749  -5842412.80547  22808995.5444   22808992.7554
      -535.2114
 -10120664.72349  -7885751.16847  22541920.0134   22541918.5604
      2114.1254
  -2655948.44949  -2070196.27348  21045402.0604   21045400.6534
      -330.1414
 04  9 16 22 17 30.0010000  0  7G 3G 8G13G10G19G28G27
   6436332.34449   5017468.07046  24404989.0834   24404990.3454
     -2843.9254
 -10796535.32449  -8400588.15648  20971070.7634   20971069.6424
       854.7154
  12029430.05549   9368167.65647  22513944.0214   22513943.3924
     -3358.9364
  -2844761.54749  -2213048.94147  23740861.8494   23740861.5834
      -852.4874
  -7488801.33649  -5836042.05547  22810551.2944   22810548.8644
      -545.0524
 -10152298.29749  -7910400.67647  22535900.0674   22535898.5874
      2108.9054
  -2650931.69149  -2066287.11748  21046356.6064   21046355.0834
      -334.4514
 04  9 16 22 17 45.0010000  0  7G 3G 8G13G10G19G28G27
   6479095.54749   5050790.03146  24413127.8104   24413127.6304
     -2850.8804
 -10809286.30949  -8410523.98848  20968644.3334   20968642.9664
       850.0664
  12079899.30949   9407494.31647  22523548.4894   22523547.8644
     -3364.6174
  -2831834.34849  -2202975.81247  23743320.9744   23743321.6424
      -861.8134
  -7480479.68049  -5829557.64547  22812135.5054   22812132.5834
      -554.7774
 -10183855.18749  -7934990.44147  22529894.6614   22529893.8724
      2103.7934
  -2645851.86749  -2062328.81648  21047323.3334   21047321.6144
      -338.6554
 04  9 16 22 18  0.0010000  0  7G 3G 8G13G10G19G28G27
   6521960.46149   5084191.22346  24421283.7864   24421284.6464
     -2857.6614
 -10821969.59449  -8420407.06248  20966230.7164   20966229.4154
       845.5524
  12130451.59849   9446885.68447  22533168.2474   22533167.1464
     -3370.1534
  -2818769.66449  -2192795.55547  23745807.8494   23745807.7124
      -870.9794
  -7472014.27049  -5822961.20747  22813746.2244   22813743.0914
      -564.3614
 -10215337.58649  -7959522.15247  22523903.8564   22523902.5564
      2098.8274
  -2640711.10549  -2058323.03548  21048301.3644   21048299.9274
      -342.7174
 04  9 16 22 18 15.0010000  0  7G 3G 8G13G10G19G28G27
   6564930.11749   5117674.05546  24429461.8334   24429461.8724
     -2864.6444
 -10834582.01649  -8430234.91848  20963830.5524   20963829.5834
       840.8284
  12181089.85249   9486344.02747  22542804.0604   22542803.7394
     -3375.8844
  -2805564.32449  -2182505.68447  23748320.4034   23748320.3174
      -880.3564
  -7463401.88749  -5816250.23847  22815384.9584   22815381.5634
      -574.1594
 -10246742.12549  -7983993.19547  22517927.5524   22517926.2634
      2093.6364
  -2635506.14849  -2054267.23048  21049291.8414   21049290.3134
      -346.9974
 04  9 16 22 18 30.0010000  0  7G 3G 8G13G10G19G28G27
   6608002.39549   5151236.84046  24437657.3414   24437657.9974
     -2871.4854
 -10847125.31249  -8440008.90648  20961443.6304   20961442.5094
       836.2204
  12231811.96149   9525867.71547  22552456.1924   22552455.4974
     -3381.4744
  -2792220.25849  -2172107.71547  23750859.9584   23750859.5754
      -889.6044
  -7454644.54749  -5809426.33247  22817051.8104   22817048.6384
      -583.8234
 -10278070.53149  -8008404.91847  22511965.8414   22511964.8994
      2088.5604
  -2630238.77349  -2050162.78148  21050294.4974   21050293.0014
      -351.1584
 04  9 16 22 18 45.0010000  0  7G 3G 8G13G10G19G28G27
   6651175.41849   5184878.13746  24445873.0364   24445873.1614
     -2878.2024
 -10859600.91049  -8449730.14848  20959069.6064   20959068.5134
       831.7074
  12282616.11349   9565455.33647  22562124.1064   22562123.1104
     -3386.9434
  -2778739.15649  -2161602.98447  23753425.3104   23753424.7824
      -898.7404
  -7445743.61749  -5802490.53547  22818745.2784   22818742.3724
      -593.3954
 -10309324.21949  -8032758.41447  22506019.0524   22506017.5214
      2083.5794
  -2624910.38749  -2046010.78948  21051308.4194   21051306.8564
      -355.2264
 04  9 16 22 19  0.0010000  0  7G 3G 8G13G10G19G28G27
   6694447.96549   5218596.97346  24454107.9974   24454107.5244
     -2884.8364
 -10872009.83249  -8459399.43748  20956708.0134   20956706.8994
       827.2614
  12333501.10949   9605105.94547  22571807.7164   22571806.7554
     -3392.3334
  -2765122.30949  -2150992.46147  23756016.4274   23756015.8644
      -907.7904
  -7436700.03149  -5795443.57847  22820466.2394   22820463.5014
      -602.9064
 -10340504.09449  -8057054.40247  22500085.5754   22500083.7244
      2078.6584
  -2619521.80149  -2041811.90248  21052333.6924   21052332.1854
      -359.2394
 04  9 16 22 19 15.0010000  0  7G 3G 8G13G10G19G28G27
   6737819.27049   5252392.74246  24462361.3174   24462360.9624
     -2891.4204
 -10884352.26249  -8469016.90648  20954359.4664   20954358.4624
       822.8294
  12384466.27049   9644819.02347  22581505.2004   22581504.6424
     -3397.6774
  -2751370.21149  -2140276.57447  23758633.9274   23758633.6654
      -916.8074
  -7427514.39149  -5788285.92647  22822213.6924   22822211.1224
      -612.3764
 -10371610.46549  -8081293.10547  22494166.2004   22494164.4154
      2073.7584
  -2614073.51249  -2037566.48048  21053370.2864   21053368.7784
      -363.2194
 04  9 16 22 19 30.0010000  0  7G 3G 8G13G10G19G28G27
   6781289.75449   5286265.82046  24470633.1614   24470633.5524
     -2898.0324
 -10896627.21549  -8478581.80948  20952023.7394   20952022.6884
       818.3304
  12435512.11349   9684594.97747  22591219.3644   22591218.3334
     -3403.0564
  -2737482.29749  -2129454.83247  23761276.3564   23761276.2634
      -925.8614
  -7418185.98449  -5781017.02347  22823989.3644   22823986.3494
      -621.8944
 -10402642.57449  -8105473.94547  22488260.9744   22488259.5364
      2068.8074
  -2608564.62549  -2033273.84448  21054418.6534   21054417.4664
      -367.2594
 04  9 16 22 19 45.0010000  0  7G 3G 8G13G10G19G28G27
   6824862.89149   5320218.89846  24478925.0214   24478925.3994
     -2904.8764
 -10908831.00449  -8488091.25048  20949701.6384   20949700.3024
       813.5864
  12486642.14849   9724436.54347  22600948.9504   22600947.8374
     -3408.6694
  -2723454.92649  -2118524.43747  23763945.9354   23763945.9934
      -935.1584
  -7408710.97749  -5773633.89547  22825792.3804   22825789.6534
      -631.6674
 -10433596.64849  -8129593.96147  22482370.3884   22482368.8684
      2063.6054
  -2602991.32049  -2028931.01648  21055479.5914   21055477.5054
      -371.5544
 04  9 16 22 20  0.0010000  0  7G 3G 8G13G10G19G28G27
   6868536.77049   5354250.48046  24487235.7474   24487236.3764
     -2911.5924
 -10920965.21549  -8497546.48448  20947392.2944   20947390.6034
       808.9474
  12537854.43449   9764342.18447  22610694.4034   22610693.4814
     -3414.1524
  -2709289.89149  -2107486.76247  23766641.3804   23766640.8564
      -944.3364
  -7399091.09049  -5766137.86747  22827622.9814   22827619.8684
      -641.3264
 -10464474.11749  -8153654.31247  22476494.4974   22476493.0714
      2058.4984
  -2597355.10949  -2024539.16048  21056551.6774   21056550.1034
      -375.7474
 04  9 16 22 20 15.0010000  0  7G 3G 8G13G10G19G28G27
   6912311.02749   5388360.25046  24495566.0754   24495567.1424
     -2918.2844
 -10933029.75049  -8506947.41048  20945096.6064   20945095.4154
       804.3024
  12589148.56349   9804311.60947  22620455.5054   22620454.4704
     -3419.6094
  -2694987.39149  -2096341.96947  23769362.5444   23769362.0834
      -953.5004
  -7389326.24649  -5758528.88747  22829481.1064   22829477.4544
      -650.9904
 -10495274.83249  -8177654.85247  22470632.9584   22470631.8254
      2053.3814
  -2591655.93049  -2020098.25048  21057636.4584   21057634.5634
      -379.9454
 04  9 16 22 20 30.0010000  0  7G 3G 8G13G10G19G28G27
   6956184.57049   5422547.41846  24503914.8254   24503915.5564
     -2924.9034
 -10945025.25849  -8516294.56648  20942813.8644   20942812.3994
       799.7014
  12640523.77049   9844344.20347  22630231.6384   22630230.7474
     -3425.0144
  -2680548.41849  -2085090.84847  23772110.4974   23772110.1184
      -962.5984
  -7379417.41849  -5750807.71147  22831366.6534   22831363.0994
      -660.5894
 -10525999.68449  -8201596.27347  22464786.6774   22464784.8564
      2048.3234
  -2585894.58649  -2015608.88748  21058732.8104   21058731.1304
      -384.0904
 04  9 16 22 20 45.0010000  0  7G 3G 8G13G10G19G28G27
   7000154.84449   5456809.92646  24512282.2244   24512282.3684
     -2931.3524
 -10956954.00449  -8525589.68448  20940543.7244   20940542.7314
       795.2504
  12691977.47749   9884437.96947  22640023.5754   22640022.2554
     -3430.2474
  -2665975.44549  -2073735.30547  23774883.7554   23774883.5994
      -971.5324
  -7369366.82849  -5742976.07047  22833279.5134   22833276.0134
      -670.0394
 -10556650.82849  -8225480.25047  22458954.0994   22458952.0874
      2043.4104
  -2580073.19149  -2011072.74248  21059840.4114   21059838.7904
      -388.0934
 04  9 16 22 21  0.0020000  0  7G 3G 8G13G10G19G28G27
   7044226.44949   5491151.40246  24520669.1824   24520668.6074
     -2938.1074
 -10968814.48049  -8534831.61348  20938287.1584   20938285.6274
       790.6984
  12743514.62949   9924596.77047  22649830.9084   22649829.2874
     -3435.8104
  -2651265.55949  -2062273.07447  23777682.6114   23777682.5804
      -980.6594
  -7359171.80949  -5735031.89547  22835219.3144   22835216.0294
      -679.6684
 -10587228.16449  -8249306.73447  22453135.1354   22453133.4944
      2038.4894
  -2574189.39149  -2006487.96948  21060960.1194   21060958.7404
      -392.2534
 04  9 16 22 21 15.0020000  0  7G 3G 8G13G10G19G28G27
   7088392.82049   5525566.75046  24529073.2134   24529073.3854
     -2944.4254
 -10980605.64549  -8544019.53148  20936043.1194   20936041.6394
       786.0784
  12795127.84449   9964814.82847  22659651.4474   22659651.8114
     -3440.8814
  -2636421.49249  -2050706.27347  23780507.4634   23780507.4324
      -989.6044
  -7348834.20349  -5726976.60947  22837186.4394   22837183.6864
      -689.1744
 -10617728.09049  -8273072.87947  22447330.8854   22447329.3964
      2033.3284
  -2568244.17249  -2001855.33648  21062091.3074   21062089.9754
      -396.3484
 04  9 16 22 21 30.0020000  0  7G 3G 8G13G10G19G28G27
   7132658.66849   5560059.59046  24537496.5254   24537497.1784
     -2951.0574
 -10992325.91049  -8553152.20748  20933812.8304   20933811.3964
       781.3514
  12846822.47749  10005096.32447  22669489.1504   22669488.1434
     -3446.3094
  -2621440.18749  -2039032.54747  23783358.6274   23783358.1704
      -998.7544
  -7338351.25449  -5718808.06247  22839181.6584   22839178.5294
      -698.8634
 -10648150.19949  -8296778.39547  22441542.1664   22441540.6934
      2028.1414
  -2562235.03549  -1997172.89148  21063234.7914   21063233.6114
      -400.6094
 04  9 16 22 21 45.0020000  0  7G 3G 8G13G10G19G28G27
   7177021.59049   5594628.06346  24545938.8144   24545939.2014
     -2957.5284
 -11003977.08649  -8562231.04348  20931595.8854   20931594.2054
       776.7454
  12898596.22349  10045439.47747  22679341.2524   22679340.8144
     -3451.5834
  -2606323.85949  -2027253.62147  23786235.2524   23786235.0214
     -1007.7554
  -7327725.01649  -5710527.86347  22841203.4864   22841200.3654
      -708.4164
 -10678496.55949  -8320424.87947  22435767.4324   22435765.8224
      2023.0914
  -2556163.87949  -1992442.12548  21064390.2524   21064388.7324
      -404.7444
 04  9 16 22 22  0.0020000  0  6G 8G13G10G19G28G27
 -11015555.56249  -8571253.23048  20929392.3854   20929390.8894
       771.8984
  12950452.55149  10085846.98047  22689208.9944   22689208.9944
     -3457.0894
  -2591068.93049  -2015366.66047  23789138.1974   23789137.5574
     -1016.9954
  -7316951.62549  -5702133.01247  22843253.4634   22843250.6934
      -718.2264
 -10708763.19549  -8344009.25447  22430008.0184   22430006.1894
      2017.7764
  -2550026.89849  -1987660.06648  21065558.0104   21065556.8574
      -409.1324
 04  9 16 22 22 15.0020000  0  6G 8G13G10G19G28G27
 -11027061.24649  -8580218.69548  20927202.9164   20927201.5374
       767.0464
  13002391.25049  10126318.65647  22699092.9164   22699092.8734
     -3462.5804
  -2575675.67649  -2003371.93747  23792067.1504   23792066.6974
     -1026.2174
  -7306031.26249  -5693623.64147  22845331.7054   22845328.5614
      -728.0244
 -10738950.26249  -8367531.60947  22424263.5184   22424261.7564
      2012.4714
  -2543823.98449  -1982826.63348  21066738.2994   21066737.3654
      -413.5284
 04  9 16 22 22 30.0020000  0  6G 8G13G10G19G28G27
 -11038496.21949  -8589129.05548  20925027.1824   20925025.7644
       762.3324
  13054409.72749  10166852.50047  22708991.9244   22708990.9284
     -3467.8984
  -2560146.46549  -1991271.25847  23795022.3074   23795022.4554
     -1035.2814
  -7294966.23449  -5685001.53547  22847437.2754   22847433.4944
      -737.6684
 -10769059.93449  -8390993.67247  22418533.9554   22418532.1234
      2007.3114
  -2537557.32449  -1977943.52048  21067930.6894   21067929.8814
      -417.7774
 04  9 16 22 22 45.0020000  0  6G 8G13G10G19G28G27
 -11049858.78149  -8597983.00048  20922864.8464   20922863.7054
       757.5044
  13106509.56649  10207449.76247  22718906.0254   22718905.8344
     -3473.3234
  -2544479.73449  -1979063.44147  23798003.8544   23798002.9474
     -1044.4494
  -7283754.76649  -5676265.31247  22849570.4554   22849566.8424
      -747.4314
 -10799090.26249  -8414393.89847  22412819.0024   22412817.4554
      2002.0224
  -2531225.10549  -1973009.33248  21069136.1044   21069134.7564
      -422.1484
 04  9 16 22 23  0.0020000  0  6G 8G13G10G19G28G27
 -11061149.16049  -8606780.69948  20920716.4944   20920715.1004
       752.6924
  13158689.93849  10248109.75447  22728835.7054   22728835.1354
     -3478.6914
  -2528676.16049  -1966748.97747  23801010.4474   23801010.9594
     -1053.5724
  -7272397.37949  -5667415.39147  22851731.8304   22851728.1314
      -757.1594
 -10829041.66449  -8437732.63747  22407119.4864   22407118.0804
      1996.7604
  -2524827.75049  -1968024.37948  21070353.5254   21070352.0764
      -426.4904
 04  9 16 22 23 15.0020000  0  6G 8G13G10G19G28G27
 -11072364.79349  -8615520.15248  20918582.0024   20918580.5804
       747.7094
  13210953.17249  10288834.32047  22738780.9944   22738780.4044
     -3484.2164
  -2512733.24649  -1954325.93747  23804044.4164   23804044.7134
     -1062.8614
  -7260891.62149  -5658449.86747  22853921.5254   22853918.1784
      -767.0514
 -10858911.55149  -8461007.84847  22401435.6354   22401433.7684
      1991.3264
  -2518362.53149  -1962986.56248  21071583.5884   21071582.0844
      -431.0154
 04  9 16 22 23 30.0020000  0  6G 8G13G10G19G28G27
 -11083504.60249  -8624200.52048  20916462.1894   20916460.9324
       742.6544
  13263299.98049  10329624.00047  22748742.7684   22748741.8934
     -3489.7874
  -2496650.29749  -1941793.79747  23807105.4394   23807105.6504
     -1072.1974
  -7249236.52749  -5649367.97347  22856138.9394   22856136.0534
      -777.0064
 -10888698.94149  -8484218.78547  22395767.1044   22395765.8774
      1985.8264
  -2511828.58249  -1957895.17648  21072826.9244   21072825.0454
      -435.5974
 04  9 16 22 23 45.0020000  0  6G 8G13G10G19G28G27
 -11094567.02049  -8632820.58648  20914357.1894   20914355.8614
       737.4954
  13315731.48849  10370479.68047  22758719.9554   22758719.3034
     -3495.4344
  -2480426.12149  -1929151.58647  23810192.8074   23810192.5844
     -1081.6124
  -7237430.73449  -5640168.66047  22858385.4474   22858383.1394
      -787.0534
 -10918402.21549  -8507364.16447  22390114.9244   22390113.3694
      1980.2184
  -2505224.23849  -1952748.93048  21074083.7524   21074082.0804
      -440.2904
 04  9 16 22 24  0.0020000  0  6G 8G13G10G19G28G27
 -11105555.03949  -8641382.66848  20912266.2134   20912264.9324
       732.5354
  13368244.41849  10411398.81647  22768712.7604   22768711.6234
     -3500.8624
  -2464064.01649  -1916401.91047  23813306.8304   23813306.5104
     -1090.8074
  -7225477.38749  -5630854.36747  22860660.6194   22860657.6784
      -796.8904
 -10948024.36349  -8530446.33247  22384477.8144   22384476.1934
      1974.8104
  -2498552.57449  -1947550.23448  21075353.4084   21075352.1044
      -444.7784
 04  9 16 22 24 15.0020000  0  6G 8G13G10G19G28G27
 -11116470.29349  -8649888.05948  20910189.0804   20910187.6934
       727.6844
  13420836.66849  10452379.76247  22778721.1744   22778720.2954
     -3506.1504
  -2447565.93049  -1903546.28147  23816445.7444   23816445.7484
     -1099.8724
  -7213378.29349  -5621426.50047  22862962.9714   22862959.8964
      -806.6064
 -10977567.26649  -8553466.75047  22378855.7054   22378854.4714
      1969.5274
  -2491815.41049  -1942300.50048  21076635.5574   21076633.8074
      -449.1444
 04  9 16 22 24 30.0020000  0  6G 8G13G10G19G28G27
 -11127314.49249  -8658338.07848  20908125.4004   20908124.2994
       722.9474
  13473506.23049  10493420.94147  22788743.4634   22788742.6154
     -3511.3044
  -2430933.69949  -1890586.09447  23819610.4004   23819610.8384
     -1108.8154
  -7201135.28949  -5611886.49647  22865292.8614   22865289.6934
      -816.2004
 -11007032.51649  -8576426.65647  22373248.8074   22373247.2174
      1964.3504
  -2485014.27049  -1937000.91448  21077929.7054   21077928.1824
      -453.4094
 04  9 16 22 24 45.0020000  0  6G 8G13G10G19G28G27
 -11138086.55549  -8666731.89148  20906075.7994   20906074.7874
       718.1384
  13526253.87149  10534522.97747  22798780.7134   22798780.4244
     -3516.5094
  -2414166.55949  -1877520.81646  23822801.5574   23822800.8854
     -1117.8094
  -7188747.35249  -5602233.56247  22867649.9714   22867646.6974
      -825.8624
 -11036418.98049  -8599325.18447  22367657.0104   22367655.1004
      1959.0984
  -2478148.11349  -1931650.67248  21079236.1894   21079234.7174
      -457.7444
 04  9 16 22 25  0.0020000  0  6G 8G13G10G19G28G27
 -11148784.68749  -8675068.08648  20904039.8384   20904038.2014
       713.2094
  13579080.93449  10575686.87947  22808833.6434   22808832.8894
     -3521.8044
  -2397263.14149  -1864349.34047  23826017.9944   23826017.6354
     -1126.8954
  -7176212.94949  -5592466.49247  22870035.1974   22870032.4164
      -835.6274
 -11065725.07049  -8622161.07047  22362080.3614   22362078.4794
      1953.7394
  -2471215.19149  -1926248.39548  21080555.5644   21080554.0644
      -462.1954
 04  9 16 22 25 15.0020000  0  6G 8G13G10G19G28G27
 -11159409.92649  -8683347.49648  20902017.7754   20902016.5024
       708.3494
  13631986.33249  10616911.82847  22818901.5104   22818900.6394
     -3527.0274
  -2380224.46149  -1851072.46147  23829260.7604   23829260.0184
     -1135.9124
  -7163533.08249  -5582586.08647  22872448.1194   22872445.2444
      -845.3244
 -11094951.53149  -8644934.91047  22356518.6664   22356516.8894
      1948.4314
  -2464216.29749  -1920794.71148  21081887.1894   21081885.8694
      -466.5934
 04  9 16 22 25 30.0020000  0  6G 8G13G10G19G28G27
 -11169962.11749  -8691569.97348  20900009.9394   20900008.5064
       703.4794
  13684969.60249  10658197.46547  22828983.5334   22828982.9244
     -3532.2184
  -2363050.87149  -1837690.46147  23832528.0024   23832527.9164
     -1144.9064
  -7150707.90249  -5572592.43747  22874888.8144   22874885.9594
      -855.0124
 -11124098.32449  -8667646.68047  22350972.0724   22350970.7404
      1943.1204
  -2457151.50849  -1915289.68748  21083231.6664   21083230.2914
      -470.9864
 04  9 16 22 25 45.0020000  0  6G 8G13G10G19G28G27
 -11180438.85949  -8699733.66848  20898016.0254   20898014.8544
       698.4494
  13738032.85249  10699545.41847  22839081.5414   22839080.9044
     -3537.5504
  -2345740.19549  -1824201.63347  23835822.7364   23835822.0184
     -1154.0454
  -7137735.00849  -5562483.68447  22877357.3694   22877354.5374
      -864.8604
 -11153163.15249  -8690294.57447  22345440.9474   22345438.9204
      1937.6554
  -2450018.38749  -1909731.41048  21084589.2914   21084587.9634
      -475.5414
 04  9 16 22 26  0.0020000  0  6G 8G13G10G19G28G27
 -11190843.78949  -8707841.39848  20896036.2444   20896034.7954
       693.6624
  13791172.00849  10740952.52047  22849193.5574   22849192.9634
     -3542.6104
  -2328296.45749  -1810609.13347  23839142.4004   23839141.7874
     -1162.9164
  -7124618.35249  -5552262.93747  22879853.3854   22879850.2444
      -874.4444
 -11182149.75449  -8712881.51647  22339925.2684   22339923.4394
      1932.4404
  -2442820.82049  -1904122.92648  21085958.8224   21085957.2834
      -479.8384
 04  9 16 22 26 15.0020000  0  6G 8G13G10G19G28G27
 -11201175.24649  -8715891.87948  20894069.7834   20894068.2324
       688.7644
  13844388.21949  10782419.66847  22859320.0574   22859319.5884
     -3547.7474
  -2310718.43749  -1796911.98047  23842486.8074   23842486.9044
     -1171.8684
  -7111356.48049  -5541929.00447  22882377.1114   22882373.9244
      -884.1254
 -11211056.58649  -8735406.28947  22334424.4714   22334422.6784
      1927.1224
  -2435557.02749  -1898462.82048  21087340.9944   21087339.4394
      -484.2534
 04  9 16 22 26 30.0020000  0  6G 8G13G10G19G28G27
 -11211433.65649  -8723885.44548  20892118.1194   20892116.6114
       683.8944
  13897680.96549  10823946.44547  22869461.7754   22869460.8304
     -3552.8504
  -2293006.66449  -1783110.60247  23845857.9864   23845857.2604
     -1180.7854
  -7097950.00849  -5531482.40247  22884928.4944   22884925.3264
      -893.7654
 -11239884.03149  -8757869.20747  22328938.3144   22328936.9364
      1921.8304
  -2428227.47749  -1892751.48848  21088735.9394   21088734.4904
      -488.6374
 04  9 16 22 26 45.0020000  0  6G 8G13G10G19G28G27
 -11221619.64849  -8731822.58248  20890179.4244   20890178.1274
       679.0664
  13951049.34049  10865532.17247  22879617.3464   22879617.1044
     -3557.8924
  -2275161.93449  -1769205.61747  23849253.3614   23849252.8964
     -1189.6494
  -7084399.41449  -5520923.50847  22887506.7994   22887503.7644
      -903.3734
 -11268632.51249  -8780270.59847  22323467.7604   22323466.1074
      1916.5654
  -2420832.60549  -1886989.25048  21090143.1504   21090141.7834
      -492.9914
 04  9 16 22 27  0.0020000  0  6G 8G13G10G19G28G27
 -11231735.94949  -8739705.40248  20888254.6354   20888253.5024
       674.4204
  14004490.00849  10907174.21947  22889786.5334   22889785.9084
     -3562.7114
  -2257187.46149  -1755199.54747  23852673.6114   23852672.9514
     -1198.2984
  -7070707.74649  -5510254.67247  22890111.9634   22890109.3894
      -912.7784
 -11297304.94549  -8802612.73447  22318011.4394   22318010.2364
      1911.4964
  -2413375.32049  -1881178.37548  21091562.0494   21091561.0574
      -497.1524
 04  9 16 22 27 15.0020000  0  6G 8G13G10G19G28G27
 -11241781.07449  -8747532.77748  20886343.0964   20886341.9794
       669.6754
  14058004.04349  10948873.43847  22899970.4394   22899969.3814
     -3567.6024
  -2239082.14549  -1741091.53147  23856119.4554   23856118.5254
     -1207.0214
  -7056873.84049  -5499475.02047  22892744.6044   22892741.7834
      -922.2604
 -11325899.91049  -8824894.50047  22312570.0414   22312568.6894
      1906.3314
  -2405854.28149  -1875317.82848  21092993.1974   21092992.3144
      -501.4034
 04  9 16 22 27 30.0020000  0  6G 8G13G10G19G28G27
 -11251756.68449  -8755305.97348  20884444.5724   20884443.1354
       665.0414
  14111589.58649  10990628.37947  22910166.7754   22910166.6784
     -3572.3704
  -2220847.84449  -1726883.00047  23859589.2754   23859588.6074
     -1215.6204
  -7042899.41849  -5488585.86347  22895404.2604   22895400.9674
      -931.6284
 -11354419.08649  -8847117.20747  22307143.3774   22307141.5254
      1901.2784
  -2398271.07449  -1869408.84848  21094436.4244   21094435.0294
      -505.5474
 04  9 16 22 27 45.0020000  0  6G 8G13G10G19G28G27
 -11261661.12549  -8763023.71948  20882559.9864   20882558.4904
       660.2964
  14165247.84849  11032439.97747  22920378.2914   22920377.5644
     -3577.2174
  -2202483.19949  -1712572.90647  23863083.3464   23863082.9754
     -1224.3104
  -7028783.02349  -5477586.08247  22898090.2994   22898087.5414
      -941.0934
 -11382860.82049  -8869279.57447  22301730.7214   22301729.5374
      1896.1164
  -2390623.91849  -1863450.02748  21095891.5884   21095890.5724
      -509.8104
 04  9 16 22 28  0.0020000  0  6G 8G13G10G19G28G27
 -11271494.72749  -8770686.26248  20880688.4164   20880687.2684
       655.5734
  14218978.04749  11074307.62547  22930602.7684   22930602.2294
     -3582.0134
  -2183989.05549  -1698161.89147  23866603.1434   23866601.9004
     -1232.9434
  -7014525.21949  -5466476.10247  22900803.2214   22900800.3894
      -950.5204
 -11411225.55149  -8891381.93447  22296333.2754   22296331.6194
      1890.9824
  -2382913.48049  -1857441.89148  21097358.8304   21097357.5494
      -514.0294
 04  9 16 22 28 15.0020000  0  6G 8G13G10G19G28G27
 -11281254.90649  -8778291.59448  20878831.3614   20878830.1154
       650.6794
  14272782.58649  11116233.20747  22940841.3384   22940840.6044
     -3586.9694
  -2165362.82049  -1683647.96147  23870147.2914   23870146.3614
     -1241.7494
  -7000123.23449  -5455253.77747  22903544.1744   22903540.6624
      -960.1324
 -11439510.52749  -8913422.16047  22290950.4394   22290948.9594
      1885.6654
  -2375136.89549  -1851382.21148  21098838.7294   21098837.5214
      -518.4394
 04  9 16 22 28 30.0020000  0  6G 8G13G10G19G28G27
 -11290941.76249  -8785839.79348  20876988.2524   20876986.7794
       645.7904
  14326661.03949  11158216.38747  22951094.4394   22951093.1194
     -3591.8974
  -2146604.97349  -1669031.46547  23873716.8074   23873716.6234
     -1250.5234
  -6985577.54349  -5443919.48047  22906311.9474   22906308.6314
      -969.7134
 -11467715.99649  -8935400.41047  22285583.1354   22285581.8734
      1880.3654
  -2367294.30949  -1845271.10948  21100331.0574   21100329.7874
      -522.8394
 04  9 16 22 28 45.0020000  0  6G 8G13G10G19G28G27
 -11300556.90249  -8793332.11348  20875158.6044   20875157.0614
       641.0094
  14380611.25049  11200255.47747  22961360.4474   22961359.8654
     -3596.6814
  -2127717.64149  -1654314.07447  23877310.6504   23877310.7754
     -1259.1554
  -6970890.11749  -5432474.73047  22909106.6274   22909104.0764
      -979.1624
 -11495843.80949  -8957318.16847  22280231.1664   22280229.2954
      1875.1884
  -2359387.62149  -1839110.06648  21101835.4164   21101834.3074
      -527.1124
 04  9 16 22 29  0.0020000  0  6G 8G13G10G19G28G27
 -11310102.57849  -8800770.29348  20873341.8934   20873340.6704
       636.3784
  14434630.72749  11242348.53547  22971639.8304   22971639.1934
     -3601.2984
  -2108703.23849  -1639497.66447  23880929.2444   23880928.7874
     -1267.6274
  -6956063.19149  -5420921.27747  22911927.9324   22911925.3934
      -988.4624
 -11523895.98049  -8979176.98047  22274892.7684   22274891.0924
      1870.1454
  -2351418.83249  -1832900.61748  21103351.7994   21103350.8264
      -531.2534
 04  9 16 22 29 15.0020000  0  6G 8G13G10G19G28G27
 -11319575.00049  -8808151.39848  20871539.3464   20871537.8654
       631.4954
  14488722.69949  11284498.08647  22981933.1824   22981932.5414
     -3606.1324
  -2089558.41049  -1624579.62547  23884572.2294   23884572.3894
     -1276.3224
  -6941093.28149  -5409256.41447  22914777.1354   22914773.9164
      -997.9944
 -11551868.89849  -9000974.03947  22269569.4864   22269568.0294
      1864.8614
  -2343384.31249  -1826639.95748  21104880.8614   21104879.6114
      -535.6354
 04  9 16 22 29 30.0020000  0  7G29G 8G13G10G19G28G27
   -106391.09459    -77830.15256  24758065.1354   24758065.3144

 -11328975.73849  -8815476.64848  20869750.3934   20869748.8734
       626.7164
  14542885.37149  11326702.73447  22992240.2754   22992238.9514
     -3610.8454
  -2070284.79749  -1609561.23047  23888239.5644   23888239.9634
     -1284.9084
  -6925982.03949  -5397481.41447  22917652.4394   22917649.4474
     -1007.4164
 -11579763.97349  -9022710.43747  22264261.1274   22264259.7604
      1859.6724
  -2335285.60949  -1820329.29348  21106422.2834   21106421.1044
      -539.9144
 04  9 16 22 29 45.0020000  0  7G29G 8G13G10G19G28G27
   -150656.78149   -112322.85946  24749642.1824   24749641.7914
      2951.0464
 -11338304.19549  -8822745.57048  20867975.3544   20867973.9554
       621.8974
  14597119.01249  11368962.67247  23002560.4084   23002559.7174
     -3615.5764
  -2050882.24649  -1594442.37547  23891932.4944   23891931.9284
     -1293.5034
  -6910729.03549  -5385595.94947  22920555.0184   22920551.9674
     -1016.8674
 -11607580.84849  -9044385.90247  22258967.5104   22258966.0374
      1854.4584
  -2327122.08649  -1813968.10548  21107975.6044   21107974.4364
      -544.2354
 04  9 16 22 30  0.0020000  0  7G29G 8G13G10G19G28G27
   -194887.28549   -146788.16846  24741225.3774   24741224.9164
      2948.7004
 -11347562.53149  -8829959.85948  20866213.3384   20866212.2444
       617.2224
  14651420.80549  11411275.72347  23012893.9794   23012892.7444
     -3620.1204
  -2031353.35949  -1579225.06647  23895648.6584   23895648.1114
     -1301.9264
  -6895336.75049  -5373601.96547  22923483.8384   22923481.0214
     -1026.1524
 -11635321.77749  -9066002.18747  22253688.8384   22253687.1504
      1849.3954
  -2318896.05949  -1807558.21948  21109540.7684   21109539.3934
      -548.4024
 04  9 16 22 30 15.0020000  0  7G29G 8G13G10G19G28G27
   -239082.54749   -181226.00446  24732815.4714   24732814.8304
      2946.3514
 -11356751.16849  -8837119.83248  20864464.7994   20864463.6004
       612.5764
  14705790.14549  11453641.40647  23023239.9554   23023239.5494
     -3624.6234
  -2011698.78149  -1563909.80547  23899389.0104   23899388.8424
     -1310.3054
  -6879805.61749  -5361499.77347  22926439.3464   22926436.9634
     -1035.4094
 -11662987.11349  -9087559.57447  22248424.3074   22248422.3854
      1844.3564
  -2310607.94549  -1801099.95748  21111118.1274   21111116.7754
      -552.5414
 04  9 16 22 30 30.0020000  0  7G29G 8G13G10G19G28G27
   -283244.07049   -215637.57846  24724411.4714   24724410.8074
      2944.1024
 -11365871.71949  -8844226.75848  20862729.4474   20862727.7214
       608.0374
  14760225.07849  11496058.21947  23033598.4794   23033597.8504
     -3628.9964
  -1991920.37149  -1548498.06647  23903152.3774   23903152.0844
     -1318.5614
  -6864137.41849  -5349290.80147  22929420.9244   22929418.7714
     -1044.5474
 -11690578.46149  -9109059.30547  22243173.6664   22243172.0534
      1839.4234
  -2302259.21149  -1794594.44948  21112706.7834   21112705.8304
      -556.5824
 04  9 16 22 30 45.0020000  0  7G29G 8G13G10G19G28G27
   -327371.41849   -250022.50046  24716014.3614   24716013.5454
      2941.8234
 -11374924.03949  -8851280.50848  20861006.8774   20861005.8114
       603.4884
  14814725.45749  11538525.99247  23043969.5644   23043968.8814
     -3633.3594
  -1972018.21949  -1532989.91047  23906939.9244   23906939.6194
     -1326.8104
  -6848332.23049  -5336975.06647  22932428.4004   22932426.1704
     -1053.6794
 -11718095.60949  -9130501.21147  22237937.1664   22237935.8224
      1834.4774
  -2293849.73849  -1788041.61748  21114307.2444   21114306.0064
      -560.6324
 04  9 16 22 31  0.0020000  0  7G29G 8G13G10G19G28G27
   -371459.67249   -284376.95746  24707624.1894   24707623.6354
      2939.2174
 -11383903.10249  -8858277.18048  20859298.2604   20859296.8304
       598.6044
  14869295.85549  11581048.33647  23054354.5644   23054353.3184
     -3638.0274
  -1951987.86349  -1517381.84047  23910751.1194   23910750.9514
     -1335.3574
  -6832385.34049  -5324548.91047  22935462.8464   22935461.1394
     -1063.1264
 -11745533.79749  -9151881.60547  22232716.3304   22232714.5884
      1829.2134
  -2285374.73449  -1781437.71948  21115919.8304   21115918.4434
      -565.0004
 04  9 16 22 31 15.0020000  0  7G29G 8G13G10G19G28G27
   -415513.50849   -318704.60546  24699241.4554   24699240.7444
      2936.9224
 -11392813.96549  -8865220.70348  20857602.7754   20857601.0534
       594.0584
  14923930.83249  11623621.03147  23064750.7294   23064750.1934
     -3642.3324
  -1931834.68449  -1501678.07847  23914586.5724   23914585.7644
     -1343.5454
  -6816301.91449  -5312016.38347  22938523.8854   22938521.2364
     -1072.2284
 -11772897.95349  -9173204.30947  22227508.9554   22227507.1314
      1824.2774
  -2276839.12549  -1774786.60248  21117544.3144   21117542.8504
      -569.0414
 04  9 16 22 31 30.0020000  0  7G29G 8G13G10G19G28G27
   -459529.42249   -353002.69946  24690864.5414   24690864.3074
      2934.3944
 -11401653.34049  -8872108.52348  20855920.4084   20855918.9944
       589.2924
  14978633.47349  11666246.42247  23075160.6434   23075159.6464
     -3646.8434
  -1911555.50449  -1485876.12947  23918445.5644   23918445.1044
     -1351.9454
  -6800078.64149  -5299374.86347  22941611.3384   22941608.4984
     -1081.5524
 -11800184.81649  -9194466.77347  22222316.0964   22222314.3184
      1819.1244
  -2268239.58649  -1768085.66448  21119180.4324   21119179.0764
      -573.3034
 04  9 16 22 31 45.0020000  0  7G29G 8G13G10G19G28G27
   -503505.10949   -387269.42646  24682496.7914   24682496.9244
      2931.7134
 -11410419.01249  -8878938.91048  20854252.4004   20854251.1434
       584.3784
  15033405.41449  11708925.80947  23085583.5804   23085582.7174
     -3651.4634
  -1891148.53949  -1469974.60947  23922329.5024   23922328.7214
     -1360.4644
  -6783713.89549  -5286623.11347  22944725.0414   22944722.0964
     -1090.9834
 -11827392.42249  -9215667.47347  22217139.0334   22217137.0764
      1813.8404
  -2259574.03549  -1761333.29348  21120829.6894   21120828.4434
      -577.7034
 04  9 16 22 32  0.0020000  0  7G29G 8G13G10G19G28G27
   -547444.46549   -421507.82446  24674135.6114   24674134.9434
      2929.2904
 -11419115.19149  -8885715.14848  20852597.2914   20852596.0334
       579.7454
  15088242.27749  11751655.79747  23096018.7214   23096017.5724
     -3655.7914
  -1870618.28949  -1453977.02047  23926235.3464   23926235.6584
     -1368.6834
  -6767211.79349  -5273764.32447  22947865.3694   22947861.8384
     -1100.1404
 -11854524.84049  -9236809.60547  22211975.7054   22211973.8344
      1808.8284
  -2250846.66449  -1754532.74248  21122490.2294   21122488.8774
      -581.8254
 04  9 16 22 32 15.0020000  0  7G29G 8G13G10G19G28G27
   -591346.10249   -455716.91046  24665781.2294   24665781.2014
      2926.7764
 -11427740.64549  -8892436.27748  20850955.9244   20850954.4864
       575.0304
  15143144.69549  11794436.87947  23106465.7834   23106465.2874
     -3660.1614
  -1849963.98449  -1437882.77747  23930166.0184   23930165.7604
     -1376.9544
  -6750571.37149  -5260797.75847  22951031.8144   22951029.1584
     -1109.3614
 -11881580.92649  -9257892.25447  22206827.2134   22206825.2754
      1803.7394
  -2242056.30949  -1747683.11748  21124162.7754   21124162.1234
      -586.0244
 04  9 16 22 32 30.0020000  0  7G29G 8G13G10G19G28G27
   -635209.25849   -489895.94546  24657434.1434   24657434.1354
      2924.2104
 -11436294.45349  -8899101.58248  20849328.3774   20849326.7564
       570.2544
  15198113.09449  11837269.35547  23116926.2524   23116925.5684
     -3664.5604
  -1829185.12549  -1421691.46947  23934120.1824   23934119.6894
     -1385.2574
  -6733792.03549  -5247722.96147  22954224.9394   22954222.6824
     -1118.6224
 -11908559.92649  -9278914.82447  22201693.4474   22201691.0964
      1798.6004
  -2233202.10949  -1740783.74248  21125848.3694   21125846.9674
      -590.2804
 04  9 16 22 32 45.0020000  0  7G29G 8G13G10G19G28G27
   -679035.14549   -524045.96146  24649094.0724   24649094.3894
      2921.7264
 -11444778.33249  -8905712.38748  20847714.0644   20847712.6584
       565.5924
  15253145.43849  11880151.67647  23127398.3544   23127397.8854
     -3668.8234
  -1808283.76649  -1405404.69947  23938097.7444   23938096.9244
     -1393.4244
  -6716875.70349  -5234541.40647  22957443.8774   22957441.4634
     -1127.7554
 -11935463.63349  -9299878.73847  22196573.6894   22196571.8774
      1793.5804
  -2224285.85949  -1733836.02348  21127545.0024   21127543.5964
      -594.4174
 04  9 16 22 33  0.0020000  0  7G29G 8G13G10G19G28G27
   -722822.51649   -558165.94546  24640761.9394   24640761.8614
      2919.1584
 -11453191.32449  -8912267.96148  20846112.9084   20846111.1274
       560.8664
  15308242.74649  11923084.60247  23137883.1974   23137882.2644
     -3673.1544
  -1787258.82849  -1389021.63347  23942098.8074   23942098.0104
     -1401.6624
  -6699821.16449  -5221252.15647  22960689.2134   22960686.7094
     -1136.9694
 -11962290.74249  -9320782.96547  22191468.6114   22191466.8144
      1788.4744
  -2215306.24249  -1726838.92248  21129253.8934   21129252.3854
      -598.6414
 04  9 16 22 33 15.0020000  0  7G29G 8G13G10G19G28G27
   -766571.08649   -592255.72346  24632436.7914   24632436.6114
      2916.5714
 -11461533.27349  -8918768.17648  20844525.6274   20844524.2954
       556.1304
  15363404.37949  11966067.64547  23148380.1114   23148379.5144
     -3677.4424
  -1766110.92649  -1372542.77347  23946122.8144   23946122.5214
     -1409.8604
  -6682628.93749  -5207855.61347  22963961.1354   22963957.8854
     -1146.1484
 -11989041.44149  -9341627.64847  22186378.0024   22186376.0644
      1783.3804
  -2206263.42249  -1719792.57448  21130974.2524   21130972.7094
      -602.8554
 04  9 16 22 33 30.0020000  0  7G29G 8G13G10G19G28G27
   -810278.35549   -626313.28546  24624119.3614   24624119.6004
      2913.8184
 -11469801.74649  -8925211.14548  20842952.3694   20842950.7254
       551.2324
  15418632.48449  12009102.50847  23158889.0254   23158888.9204
     -3681.8744
  -1744837.82449  -1355966.34047  23950171.3304   23950170.9164
     -1418.2074
  -6665296.75049  -5194350.00047  22967259.2524   22967255.8264
     -1155.4794
 -12015713.38749  -9362410.96147  22181302.9244   22181300.6154
      1778.1304
  -2197155.04749  -1712695.14548  21132707.5104   21132705.8854
      -607.2254
 04  9 16 22 33 45.0020000  0  7G29G 8G13G10G19G28G27
   -853944.57449   -660338.87146  24615810.2754   24615810.1504
      2911.0814
 -11477997.18049  -8931597.19548  20841392.5724   20841391.3424
       546.3624
  15473926.25049  12052188.52047  23169411.8144   23169411.2754
     -3686.2514
  -1723440.35249  -1339292.99247  23954242.7524   23954242.4674
     -1426.4984
  -6647825.23049  -5180735.82447  22970584.0724   22970580.6744
     -1164.7684
 -12042307.02749  -9383133.26647  22176242.2054   22176240.0684
      1772.9094
  -2187981.55149  -1705546.96548  21134453.3144   21134451.6624
      -611.5664
 04  9 16 22 34  0.0020000  0  7G29G 8G13G10G19G28G27
   -897570.52049   -694333.10946  24607508.9164   24607508.4634
      2908.3964
 -11486120.62949  -8937927.14848  20839846.9084   20839845.4084
       541.5634
  15529284.15249  12095324.49647  23179945.7294   23179945.5964
     -3690.5274
  -1701919.96949  -1322523.91847  23958338.2754   23958337.7214
     -1434.6924
  -6630215.51649  -5167013.98047  22973934.7214   22973931.4164
     -1173.9814
 -12068823.45749  -9403795.39847  22171195.9324   22171193.8264
      1767.7624
  -2178743.94149  -1698348.84048  21136210.9324   21136209.6974
      -615.8414
 04  9 16 22 34 15.0020000  0  7G29G 8G13G10G19G28G27
   -941158.13749   -728297.45346  24599214.6274   24599213.9794
      2905.8414
 -11494174.19149  -8944202.64848  20838314.1504   20838312.9554
       536.9044
  15584703.74249  12138508.55947  23190492.1584   23190491.7174
     -3694.6394
  -1680279.10549  -1305660.88347  23962456.2294   23962455.9044
     -1442.7244
  -6612469.95349  -5153186.27047  22977311.5964   22977308.7364
     -1183.0374
 -12095264.74649  -9424398.98447  22166164.5804   22166162.3964
      1762.7534
  -2169444.35549  -1691102.41048  21137981.0184   21137979.2294
      -619.9724
 04  9 16 22 34 30.0020000  0  7G29G 8G13G10G19G28G27
   -984702.69549   -762228.27746  24590927.9164   24590927.4514
      2902.9714
 -11502153.33249  -8950420.15248  20836796.0334   20836794.4394
       531.9434
  15640189.32449  12181744.03147  23201050.5644   23201049.7954
     -3699.0394
  -1658513.49649  -1288700.69147  23966597.3224   23966597.8304
     -1451.0414
  -6594584.25849  -5139249.36747  22980715.2684   22980712.2214
     -1192.3804
 -12121626.39549  -9444940.50847  22161148.0024   22161145.6664
      1757.4434
  -2160078.14849  -1683804.07448  21139763.0414   21139761.6624
      -624.4144
 04  9 16 22 34 45.0020000  0  7G29G 8G13G10G19G28G27
  -1028204.07049   -796125.41046  24582650.3854   24582649.8304
      2900.0924
 -11510058.10549  -8956579.71548  20835291.6274   20835289.9244
       526.9854
  15695740.39549  12225030.53947  23211621.9554   23211621.3034
     -3703.4054
  -1636623.48049  -1271643.54347  23970763.6354   23970763.0964
     -1459.3344
  -6576558.56649  -5125203.37147  22984146.0414   22984142.5214
     -1201.7134
 -12147908.53949  -9465420.08247  22156146.6894   22156144.5884
      1752.1434
  -2150645.55949  -1676454.00848  21141558.0964   21141556.4084
      -628.8394
 04  9 16 22 35  0.0020000  0  7G29G 8G13G10G19G28G27
  -1071658.17649   -829985.73846  24574380.9164   24574380.7954
      2896.9404
 -11517884.96149  -8962678.55948  20833802.1354   20833800.7174
       521.7904
  15751360.30949  12268370.69147  23222206.1664   23222205.1234
     -3707.9944
  -1614605.68049  -1254486.84047  23974953.0104   23974952.8344
     -1467.8534
  -6558389.40249  -5111045.59047  22987603.0104   22987600.3424
     -1211.2784
 -12174107.51249  -9485834.84847  22151161.2604   22151159.4124
      1746.5984
  -2141142.68449  -1669049.17248  21143366.4394   21143364.8144
      -633.5254
 04  9 16 22 35 15.0020000  0  7G29G 8G13G10G19G28G27
  -1115066.33249   -863810.25446  24566120.9634   24566120.5184
      2893.8774
 -11525634.96149  -8968717.51648  20832327.3934   20832325.7564
       516.6674
  15807047.55549  12311763.30547  23232802.9394   23232802.1824
     -3712.4834
  -1592461.68749  -1237231.79747  23979166.8694   23979166.6234
     -1476.2664
  -6540078.22349  -5096777.13747  22991087.6824   22991084.9364
     -1220.7454
 -12200224.60549  -9506185.80947  22146191.4084   22146189.3304
      1741.1404
  -2131571.01249  -1661590.73448  21145187.9394   21145186.3854
      -638.1114
 04  9 16 22 35 30.0020000  0  7G29G 8G13G10G19G28G27
  -1158428.25849   -897598.73446  24557869.5104   24557868.8034
      2890.7954
 -11533308.16049  -8974696.63348  20830867.3774   20830865.8424
       511.5474
  15862801.44949  12355207.86347  23243412.1354   23243411.9514
     -3716.9264
  -1570192.07049  -1219878.86747  23983405.2134   23983404.5764
     -1484.6414
  -6521625.52349  -5082398.41447  22994599.1044   22994596.1154
     -1230.1804
 -12226260.09849  -9526473.18047  22141237.2444   22141234.7684
      1735.6994
  -2121930.59049  -1654078.71548  21147022.2524   21147021.2134
      -642.6954
 04  9 16 22 35 45.0020000  0  7G29G 8G13G10G19G28G27
  -1201743.58649   -931350.94146  24549626.5574   24549625.5964
      2887.6894
 -11540904.42649  -8980615.79748  20829421.7754   20829420.3894
       506.4184
  15918622.04749  12398704.40247  23254034.4794   23254034.2994
     -3721.3734
  -1547796.95749  -1202428.14846  23987666.1434   23987666.0494
     -1493.0084
  -6503031.18449  -5067909.33647  22998137.5334   22998135.0214
     -1239.6234
 -12252213.60549  -9546696.67247  22136298.2754   22136296.0684
      1730.2344
  -2112221.17649  -1646512.94148  21148869.8224   21148868.6234
      -647.2944
 04  9 16 22 36  0.0020000  0  7G29G 8G13G10G19G28G27
  -1245007.81649   -965063.28946  24541393.3774   24541393.0454
      2884.2824
 -11548419.24249  -8986471.49648  20827991.5884   20827990.3934
       500.9884
  15974513.12549  12442255.85247  23264670.2214   23264669.6004
     -3726.0724
  -1525272.23449  -1184876.43047  23991953.3304   23991952.2994
     -1501.6484
  -6484290.96549  -5053306.57447  23001703.4394   23001700.5184
     -1249.3484
 -12278080.80549  -9566852.92247  22131375.5644   22131373.7564
      1724.4804
  -2102438.40649  -1638890.02048  21150731.5884   21150730.2794
      -652.1854
 04  9 16 22 36 15.0020000  0  7G29G 8G13G10G19G28G27
  -1288222.63749   -998737.14146  24533170.0024   24533169.6044
      2880.9884
 -11555854.59849  -8992265.27048  20826576.7054   20826575.2404
       495.6904
  16030472.38349  12485860.43447  23275319.4794   23275318.6434
     -3730.6174
  -1502620.24649  -1167225.54347  23996263.2524   23996262.8344
     -1510.1334
  -6465407.13749  -5038591.91447  23005296.7364   23005293.6864
     -1258.9224
 -12303863.88749  -9586943.60947  22126469.1584   22126467.4674
      1718.8724
  -2092584.36349  -1631211.53948  21152606.5644   21152605.0494
      -656.9364
